[[{"header":{"parameterUnit":"m.s-1","parameterCategory":1,"la1":31.0,"la2":29.5877,"lo1":-88.7671,"lo2":-86.6584,"dy":0.0162,"dx":0.0185,"nx":115,"ny":88,"refTime":"2023-10-10T06:00:00:Z","depth":0,"parameterNumber":2,"parameterNumberName":"U-component_of_WINDS"},"data":[0.0,0.0,0.0,0.0,0.0,0.0,0.0,0.0,0.0,0.0,0.0,0.0,0.0,0.0,0.0,0.0,0.0,0.0,0.0,0.0,0.0,0.0,0.0,0.0,0.0,0.0,0.0,0.0,0.0,0.0,0.0,0.0,0.0,0.0,0.0,0.0,0.0,0.0,0.0,0.0,0.0,0.0,0.0,0.0,0.0,0.0,0.0,0.0,0.0,0.0,0.0,0.0,0.0,0.0,0.0,0.0,0.0,0.0,0.0,0.0,0.0,0.0,0.0,0.0,0.0,0.0,0.0,0.0,0.0,0.0,0.0,0.0,0.0,0.0,0.0,0.0,0.0,0.0,0.0,0.0,0.0,0.0,0.0,0.0,0.0,0.0,0.0,0.0,0.0,0.0,0.0,0.0,0.0,0.0,0.0,0.0,0.0,0.0,0.0,0.0,0.0,0.0,0.0,0.0,0.0,0.0,0.0,0.0,0.0,0.0,0.0,0.0,0.0,0.0,0.0,0.0,0.0,0.0,0.0,0.0,0.0,0.0,0.0,0.0,0.0,0.0,0.0,0.0,0.0,0.0,0.0,0.0,0.0,0.0,0.0,0.0,0.0,0.0,0.0,0.0,0.0,0.0,0.0,0.0,0.0,0.0,0.0,0.0,0.0,0.0,0.0,0.0,0.0,0.0,0.0,0.0,0.0,0.0,0.0,0.0,0.0,0.0,0.0,0.0,0.0,0.0,0.0,0.0,0.0,0.0,0.0,0.0,0.0,0.0,0.0,0.0,0.0,0.0,0.0,0.0,0.0,0.0,0.0,0.0,0.0,0.0,0.0,0.0,0.0,0.0,0.0,0.0,0.0,0.0,0.0,0.0,0.0,0.0,0.0,0.0,0.0,0.0,0.0,0.0,0.0,0.0,0.0,0.0,0.0,0.0,0.0,0.0,0.0,0.0,0.0,0.0,0.0,0.0,0.0,0.0,0.0,0.0,0.0,0.0,0.0,0.0,0.0,0.0,0.0,0.0,0.0,0.0,0.0,0.0,0.0,0.0,0.0,0.0,0.0,0.0,0.0,0.0,0.0,0.0,0.0,0.0,0.0,0.0,0.0,0.0,0.0,0.0,0.0,0.0,0.0,0.0,0.0,0.0,0.0,0.0,0.0,0.0,0.0,0.0,0.0,0.0,0.0,0.0,0.0,0.0,0.0,0.0,0.0,0.0,0.0,0.0,0.0,0.0,0.0,0.0,0.0,0.0,0.0,0.0,0.0,0.0,0.0,0.0,0.0,0.0,0.0,0.0,0.0,0.0,0.0,0.0,0.0,0.0,0.0,0.0,0.0,0.0,0.0,0.0,0.0,0.0,0.0,0.0,0.0,0.0,0.0,0.0,0.0,0.0,0.0,0.0,0.0,0.0,0.0,0.0,0.0,0.0,0.0,0.0,0.0,0.0,0.0,0.0,0.0,0.0,0.0,0.0,0.0,0.0,0.0,0.0,0.0,0.0,0.0,0.0,0.0,0.0,0.0,0.0,0.0,0.0,0.0,0.0,0.0,0.0,0.0,0.0,0.0,0.0,0.0,0.0,0.0,0.0,0.0,0.0,0.0,0.0,0.0,0.0,0.0,0.0,0.0,0.0,0.0,0.0,0.0,0.0,0.0,0.0,0.0,0.0,0.0,0.0,0.0,0.0,0.0,0.0,0.0,0.0,0.0,0.0,0.0,0.0,0.0,0.0,0.0,0.0,0.0,0.0,0.0,0.0,0.0,0.0,0.0,0.0,0.0,0.0,0.0,0.0,0.0,0.0,0.0,0.0,0.0,0.0,0.0,0.0,0.0,0.0,0.0,0.0,0.0,0.0,0.0,0.0,0.0,0.0,0.0,0.0,0.0,0.0,0.0,0.0,0.0,0.0,0.0,0.0,0.0,0.0,0.0,0.0,0.0,0.0,0.0,0.0,0.0,0.0,0.0,0.0,0.0,0.0,0.0,0.0,0.0,0.0,0.0,0.0,0.0,0.0,0.0,0.0,0.0,0.0,0.0,0.0,0.0,0.0,0.0,0.0,0.0,0.0,0.0,0.0,0.0,0.0,0.0,0.0,0.0,0.0,0.0,0.0,0.0,0.0,0.0,0.0,0.0,0.0,0.0,0.0,0.0,0.0,0.0,0.0,0.0,0.0,0.0,0.0,0.0,0.0,0.0,0.0,0.0,0.0,0.0,0.0,0.0,0.0,0.0,0.0,0.0,0.0,0.0,0.0,0.0,0.0,0.0,0.0,0.0,0.0,0.0,0.0,0.0,0.0,0.0,0.0,0.0,0.0,0.0,0.0,0.0,0.0,0.0,0.0,0.0,0.0,0.0,0.0,0.0,0.0,0.0,0.0,0.0,0.0,0.0,0.0,0.0,0.0,0.0,0.0,0.0,0.0,0.0,0.0,0.0,0.0,0.0,0.0,0.0,0.0,0.0,0.0,0.0,0.0,0.0,0.0,0.0,0.0,0.0,0.0,0.0,0.0,0.0,0.0,0.0,0.0,0.0,0.0,0.0,0.0,0.0,0.0,0.0,0.0,0.0,0.0,0.0,0.0,0.0,0.0,0.0,0.0,0.0,0.0,0.0,0.0,0.0,0.0,0.0,0.0,0.0,0.0,0.0,0.0,0.0,0.0,0.0,0.0,0.0,0.0,0.0,0.0,0.0,0.0,0.0,0.0,0.0,0.0,0.0,0.0,0.0,0.0,0.0,0.0,0.0,0.0,0.0,0.0,0.0,0.0,0.0,0.0,0.0,0.0,0.0,0.0,0.0,0.0,0.0,0.0,0.0,0.0,0.0,0.0,0.0,0.0,0.0,0.0,0.0,0.0,0.0,0.0,0.0,0.0,0.0,0.0,0.0,0.0,0.0,0.0,0.0,0.0,0.0,0.0,0.0,0.0,0.0,0.0,0.0,0.0,0.0,0.0,0.0,0.0,0.0,0.0,0.0,0.0,0.0,0.0,0.0,0.0,0.0,0.0,0.0,0.0,0.0,0.0,0.0,0.0,0.0,0.0,0.0,0.0,0.0,0.0,0.0,0.0,0.0,0.0,0.0,0.0,0.0,0.0,0.0,0.0,0.0,0.0,0.0,0.0,0.0,0.0,0.0,0.0,0.0,0.0,0.0,0.0,0.0,0.0,0.0,0.0,0.0,0.0,0.0,0.0,0.0,0.0,0.0,0.0,0.0,0.0,0.0,0.0,0.0,0.0,0.0,0.0,0.0,0.0,0.0,0.0,0.0,0.0,0.0,0.0,0.0,0.0,0.0,0.0,0.0,0.0,0.0,0.0,0.0,0.0,0.0,0.0,0.0,0.0,0.0,0.0,0.0,0.0,0.0,0.0,0.0,0.0,0.0,0.0,0.0,0.0,0.0,0.0,0.0,0.0,0.0,0.0,0.0,0.0,0.0,0.0,0.0,0.0,0.0,0.0,0.0,0.0,0.0,0.0,0.0,0.0,0.0,0.0,0.0,0.0,0.0,0.0,0.0,0.0,0.0,0.0,0.0,0.0,0.0,0.0,0.0,0.0,0.0,0.0,0.0,0.0,0.0,0.0,0.0,0.0,0.0,0.0,0.0,0.0,0.0,0.0,0.0,0.0,0.0,0.0,0.0,0.0,0.0,0.0,0.0,0.0,0.0,0.0,0.0,0.0,0.0,0.0,0.0,0.0,0.0,0.0,0.0,0.0,0.0,0.0,0.0,0.0,0.0,0.0,0.0,0.0,0.0,0.0,0.0,0.0,0.0,0.0,0.0,0.0,0.0,0.0,0.0,0.0,0.0,0.0,0.0,0.0,0.0,0.0,0.0,0.0,0.0,0.0,0.0,0.0,0.0,0.0,0.0,0.0,0.0,0.0,0.0,0.0,0.0,0.0,0.0,0.0,0.0,0.0,0.0,0.0,0.0,0.0,0.0,0.0,0.0,0.0,0.0,0.0,0.0,0.0,0.0,0.0,0.0,0.0,0.0,0.0,0.0,0.0,0.0,0.0,0.0,0.0,0.0,0.0,0.0,0.0,0.0,0.0,0.0,0.0,0.0,0.0,0.0,0.0,0.0,0.0,0.0,0.0,0.0,0.0,0.0,0.0,0.0,0.0,0.0,0.0,0.0,0.0,0.0,0.0,0.0,0.0,0.0,0.0,0.0,0.0,0.0,0.0,0.0,0.0,0.0,0.0,0.0,0.0,0.0,0.0,0.0,0.0,0.0,0.0,0.0,0.0,0.0,0.0,0.0,0.0,0.0,0.0,0.0,0.0,2.0371,0.0,0.0,0.0,0.0,0.0,0.0,0.0,0.0,0.0,0.0,0.0,0.0,0.0,0.0,0.0,0.0,0.0,0.0,0.0,0.0,0.0,0.0,0.0,0.0,0.0,0.0,0.0,0.0,0.0,0.0,0.0,0.0,0.0,0.0,0.0,0.0,0.0,0.0,0.0,0.0,0.0,0.0,0.0,0.0,0.0,0.0,0.0,0.0,0.0,0.0,0.0,0.0,0.0,0.0,0.0,0.0,0.0,0.0,0.0,0.0,0.0,0.0,0.0,0.0,0.0,0.0,0.0,0.0,0.0,0.0,0.0,0.0,0.0,0.0,0.0,0.0,0.0,0.0,0.0,0.0,0.0,0.0,0.0,0.0,0.0,0.0,0.0,0.0,0.0,0.0,0.0,0.0,0.0,0.0,0.0,0.0,0.0,0.0,0.0,0.0,0.0,0.0,0.0,0.0,0.0,0.0,0.0,0.0,0.0,0.0,2.3802,2.3268,2.3186,2.2676,2.175,0.0,0.0,0.0,0.0,0.0,0.0,0.0,0.0,0.0,0.0,0.0,0.0,0.0,0.0,0.0,0.0,0.0,0.0,0.0,0.0,0.0,0.0,0.0,0.0,0.0,0.0,0.0,0.0,0.0,0.0,0.0,0.0,0.0,0.0,0.0,0.0,0.0,0.0,0.0,0.0,0.0,0.0,0.0,0.0,0.0,0.0,0.0,0.0,0.0,0.0,0.0,0.0,0.0,0.0,0.0,0.0,0.0,0.0,0.0,0.0,0.0,0.0,0.0,0.0,0.0,0.0,0.0,0.0,0.0,0.0,0.0,0.0,0.0,0.0,0.0,0.0,0.0,0.0,0.0,0.0,0.0,0.0,0.0,0.0,0.0,0.0,0.0,0.0,0.0,0.0,0.0,0.0,0.0,0.0,0.0,0.0,0.0,0.0,0.0,0.0,0.0,0.0,0.0,0.0,0.0,0.0,0.0,0.0,0.0,0.0,0.0,0.0,2.3888,2.3577,2.2818,0.0,0.0,0.0,0.0,0.0,0.0,0.0,0.0,0.0,0.0,0.0,0.0,0.0,0.0,0.0,0.0,0.0,0.0,0.0,0.0,0.0,0.0,0.0,0.0,0.0,0.0,0.0,0.0,0.0,0.0,0.0,0.0,0.0,0.0,0.0,0.0,0.0,0.0,0.0,0.0,0.0,0.0,0.0,0.0,0.0,0.0,0.0,0.0,0.0,0.0,0.0,0.0,0.0,0.0,0.0,0.0,0.0,0.0,0.0,0.0,0.0,0.0,0.0,0.0,0.0,0.0,0.0,0.0,0.0,0.0,0.0,0.0,0.0,0.0,0.0,0.0,0.0,0.0,0.0,0.0,0.0,0.0,0.0,0.0,0.0,0.0,0.0,0.0,0.0,0.0,0.0,0.0,0.0,0.0,0.0,0.0,0.0,0.0,0.0,0.0,0.0,0.0,0.0,0.0,0.0,0.0,0.0,0.0,0.0,0.0,2.428,2.3908,2.3888,0.0,2.2574,0.0,0.0,0.0,0.0,0.0,0.0,0.0,0.0,0.0,0.0,0.0,0.0,0.0,0.0,0.0,0.0,0.0,0.0,0.0,0.0,0.0,0.0,0.0,0.0,0.0,0.0,0.0,0.0,0.0,0.0,0.0,0.0,0.0,0.0,0.0,0.0,0.0,0.0,0.0,0.0,0.0,0.0,0.0,0.0,0.0,0.0,0.0,0.0,0.0,0.0,0.0,0.0,0.0,0.0,0.0,0.0,0.0,0.0,0.0,0.0,0.0,0.0,0.0,0.0,0.0,0.0,0.0,0.0,0.0,0.0,0.0,0.0,0.0,0.0,0.0,0.0,0.0,0.0,0.0,0.0,0.0,0.0,0.0,0.0,0.0,0.0,0.0,0.0,0.0,0.0,0.0,0.0,0.0,0.0,0.0,0.0,0.0,0.0,0.0,0.0,0.0,0.0,0.0,0.0,0.0,0.0,0.0,0.0,0.0,0.0,2.4404,2.4239,2.426,2.3966,0.0,0.0,0.0,0.0,0.0,0.0,0.0,0.0,0.0,0.0,0.0,0.0,0.0,0.0,0.0,0.0,0.0,0.0,0.0,0.0,0.0,0.0,0.0,0.0,0.0,0.0,0.0,0.0,0.0,0.0,0.0,0.0,0.0,0.0,0.0,0.0,0.0,0.0,0.0,0.0,0.0,0.0,0.0,0.0,0.0,0.0,0.0,0.0,0.0,0.0,0.0,0.0,0.0,0.0,0.0,0.0,0.0,0.0,0.0,0.0,0.0,0.0,0.0,0.0,0.0,0.0,0.0,0.0,0.0,0.0,0.0,0.0,0.0,0.0,0.0,0.0,0.0,0.0,0.0,0.0,0.0,0.0,0.0,0.0,0.0,0.0,0.0,0.0,0.0,0.0,0.0,0.0,0.0,0.0,0.0,0.0,0.0,0.0,0.0,0.0,0.0,0.0,0.0,0.0,0.0,0.0,0.0,0.0,0.0,0.0,2.4425,2.4507,2.4507,2.4507,2.4317,2.3851,0.0,0.0,0.0,0.0,0.0,0.0,0.0,0.0,0.0,0.0,0.0,0.0,0.0,0.0,0.0,0.0,0.0,0.0,0.0,0.0,0.0,0.0,0.0,0.0,0.0,0.0,0.0,0.0,0.0,0.0,0.0,0.0,0.0,0.0,0.0,0.0,0.0,0.0,0.0,0.0,0.0,0.0,0.0,0.0,0.0,0.0,0.0,0.0,0.0,0.0,0.0,0.0,0.0,0.0,0.0,0.0,0.0,0.0,0.0,0.0,0.0,0.0,0.0,0.0,0.0,0.0,0.0,0.0,0.0,0.0,0.0,0.0,0.0,0.0,0.0,0.0,0.0,0.0,0.0,0.0,0.0,0.0,0.0,0.0,0.0,0.0,0.0,0.0,0.0,0.0,0.0,0.0,0.0,0.0,0.0,0.0,0.0,0.0,0.0,0.0,0.0,0.0,0.0,0.0,0.0,0.0,0.0,0.0,2.3929,2.428,2.4507,2.4507,2.4507,2.4301,0.0,0.0,0.0,0.0,0.0,0.0,0.0,0.0,0.0,0.0,0.0,0.0,0.0,0.0,0.0,0.0,0.0,0.0,0.0,0.0,0.0,0.0,0.0,0.0,0.0,0.0,0.0,0.0,0.0,0.0,0.0,0.0,0.0,0.0,0.0,0.0,0.0,0.0,0.0,0.0,0.0,0.0,0.0,0.0,0.0,0.0,0.0,0.0,0.0,0.0,0.0,0.0,0.0,0.0,0.0,0.0,0.0,0.0,0.0,0.0,0.0,0.0,0.0,0.0,0.0,0.0,0.0,0.0,0.0,0.0,0.0,0.0,0.0,0.0,0.0,0.0,0.0,0.0,0.0,0.0,0.0,0.0,0.0,0.0,0.0,0.0,0.0,0.0,0.0,0.0,0.0,0.0,0.0,0.0,0.0,0.0,0.0,0.0,0.0,0.0,0.0,0.0,0.0,0.0,0.0,0.0,0.0,0.0,0.0,2.3929,2.4259,2.4507,2.4487,2.426,2.3949,0.0,0.0,0.0,0.0,0.0,0.0,0.0,0.0,0.0,0.0,0.0,0.0,0.0,0.0,0.0,0.0,0.0,0.0,0.0,0.0,0.0,0.0,0.0,0.0,0.0,0.0,0.0,0.0,0.0,0.0,0.0,0.0,0.0,0.0,0.0,0.0,0.0,0.0,0.0,0.0,0.0,0.0,0.0,0.0,0.0,0.0,0.0,0.0,0.0,0.0,0.0,0.0,0.0,0.0,0.0,0.0,0.0,0.0,0.0,0.0,0.0,0.0,0.0,0.0,0.0,0.0,0.0,0.0,0.0,0.0,0.0,0.0,0.0,0.0,0.0,0.0,0.0,0.0,0.0,0.0,0.0,0.0,0.0,0.0,0.0,0.0,0.0,0.0,0.0,0.0,0.0,0.0,0.0,0.0,0.0,0.0,0.0,0.0,0.0,0.0,0.0,0.0,0.0,0.0,0.0,0.0,0.0,0.0,0.0,2.3909,0.0,2.4507,2.4487,2.4115,2.3763,0.0,0.0,0.0,0.0,0.0,0.0,0.0,0.0,0.0,0.0,0.0,0.0,0.0,0.0,0.0,0.0,0.0,0.0,0.0,0.0,0.0,0.0,0.0,0.0,0.0,0.0,0.0,0.0,0.0,0.0,0.0,0.0,0.0,0.0,0.0,0.0,0.0,0.0,0.0,0.0,0.0,0.0,0.0,0.0,0.0,0.0,0.0,0.0,0.0,0.0,0.0,0.0,0.0,0.0,0.0,0.0,0.0,0.0,0.0,0.0,0.0,0.0,0.0,0.0,0.0,0.0,0.0,0.0,0.0,0.0,0.0,0.0,0.0,0.0,0.0,0.0,0.0,0.0,0.0,0.0,0.0,0.0,0.0,0.0,0.0,0.0,0.0,0.0,0.0,0.0,0.0,0.0,0.0,0.0,0.0,0.0,0.0,0.0,0.0,0.0,0.0,0.0,0.0,0.0,0.0,0.0,0.0,0.0,2.2977,2.3888,2.4322,2.4528,2.4507,2.4136,2.3722,0.0,0.0,0.0,0.0,0.0,0.0,0.0,0.0,0.0,0.0,0.0,0.0,0.0,0.0,0.0,0.0,0.0,0.0,0.0,0.0,0.0,0.0,0.0,0.0,0.0,0.0,0.0,0.0,0.0,0.0,0.0,0.0,0.0,0.0,0.0,0.0,0.0,0.0,0.0,0.0,0.0,0.0,0.0,0.0,0.0,0.0,0.0,0.0,0.0,0.0,0.0,0.0,0.0,0.0,0.0,0.0,0.0,0.0,0.0,0.0,0.0,0.0,0.0,0.0,0.0,0.0,0.0,0.0,0.0,0.0,0.0,0.0,0.0,0.0,0.0,0.0,0.0,0.0,0.0,0.0,0.0,0.0,0.0,0.0,0.0,0.0,0.0,0.0,0.0,0.0,0.0,0.0,0.0,0.0,0.0,0.0,0.0,0.0,0.0,0.0,0.0,0.0,0.0,0.0,0.0,0.0,0.0,0.0,0.0,2.3867,2.4633,2.4983,2.4941,2.4528,2.3971,0.0,0.0,0.0,0.0,0.0,0.0,0.0,0.0,0.0,0.0,0.0,0.0,0.0,0.0,0.0,0.0,0.0,0.0,0.0,0.0,0.0,0.0,0.0,0.0,0.0,0.0,0.0,0.0,0.0,0.0,0.0,0.0,0.0,0.0,0.0,0.0,0.0,0.0,0.0,0.0,0.0,0.0,0.0,0.0,0.0,0.0,0.0,0.0,0.0,0.0,0.0,0.0,0.0,0.0,0.0,0.0,0.0,0.0,0.0,0.0,0.0,0.0,0.0,0.0,0.0,0.0,0.0,0.0,0.0,0.0,0.0,0.0,0.0,0.0,0.0,0.0,0.0,0.0,0.0,0.0,0.0,0.0,0.0,0.0,0.0,0.0,0.0,0.0,0.0,0.0,0.0,0.0,0.0,0.0,0.0,0.0,0.0,0.0,0.0,0.0,0.0,0.0,0.0,0.0,0.0,0.0,0.0,0.0,0.0,2.4881,2.5275,2.5482,2.5461,2.4817,2.4176,2.3577,0.0,0.0,0.0,0.0,0.0,0.0,0.0,0.0,0.0,0.0,0.0,0.0,0.0,0.0,0.0,0.0,0.0,0.0,0.0,0.0,0.0,0.0,0.0,0.0,0.0,0.0,0.0,0.0,0.0,0.0,0.0,0.0,0.0,0.0,0.0,0.0,0.0,0.0,0.0,0.0,0.0,0.0,0.0,0.0,0.0,0.0,0.0,0.0,0.0,0.0,0.0,0.0,0.0,0.0,0.0,0.0,0.0,0.0,0.0,0.0,0.0,0.0,0.0,0.0,0.0,0.0,0.0,0.0,0.0,0.0,0.0,0.0,0.0,0.0,0.0,0.0,0.0,0.0,0.0,0.0,0.0,0.0,0.0,0.0,0.0,0.0,0.0,0.0,0.0,0.0,0.0,0.0,0.0,0.0,0.0,0.0,0.0,0.0,0.0,0.0,0.0,0.0,0.0,0.0,0.0,0.0,0.0,0.0,2.6667,2.6248,2.6086,2.6044,2.5171,2.4504,0.0,0.0,0.0,0.0,0.0,0.0,0.0,0.0,0.0,0.0,0.0,0.0,0.0,0.0,0.0,0.0,0.0,0.0,0.0,0.0,0.0,0.0,0.0,0.0,0.0,0.0,0.0,0.0,0.0,0.0,0.0,0.0,0.0,0.0,0.0,0.0,0.0,0.0,0.0,0.0,0.0,0.0,0.0,0.0,0.0,0.0,0.0,0.0,0.0,0.0,0.0,0.0,0.0,0.0,0.0,0.0,0.0,0.0,0.0,0.0,0.0,0.0,0.0,0.0,0.0,0.0,0.0,0.0,0.0,0.0,0.0,0.0,0.0,0.0,0.0,0.0,0.0,0.0,0.0,0.0,0.0,0.0,0.0,0.0,0.0,0.0,0.0,0.0,0.0,0.0,0.0,0.0,0.0,0.0,0.0,0.0,0.0,0.0,0.0,0.0,0.0,0.0,0.0,0.0,0.0,0.0,0.0,0.0,0.0,2.7489,2.7779,2.7738,2.7386,2.6848,2.5826,0.0,0.0,0.0,0.0,0.0,0.0,0.0,0.0,0.0,0.0,0.0,0.0,0.0,0.0,0.0,0.0,0.0,0.0,0.0,0.0,0.0,0.0,0.0,0.0,0.0,0.0,0.0,0.0,0.0,0.0,0.0,0.0,0.0,0.0,0.0,0.0,0.0,0.0,0.0,0.0,0.0,0.0,0.0,0.0,0.0,0.0,0.0,0.0,0.0,0.0,0.0,0.0,0.0,0.0,0.0,0.0,0.0,0.0,0.0,0.0,0.0,0.0,0.0,0.0,0.0,0.0,0.0,0.0,0.0,0.0,0.0,0.0,0.0,0.0,0.0,0.0,0.0,0.0,0.0,0.0,0.0,0.0,0.0,0.0,0.0,0.0,0.0,0.0,0.0,0.0,0.0,0.0,0.0,0.0,0.0,0.0,0.0,0.0,0.0,0.0,0.0,0.0,0.0,0.0,0.0,0.0,0.0,0.0,2.6682,2.8462,2.8959,2.9166,2.9083,2.8069,2.6598,0.0,0.0,0.0,0.0,0.0,0.0,0.0,0.0,0.0,0.0,0.0,0.0,0.0,0.0,0.0,0.0,0.0,0.0,0.0,0.0,0.0,0.0,0.0,0.0,0.0,0.0,0.0,0.0,0.0,0.0,0.0,0.0,0.0,0.0,0.0,0.0,0.0,0.0,0.0,0.0,0.0,0.0,0.0,0.0,0.0,0.0,0.0,0.0,0.0,0.0,0.0,0.0,0.0,0.0,0.0,0.0,0.0,0.0,0.0,0.0,0.0,0.0,0.0,0.0,0.0,0.0,0.0,0.0,0.0,0.0,0.0,0.0,0.0,0.0,0.0,0.0,0.0,0.0,0.0,0.0,0.0,0.0,0.0,0.0,0.0,0.0,0.0,0.0,0.0,0.0,0.0,0.0,0.0,0.0,0.0,0.0,0.0,0.0,0.0,0.0,0.0,0.0,0.0,0.0,0.0,0.0,0.0,0.0,2.7572,2.9332,2.987,3.0325,3.0677,2.895,2.7023,0.0,0.0,0.0,0.0,0.0,0.0,0.0,0.0,0.0,0.0,0.0,0.0,0.0,0.0,0.0,0.0,0.0,0.0,0.0,0.0,0.0,0.0,0.0,0.0,0.0,0.0,0.0,0.0,0.0,0.0,0.0,0.0,0.0,0.0,0.0,0.0,0.0,0.0,0.0,0.0,0.0,0.0,0.0,0.0,0.0,0.0,0.0,0.0,0.0,0.0,0.0,0.0,0.0,0.0,0.0,0.0,0.0,0.0,0.0,0.0,0.0,0.0,0.0,0.0,0.0,0.0,0.0,0.0,0.0,0.0,0.0,0.0,0.0,0.0,0.0,0.0,0.0,0.0,0.0,0.0,0.0,0.0,0.0,0.0,0.0,0.0,0.0,0.0,0.0,0.0,0.0,0.0,0.0,0.0,0.0,0.0,0.0,0.0,0.0,0.0,0.0,0.0,0.0,0.0,0.0,0.0,0.0,0.0,2.8359,2.9808,3.0657,3.1133,3.1215,2.9558,2.763,0.0,0.0,0.0,0.0,0.0,0.0,0.0,0.0,0.0,0.0,0.0,0.0,0.0,0.0,0.0,0.0,0.0,0.0,0.0,0.0,0.0,0.0,0.0,0.0,0.0,0.0,0.0,0.0,0.0,0.0,0.0,0.0,0.0,0.0,0.0,0.0,0.0,0.0,0.0,0.0,0.0,0.0,0.0,0.0,0.0,0.0,0.0,0.0,1.0672,0.0,0.0,0.0,0.0,0.0,0.0,0.0,0.0,0.0,0.0,0.0,0.0,0.0,0.0,0.0,0.0,0.0,0.0,0.0,0.0,0.0,0.0,0.0,0.0,0.0,0.0,0.0,0.0,0.0,0.0,0.0,0.0,0.0,0.0,0.0,0.0,0.0,0.0,0.0,0.0,0.0,0.0,0.0,0.0,0.0,0.0,0.0,0.0,0.0,0.0,0.0,0.0,0.0,0.0,0.0,0.0,0.0,0.0,0.0,2.8918,3.0284,3.1215,3.1692,3.1629,3.006,2.8046,0.0,0.0,0.0,0.0,0.0,0.0,0.0,0.0,0.0,0.0,0.0,0.0,0.0,0.0,0.0,0.0,0.0,0.0,0.0,0.0,0.0,0.0,0.0,0.0,0.0,0.0,0.0,0.0,0.0,0.0,0.0,0.0,0.0,0.0,0.0,0.0,0.0,0.0,0.0,0.0,0.0,0.0,0.0,0.0,0.0,0.0,0.0,0.0,0.0,0.0,0.0,0.0,0.0,0.0,0.0,0.0,0.0,0.0,0.0,0.0,0.0,0.0,0.0,0.0,0.0,0.0,0.0,0.0,0.0,0.0,0.0,0.0,0.0,0.0,0.0,0.0,0.0,0.0,0.0,0.0,0.0,0.0,0.0,0.0,0.0,0.0,0.0,0.0,0.0,0.0,0.0,0.0,0.0,0.0,0.0,0.0,0.0,0.0,0.0,0.0,0.0,0.0,0.0,0.0,0.0,0.0,0.0,2.8069,2.9435,3.0657,3.1567,3.1988,3.1967,3.0368,2.8195,2.5644,0.0,0.0,0.0,0.0,0.0,0.0,0.0,0.0,0.0,0.0,0.0,0.0,0.0,0.0,0.0,0.0,0.0,0.0,0.0,0.0,0.0,0.0,0.0,0.0,0.0,0.0,0.0,0.0,0.0,0.0,0.0,0.0,0.0,0.0,0.0,0.0,0.0,0.0,0.9992,1.0436,0.0,0.0,0.0,0.0,0.0,0.0,0.0,0.0,1.0737,0.0,0.0,0.0,0.0,0.0,0.0,0.0,0.0,0.0,0.0,0.0,0.0,0.0,0.0,0.0,0.0,0.0,0.0,0.0,0.0,0.0,0.0,0.0,0.0,0.0,0.0,0.0,0.0,0.0,0.0,0.0,0.0,0.0,0.0,0.0,0.0,0.0,0.0,0.0,0.0,0.0,0.0,0.0,0.0,0.0,0.0,0.0,0.0,0.0,0.0,0.0,0.0,0.0,0.0,0.0,0.0,2.6604,2.869,3.0077,3.0677,3.1567,3.1988,3.1946,2.9827,2.7759,2.5802,0.0,0.0,0.0,0.0,0.0,0.0,0.0,0.0,0.0,0.0,0.0,0.0,0.0,0.0,0.0,0.0,0.0,0.0,0.0,0.0,0.0,0.0,0.0,0.0,0.0,0.0,0.0,0.0,0.0,0.0,0.0,0.0,0.0,0.0,0.0,0.0,0.0,0.0,0.0,1.0802,1.1094,0.0,0.0,0.0,0.0,0.0,0.0,0.0,0.0,1.0923,0.0,0.0,0.0,0.0,0.0,0.0,0.0,0.0,0.0,0.0,0.0,0.0,0.0,0.0,0.0,0.0,0.0,0.0,0.0,0.0,0.0,0.0,0.0,0.0,0.0,0.0,0.0,0.0,0.0,0.0,0.0,0.0,0.0,0.0,0.0,0.0,0.0,0.0,0.0,0.0,0.0,0.0,0.0,0.0,0.0,0.0,0.0,0.0,0.0,0.0,0.0,0.0,0.0,0.0,0.0,2.7019,2.9187,3.0574,3.105,3.1752,3.2046,3.1778,2.9722,2.7577,0.0,0.0,0.0,0.0,0.0,0.0,0.0,0.0,0.0,0.0,0.0,0.0,0.0,0.0,0.0,0.0,0.0,0.0,0.0,0.0,0.0,0.0,0.0,0.0,0.0,0.0,0.0,0.0,0.0,0.0,0.0,0.0,0.0,0.0,0.0,0.0,0.0,0.0,0.0,0.0,1.1086,1.1338,1.1256,0.0,0.0,0.0,0.0,0.0,0.0,1.1102,1.1102,0.0,0.0,0.0,0.0,0.0,0.0,0.0,0.0,0.0,0.0,0.0,0.0,0.0,0.0,0.0,0.0,0.0,0.0,0.0,0.0,0.0,0.0,0.0,0.0,0.0,0.0,0.0,0.0,0.0,0.0,0.0,0.0,0.0,0.0,0.0,0.0,0.0,0.0,0.0,0.0,0.0,0.0,0.0,0.0,0.0,0.0,0.0,0.0,0.0,0.0,0.0,0.0,0.0,0.0,0.0,2.7351,2.957,3.0905,3.1326,3.1866,3.1901,3.1376,2.9425,2.7259,0.0,0.0,0.0,0.0,0.0,0.0,0.0,0.0,0.0,0.0,0.0,0.0,0.0,0.0,0.0,0.0,0.0,0.0,0.0,0.0,0.0,0.0,0.0,0.0,0.0,0.0,0.0,0.0,0.0,0.0,0.0,0.0,0.0,0.0,0.0,0.0,0.0,0.0,0.0,0.0,0.0,1.1524,1.1598,1.1703,0.0,0.0,0.0,0.0,1.133,1.1395,0.0,0.0,0.0,0.0,0.0,0.0,0.0,0.0,0.0,0.0,0.0,0.0,0.0,0.0,0.0,0.0,0.0,0.0,0.0,0.0,0.0,0.0,0.0,0.0,0.0,0.0,0.0,0.0,0.0,0.0,0.0,0.0,0.0,0.0,0.0,0.0,0.0,0.0,0.0,0.0,0.0,0.0,0.0,0.0,0.0,0.0,0.0,0.0,0.0,0.0,0.0,0.0,0.0,0.0,0.0,0.0,2.733,2.9518,3.0797,3.0956,3.1447,3.132,3.0596,2.8345,2.6267,0.0,0.0,0.0,0.0,0.0,0.0,0.0,0.0,0.0,0.0,0.0,0.0,0.0,0.0,0.0,0.0,0.0,0.0,0.0,0.0,0.0,0.0,0.0,0.0,0.0,0.0,0.0,0.0,0.0,0.0,0.0,0.0,0.0,0.0,0.0,0.0,0.0,0.0,0.0,0.0,0.0,1.1614,1.1922,1.1857,1.176,0.0,0.0,1.1711,1.1711,1.1979,0.0,0.0,0.0,0.0,0.0,0.0,0.0,0.0,0.0,0.0,0.0,0.0,0.0,0.0,0.0,0.0,0.0,0.0,0.0,0.0,0.0,0.0,0.0,0.0,0.0,0.0,0.0,0.0,0.0,0.0,0.0,0.0,0.0,0.0,0.0,0.0,0.0,0.0,0.0,0.0,0.0,0.0,0.0,0.0,0.0,0.0,0.0,0.0,0.0,0.0,0.0,0.0,0.0,0.0,0.0,2.6268,2.7655,2.9928,3.1338,3.162,3.1761,3.1206,2.993,2.7859,2.5587,0.0,0.0,0.0,0.0,0.0,0.0,0.0,0.0,0.0,0.0,0.0,0.0,0.0,0.0,0.0,0.0,0.0,0.0,0.0,0.0,0.0,0.0,0.0,0.0,0.0,0.0,0.0,0.0,0.0,0.0,0.0,0.0,0.0,0.0,0.0,0.0,0.0,0.0,0.0,0.0,0.0,0.0,1.1966,1.2142,0.0,0.0,0.0,1.2345,1.2239,0.0,0.0,0.0,0.0,0.0,0.0,0.0,0.0,0.0,0.0,0.0,0.0,0.0,0.0,0.0,0.0,0.0,0.0,0.0,0.0,0.0,0.0,0.0,0.0,0.0,0.0,0.0,0.0,0.0,0.0,0.0,0.0,0.0,0.0,0.0,0.0,0.0,0.0,0.0,0.0,0.0,0.0,0.0,0.0,0.0,0.0,0.0,0.0,0.0,0.0,0.0,0.0,0.0,0.0,0.0,0.0,0.0,2.7701,3.0153,3.1572,3.1981,3.1742,3.0892,2.9316,2.7227,0.0,0.0,0.0,0.0,0.0,0.0,0.0,0.0,0.0,0.0,0.0,0.0,0.0,0.0,0.0,0.0,0.0,0.0,0.0,0.0,0.0,0.0,0.0,0.0,0.0,0.0,0.0,0.9579,0.0,0.0,0.0,0.0,0.0,0.0,0.0,0.0,0.0,0.0,0.0,0.0,0.0,0.0,1.2288,1.2176,1.2458,1.2596,0.0,0.0,1.28,1.271,1.2889,1.2889,0.0,0.0,0.0,0.0,0.0,0.0,0.0,0.0,0.0,0.0,0.0,0.0,0.0,0.0,0.0,0.0,0.0,0.0,0.0,0.0,0.0,0.0,0.0,0.0,0.0,0.0,0.0,0.0,0.0,0.0,0.0,0.0,0.0,0.0,0.0,0.0,0.0,0.0,0.0,0.0,0.0,0.0,0.0,0.0,0.0,0.0,0.0,0.0,0.0,0.0,0.0,0.0,0.0,0.0,2.5879,2.718,2.9776,3.1174,3.1325,3.0841,3.0055,2.8938,2.6065,2.3595,0.0,0.0,0.0,0.0,0.0,0.0,0.0,0.0,0.0,0.0,0.0,0.0,0.0,0.0,0.0,0.0,0.0,0.0,0.0,0.0,0.0,0.0,0.0,0.0,0.0,0.0,0.0,0.0,0.0,0.0,0.0,0.0,0.0,0.0,0.0,0.0,0.0,0.0,0.0,0.0,0.0,1.2426,1.2735,1.2734,1.2873,0.0,1.2921,1.2823,1.3035,1.3352,1.3283,1.2726,0.0,0.0,0.0,0.0,0.0,0.0,0.0,0.0,0.0,0.0,0.0,0.0,0.0,0.0,0.0,0.0,0.0,0.0,0.0,0.0,0.0,0.0,0.0,0.0,0.0,0.0,0.0,0.0,0.0,0.0,0.0,0.0,0.0,0.0,0.0,0.0,0.0,0.0,0.0,0.0,0.0,0.0,0.0,0.0,0.0,0.0,0.0,0.0,0.0,0.0,0.0,0.0,0.0,2.5972,2.7711,2.9172,3.031,3.1165,2.9785,2.848,2.7255,2.5267,2.3094,0.0,0.0,0.0,0.0,0.0,0.0,0.0,0.0,0.0,0.0,0.0,0.0,0.0,0.0,0.0,0.0,0.0,0.0,0.0,0.0,0.0,0.0,0.0,0.0,0.0,0.0,0.0,0.0,1.0153,1.0057,0.9965,0.0,0.0,0.0,0.0,0.0,0.0,0.0,0.0,0.0,0.0,1.2881,1.3133,1.3262,0.0,0.0,1.3465,1.3441,1.3287,1.3474,1.3441,1.2832,1.2702,0.0,0.0,0.0,0.0,0.0,0.0,0.0,0.0,0.0,0.0,0.0,0.0,0.0,0.0,0.0,0.0,0.0,0.0,0.0,0.0,0.0,0.0,0.0,0.0,0.0,0.0,0.0,0.0,0.0,0.0,0.0,0.0,0.0,0.0,0.0,0.0,0.0,0.0,0.0,0.0,0.0,0.0,0.0,0.0,0.0,0.0,0.0,0.0,0.0,0.0,0.0,0.0,2.5604,2.7127,2.8407,2.9494,3.0265,2.8564,2.7239,2.62,2.4455,2.2536,0.0,0.0,0.0,0.0,0.0,0.0,0.0,0.0,0.0,0.0,0.0,0.0,0.0,0.0,0.0,0.0,0.0,0.0,0.0,0.0,0.0,0.0,0.0,0.0,0.0,0.0,0.0,0.0,1.0494,1.0363,1.0237,0.0,0.0,0.0,0.0,0.0,0.0,0.0,0.0,0.0,0.0,1.3384,1.3514,1.3644,1.3742,1.379,1.3815,1.3774,1.3636,1.3677,1.3555,1.3076,0.0,0.0,0.0,0.0,0.0,0.0,0.0,0.0,0.0,0.0,0.0,0.0,0.0,0.0,0.0,0.0,0.0,0.0,0.0,0.0,0.0,0.0,0.0,0.0,0.0,0.0,0.0,2.3828,0.0,0.0,2.3087,0.0,0.0,0.0,0.0,0.0,0.0,0.0,0.0,0.0,0.0,0.0,0.0,0.0,0.0,0.0,0.0,0.0,0.0,0.0,0.0,0.0,0.0,2.4585,2.5022,2.747,2.8556,2.8215,2.7213,2.6519,2.6104,2.3626,2.1803,2.073,0.0,0.0,0.0,0.0,0.0,0.0,0.0,0.0,0.0,0.0,0.0,0.0,0.0,0.0,0.0,0.0,0.0,0.0,0.0,0.0,0.0,0.0,0.0,0.0,0.0,0.0,1.0664,1.0542,1.0379,0.0,0.0,0.0,0.0,0.0,0.0,0.0,0.0,0.0,1.2743,1.3433,1.3888,1.3888,1.3896,1.3961,1.4131,1.388,1.3774,1.4091,1.4002,1.3774,0.0,0.0,0.0,0.0,0.0,0.0,0.0,0.0,0.0,0.0,0.0,0.0,0.0,0.0,0.0,0.0,0.0,0.0,0.0,0.0,0.0,0.0,0.0,0.0,0.0,0.0,0.0,2.5562,2.5203,0.0,0.0,0.0,0.0,0.0,0.0,0.0,0.0,0.0,0.0,0.0,2.6786,2.6598,0.0,0.0,0.0,0.0,0.0,0.0,0.0,0.0,0.0,0.0,0.0,0.0,2.3704,2.5155,2.6083,2.6796,2.7344,2.6052,2.5236,2.5101,2.3606,2.1548,1.8926,0.0,0.0,0.0,0.0,0.0,0.0,0.0,0.0,0.0,0.0,0.0,0.0,0.0,0.0,0.0,0.0,0.0,0.0,0.0,0.0,0.0,0.0,0.0,0.0,0.0,1.098,0.0,0.0,0.0,0.0,0.0,0.0,0.0,0.0,0.0,0.0,0.0,1.2588,1.3124,1.3604,1.3945,1.4066,1.4083,1.4107,0.0,0.0,0.0,0.0,0.0,0.0,0.0,0.0,0.0,0.0,0.0,0.0,0.0,0.0,1.414,1.349,1.3173,1.2978,1.2865,0.0,0.0,0.0,0.0,0.0,0.0,0.0,0.0,0.0,0.0,0.0,0.0,0.0,0.0,2.6687,2.6418,2.6418,0.0,0.0,0.0,0.0,0.0,0.0,0.0,0.0,2.7303,2.7813,2.8293,2.8093,2.7975,0.0,2.7552,2.6566,0.0,0.0,0.0,0.0,0.0,0.0,0.0,0.0,2.3107,2.4466,2.5128,2.5673,2.6121,2.5188,2.4569,2.4554,2.3028,2.0746,1.7659,1.66,1.4966,0.0,0.0,0.0,0.0,0.0,0.0,0.0,0.0,0.0,0.0,0.0,0.0,0.0,0.0,0.0,0.0,0.0,0.0,0.0,0.0,0.0,0.0,0.0,1.1419,0.0,0.0,0.0,0.0,0.0,0.0,0.0,0.0,0.0,1.2426,1.2824,1.3279,1.3685,1.3993,1.4221,1.4343,0.0,0.0,0.0,0.0,0.0,0.0,0.0,1.4447,1.4316,1.4439,1.4692,1.5106,1.5163,1.5195,1.5317,0.0,0.0,1.4332,1.418,1.4002,1.3937,1.3467,1.3069,1.3133,1.191,1.0697,0.0,0.0,0.0,0.0,2.7804,0.0,0.0,0.0,2.7496,2.7496,0.0,2.7434,0.0,0.0,0.0,0.0,2.6061,2.6563,0.0,0.0,2.9115,2.9641,3.0214,3.0181,3.0152,3.0036,2.949,2.8342,2.668,2.5244,0.0,0.0,0.0,0.0,0.0,0.0,2.2783,2.3079,2.458,2.5162,2.4701,2.465,2.4569,2.4392,2.1988,1.9424,1.6971,1.5582,1.4012,1.2214,1.1946,0.0,0.0,0.0,0.0,0.0,0.0,0.0,0.0,0.0,0.0,0.0,0.0,0.0,0.0,0.0,0.0,0.0,0.0,0.0,0.0,1.1589,0.0,0.0,0.0,0.0,0.0,0.0,0.0,0.0,0.0,1.3149,1.3173,1.3734,1.4237,1.4399,0.0,0.0,0.0,0.0,1.4513,1.47,1.4741,1.4589,1.4211,1.4647,1.4891,1.4431,0.0,0.0,1.5761,1.5537,1.528,1.5671,1.4001,1.3241,1.4625,1.4767,1.475,1.4692,1.329,1.2239,1.1725,1.0539,0.9235,3.3413,0.0,0.0,0.0,0.0,2.9933,3.0254,3.0657,3.0325,3.0015,2.9684,2.9404,0.0,0.0,0.0,0.0,0.0,0.0,2.959,3.0629,3.0486,3.0764,3.1301,3.1054,3.0943,3.0891,2.9584,2.8658,2.8137,2.6406,2.4479,2.2411,0.0,0.0,0.0,0.0,2.2434,2.3396,2.4306,2.4892,2.4973,2.4987,2.4137,2.2415,2.1163,1.9128,1.6152,1.558,1.4577,1.2861,1.2303,0.0,0.0,0.0,0.0,0.0,0.0,0.0,0.0,0.0,0.0,0.0,0.0,0.0,0.0,0.0,0.0,0.0,0.0,0.0,1.1955,1.232,1.2434,0.0,0.0,0.0,0.0,0.0,0.0,0.0,0.0,0.0,1.4391,1.4278,1.4237,0.0,0.0,1.4562,1.4692,1.447,1.4505,1.498,1.4751,0.0,1.5225,1.3872,1.288,1.3186,1.2287,1.1498,1.1614,1.1584,1.1538,1.1601,1.144,1.1354,1.1384,1.1458,1.1555,1.1579,1.0964,1.0447,1.0446,0.9238,0.7968,3.4758,3.2532,3.2007,3.1884,3.2079,3.2023,3.2333,3.2809,3.2354,3.2023,3.1712,3.1091,3.0387,2.9684,2.9157,0.0,0.0,0.0,3.1075,3.2345,3.2102,3.2228,3.2535,3.2534,3.219,3.1482,3.0334,2.9287,2.8289,2.6879,2.525,2.3407,0.0,2.1899,2.2131,2.2335,2.286,2.3691,2.3662,2.4093,2.4834,2.4156,2.266,2.0379,1.9397,1.7817,1.5673,1.5026,1.4211,1.3094,1.2645,1.2142,0.0,0.0,0.0,0.0,0.0,0.0,0.0,0.0,0.0,0.0,0.0,0.9984,1.0014,0.0,0.0,0.0,1.1671,1.2109,1.258,1.2881,0.0,0.0,0.0,0.0,0.0,0.0,0.0,1.414,1.4635,1.4964,1.5017,1.4764,1.4697,1.496,1.475,1.4645,1.4891,0.0,1.4727,1.4898,1.4083,1.3562,1.3917,1.2291,1.1147,1.1571,1.0662,0.9921,0.9903,0.994,0.9908,0.9712,0.948,0.9171,0.8833,0.8252,0.8362,0.9775,0.9526,0.8948,0.8891,0.7485,0.6302,3.608,3.5583,3.4601,3.4226,3.4277,3.4297,3.4258,3.4318,3.3803,3.3575,3.3472,3.2644,3.2023,3.1533,3.0458,0.0,3.173,3.1405,3.2213,3.3817,3.3653,3.3687,3.3769,3.399,3.3306,3.1684,3.1255,2.99,2.7713,2.6821,2.5999,2.5092,2.4301,2.3717,2.332,2.3539,2.3738,2.3927,2.289,2.2899,2.4048,2.234,2.046,1.8367,1.7042,1.5981,1.5264,1.4028,1.3271,1.3092,1.2759,1.2483,1.2304,0.0,0.0,0.0,0.0,0.0,0.0,0.0,0.0,0.0,0.0,0.0,0.0,0.0,0.0,1.1841,1.2384,0.0,1.3149,1.3344,0.0,0.0,0.0,1.3985,1.401,1.4603,1.5017,1.5025,0.0,0.0,1.5008,1.4975,1.5013,1.5299,1.503,1.4789,1.4773,1.4676,1.4661,1.4059,1.2778,1.1553,1.1311,1.0174,0.9356,0.9254,0.9419,0.9221,0.9225,0.9221,0.925,0.8938,0.7817,0.6767,0.6547,0.5397,0.5386,0.8668,0.8273,0.7339,0.6893,0.5584,0.4524,3.8063,3.7939,3.7674,3.6889,3.5645,3.5625,3.5811,3.6101,3.5666,3.5273,3.49,3.4341,3.3932,3.3512,3.3595,3.3842,3.4161,3.3758,3.4013,3.4715,3.3309,3.2719,3.2767,3.1733,3.1032,3.0544,2.9394,2.8526,2.7937,2.6756,2.6007,2.5721,2.5271,2.4826,2.4535,2.4363,2.3823,2.2871,2.2517,2.1878,2.0825,1.9819,1.849,1.6924,1.6079,1.5105,1.3908,1.3434,1.3141,1.3084,1.2751,1.2491,1.2312,1.1608,0.0,0.0,0.0,0.0,0.0,0.0,0.0,0.0,0.0,1.0883,1.134,0.0,1.2532,0.0,1.2931,1.3384,1.3872,1.4075,0.0,0.0,1.4586,1.4765,1.4911,1.5195,1.5439,1.5569,1.5488,1.4863,1.3561,1.2765,1.1999,1.1287,1.3171,1.3679,1.1149,1.1747,1.2029,1.1045,1.0037,0.959,0.9822,0.8448,0.6691,0.5298,0.4859,0.469,0.5089,0.4792,0.4589,0.4508,0.4495,0.4218,0.3954,0.4073,0.4278,0.4663,0.4631,0.46,0.4456,0.4134,0.3896,3.9096,3.9075,3.9096,3.8497,3.7632,3.7567,3.7777,3.7984,3.7529,3.7112,3.6887,3.5913,3.5128,3.4513,3.4489,3.4659,3.5047,3.47,3.4927,3.5453,3.3736,3.3016,3.3015,3.1494,3.0459,2.9748,2.8852,2.8115,2.755,2.665,2.6239,2.6156,2.5941,2.53,2.4303,2.3954,2.342,2.273,2.1552,1.9784,1.7377,1.7296,1.6658,1.5214,1.4749,1.4182,1.3437,1.3271,1.3214,1.3214,1.2954,1.2759,1.2653,1.187,1.1294,0.0,0.0,0.0,0.0,0.0,0.0,0.0,0.0,0.0,0.0,0.0,1.3222,1.3279,1.362,1.4034,1.4489,1.4757,1.4907,1.4859,1.5336,1.5441,1.5142,1.5451,1.5391,1.4467,1.5049,1.4408,1.1629,1.156,1.0733,0.8313,1.0202,1.1315,0.9716,1.0047,1.0204,0.9312,0.8031,0.701,0.6858,0.5689,0.4489,0.3519,0.3072,0.2989,0.3277,0.3085,0.2894,0.2897,0.3164,0.3253,0.2989,0.3364,0.3559,0.3189,0.3168,0.3259,0.3314,0.3354,0.3479,3.9723,3.9702,3.9702,3.9654,3.9564,3.9564,3.9502,3.9447,3.8986,3.8801,3.865,3.7212,3.6058,3.5263,3.4612,3.471,3.5356,3.5034,3.5179,3.5664,3.4269,3.3487,3.3209,3.1718,3.0299,2.901,2.8727,2.8059,2.7013,2.6721,2.6489,2.6412,2.6135,2.5125,2.35,2.2632,2.225,2.2256,1.9863,1.7211,1.435,1.5185,1.4972,1.3706,1.349,1.3384,1.3344,1.3336,1.3327,1.3303,1.3165,1.3092,1.3084,1.2231,1.169,0.0,1.0558,0.0,0.0,0.0,0.0,0.0,0.0,0.0,0.0,1.3322,1.3761,1.4139,1.425,1.449,1.4911,1.5248,1.5369,1.5136,1.5739,1.5753,1.4773,1.5194,1.475,1.2487,1.3839,1.3293,0.9633,1.0357,0.9735,0.6264,0.679,0.784,0.8296,0.8485,0.8428,0.7914,0.6361,0.4783,0.3524,0.3027,0.2965,0.2902,0.2906,0.2912,0.2915,0.2911,0.2902,0.2887,0.2896,0.2901,0.2882,0.2901,0.2909,0.2897,0.2982,0.3,0.2964,0.3094,0.3035,4.0613,4.0613,4.0613,4.0492,4.0136,4.0136,3.9727,3.9122,3.9019,3.8792,3.8425,3.8113,3.7774,3.7231,3.6757,3.6493,3.6358,3.5937,3.5352,3.4467,3.3038,3.1684,3.046,2.8966,2.8101,2.7806,2.7747,2.76,2.7219,2.6992,2.6769,2.6603,2.4525,2.3576,2.3542,0.0,0.0,0.0,1.6461,1.5038,1.4367,1.4322,1.4065,1.3652,1.3612,0.0,1.3165,1.3149,1.3084,1.2954,1.3035,0.0,0.0,0.0,0.0,0.0,0.0,0.0,0.0,0.0,0.0,0.0,1.3473,1.3268,1.3586,1.3721,1.3834,1.3913,1.4109,1.4328,1.4741,1.4953,1.5059,1.5148,1.53,1.4785,1.3249,1.3133,1.2505,1.075,1.052,0.9642,0.7417,0.6978,0.6088,0.4037,0.3769,0.4037,0.4216,0.5501,0.5712,0.4189,0.3626,0.32,0.2821,0.2833,0.2849,0.2874,0.2882,0.2891,0.2908,0.2896,0.2891,0.2901,0.2893,0.2889,0.2904,0.2913,0.2919,0.2941,0.3034,0.2935,0.2906,0.2923,0.2949,4.1142,4.0997,4.1142,4.0925,0.0,4.034,3.9851,3.907,3.9283,3.9091,3.8748,3.8537,3.8206,3.7777,3.742,3.7182,3.6973,3.6758,3.5902,3.4518,3.2996,3.1493,2.9897,2.8432,2.7715,2.7715,2.7476,2.7413,2.7316,2.6791,2.6032,2.4948,2.3516,2.2109,2.0569,1.7664,1.6307,1.6326,1.5127,1.4521,1.4424,1.4083,1.3815,1.3582,1.3555,0.0,0.0,0.0,0.0,0.0,0.0,0.0,0.0,1.33,0.0,1.3271,1.3077,1.3172,1.3486,1.3574,1.3794,1.4337,1.4044,1.3868,1.3912,1.39,1.3981,1.4303,1.4341,1.4549,1.5034,1.5075,1.475,1.3854,1.3874,1.311,1.1148,1.0802,1.0117,0.8389,0.849,0.7955,0.5015,0.5375,0.493,0.3233,0.2874,0.2874,0.2959,0.3629,0.3834,0.2919,0.2742,0.2748,0.2778,0.2812,0.2831,0.2849,0.2864,0.2879,0.2893,0.2883,0.2883,0.2908,0.2893,0.2883,0.2908,0.2905,0.2901,0.2913,0.2917,0.2911,0.2881,0.2908,0.2942,4.1471,4.1033,4.1471,4.1159,4.0405,4.0335,3.9903,3.9321,3.9433,0.0,0.0,3.8692,3.828,3.7873,3.73,3.6958,3.6958,3.6598,3.5582,3.4125,3.287,3.1416,2.9872,2.8491,2.7903,2.7871,2.751,2.7207,2.7098,2.626,2.4878,2.3265,2.2328,2.0254,1.7195,1.5718,1.5017,1.5,1.4814,1.4635,1.4481,1.4164,1.3912,1.3671,1.3595,1.3498,1.3465,1.3465,1.3547,1.3725,1.3695,1.3792,1.389,1.3737,1.3621,1.3613,1.346,1.3612,1.4191,1.4059,1.4132,1.4505,1.4316,1.4098,1.3973,1.3966,1.4055,1.448,1.4561,1.4766,1.5154,1.5249,1.4345,1.2219,1.2355,1.1476,0.8591,0.8421,0.7792,0.5915,0.6535,0.6448,0.35,0.4216,0.4662,0.3323,0.2874,0.2867,0.2855,0.2903,0.2943,0.2731,0.2727,0.2731,0.2659,0.2776,0.2814,0.2829,0.2845,0.286,0.2871,0.287,0.2879,0.2911,0.2896,0.2894,0.2909,0.29,0.2881,0.2875,0.2874,0.2874,0.2878,0.2912,0.2943,4.1723,4.1056,4.1407,4.111,4.044,4.036,4.0136,3.9723,3.9053,3.8753,3.8694,3.8641,3.853,3.8359,3.6598,3.5758,3.5667,3.3961,3.2515,3.1345,3.1044,3.0155,2.865,2.8157,2.7868,2.7793,2.7459,2.7092,2.6534,2.4931,2.3703,2.2769,1.999,1.7514,1.5881,1.5355,1.5204,1.5195,1.4879,1.4692,1.4667,1.4464,1.4278,1.4115,1.4075,1.3985,1.3839,1.3831,1.3912,1.4099,1.4237,1.4178,1.3979,1.4259,1.4291,1.3941,1.4117,1.4376,1.4421,1.449,1.443,1.4213,1.4153,1.407,1.4056,1.4049,1.3969,1.3839,1.4067,1.4167,1.4256,1.4469,1.3674,1.1738,1.1618,1.0297,0.6646,0.6224,0.5604,0.3683,0.35,0.3769,0.3143,0.3233,0.3411,0.2964,0.2874,0.2857,0.2815,0.2789,0.2781,0.2766,0.2728,0.2714,0.2733,0.2743,0.2776,0.2822,0.2811,0.2822,0.2864,0.2856,0.286,0.2906,0.2908,0.2909,0.2915,0.2913,0.2897,0.2879,0.2874,0.2874,0.2784,0.2614,0.2715,4.1949,4.1444,4.1595,4.1198,4.0423,4.0207,4.0033,3.9824,3.9199,3.8926,3.8887,3.8672,3.8574,3.8409,3.6717,3.587,3.5797,3.3992,3.2367,3.1093,3.1033,3.0115,2.8448,2.8149,2.8009,2.7657,2.7297,2.7001,2.6629,2.4608,2.2979,2.1794,1.8288,1.6134,1.5584,1.5431,1.539,1.5382,1.5033,1.4806,1.4708,1.4627,1.4497,1.4318,1.4318,1.4326,1.4343,1.4335,1.4464,1.4741,1.4594,1.4491,1.4431,1.4428,1.4313,1.4251,1.4393,1.4519,1.4601,1.4509,1.4271,1.386,1.3937,1.3978,1.3894,1.3818,1.3755,1.3736,1.3946,1.3699,1.2857,1.2806,1.1702,0.8639,0.8438,0.7333,0.4808,0.4173,0.3899,0.3059,0.2874,0.2874,0.2874,0.2874,0.2874,0.2874,0.2874,0.2856,0.2814,0.2793,0.277,0.274,0.2724,0.2724,0.2736,0.2754,0.2774,0.2801,0.2807,0.2818,0.2848,0.2846,0.2871,0.2904,0.2905,0.2901,0.2911,0.2902,0.2889,0.2881,0.2874,0.2604,0.1705,0.0538,0.018,4.2115,4.1602,4.1659,4.1277,4.0644,4.0332,4.0137,4.0,3.9551,3.9297,3.916,3.8769,3.8428,3.7897,3.6386,3.5402,3.4879,3.3373,3.1852,3.0732,3.0655,2.9726,2.8261,2.8061,2.7812,2.7462,2.7107,2.6686,2.6003,2.3975,2.1806,1.9732,1.6977,1.5593,1.5634,1.5593,1.5569,1.5553,1.5252,1.5025,1.4895,1.4887,1.4822,1.4692,1.4676,1.4741,1.4879,1.4887,1.4956,1.5176,1.4885,1.4725,1.4647,1.434,1.3996,1.3697,1.3629,1.3528,1.3251,1.3909,1.3837,1.3076,1.3521,1.3581,1.3231,1.3088,1.3344,1.3713,1.36,1.2896,1.1832,1.1092,0.9494,0.6253,0.5823,0.525,0.3279,0.2912,0.2905,0.2881,0.2874,0.2874,0.2874,0.2874,0.2874,0.2874,0.2874,0.2861,0.2833,0.2807,0.2772,0.2735,0.2728,0.2731,0.2732,0.2751,0.2772,0.2781,0.2793,0.2812,0.2831,0.2857,0.2878,0.2902,0.2901,0.2897,0.2909,0.2447,0.2163,0.1977,0.1615,0.0897,-0.0359,-0.215,-0.2692,4.2253,4.1346,4.1616,4.1559,4.1094,4.1035,4.0801,4.041,4.0,3.959,3.918,3.8769,3.7751,3.6312,3.4729,3.3222,3.1852,3.0114,2.9119,2.8744,2.8588,2.8275,2.7684,2.7445,2.7226,2.7042,2.6694,2.5557,2.395,2.2077,1.9593,1.6653,1.5917,1.5829,1.5951,1.5829,1.5748,1.5748,1.5561,1.5463,1.5439,1.5439,1.5431,1.5423,1.5407,1.5423,1.5415,1.5447,1.5289,1.515,1.5085,1.4756,1.4242,1.4099,1.3191,1.1286,1.1037,1.0419,0.9173,1.193,1.3041,1.1572,1.2717,1.2908,1.1435,1.1345,1.219,1.3184,1.2495,1.1554,1.1416,1.0058,0.816,0.5939,0.5739,0.5189,0.3354,0.2901,0.2905,0.2878,0.2874,0.2874,0.2874,0.2874,0.2874,0.2874,0.2874,0.2863,0.2836,0.2825,0.2808,0.2776,0.2757,0.2732,0.2718,0.2724,0.2759,0.278,0.2763,0.2789,0.2834,0.276,0.276,0.2352,0.2455,0.227,0.209,0.1637,0.0272,0.0,-0.0897,-0.233,-0.2777,-0.412,-0.4581,4.2005,4.154,4.1483,4.1327,4.1152,4.0898,4.0684,4.0469,3.9785,3.9375,3.9012,3.7775,3.6775,3.6015,3.3449,3.1928,3.1178,2.9431,2.8431,2.8289,2.804,2.7647,2.724,2.7144,2.6908,2.6531,2.5464,2.4452,2.3317,2.0911,1.8341,1.618,1.5934,1.5975,1.5958,1.5975,1.5934,1.5934,1.5869,1.5829,1.5804,1.5626,1.5512,1.5512,1.5512,1.5569,1.5658,1.5433,1.527,1.5264,1.4788,1.3913,1.2548,1.2222,1.122,0.9309,0.9109,0.8813,0.8174,0.9692,1.0309,0.9522,1.0194,1.0322,0.9707,0.9656,1.0014,1.0492,1.0126,0.9335,0.834,0.7478,0.6315,0.4593,0.4167,0.3879,0.3089,0.2908,0.2905,0.2879,0.2874,0.2874,0.2874,0.2874,0.2874,0.2874,0.2874,0.2861,0.2836,0.2829,0.2815,0.2792,0.2787,0.2788,0.2773,0.2782,0.2709,0.2803,0.28,0.2816,0.2566,0.1696,0.1163,0.1172,0.0451,-0.018,-0.0721,-0.0992,-0.171,-0.2151,-0.3136,-0.4568,-0.4568,-0.6094,-0.6736,4.1774,4.1776,4.1386,4.1172,4.1133,4.0703,4.0449,4.0254,3.9531,3.8918,3.8152,3.6367,3.5178,3.4411,3.2157,3.0947,3.0268,2.8808,2.804,2.7897,2.7653,2.7378,2.6996,2.6983,2.6507,2.5685,2.4492,2.3324,2.2189,1.944,1.7255,1.6122,1.5966,1.5966,1.5966,1.5966,1.5966,1.5966,1.5966,1.5801,1.5342,1.5058,1.4934,1.4927,1.4927,1.4738,1.4193,1.3874,1.3678,1.3535,1.2969,1.1986,1.0586,1.0179,0.9188,0.7535,0.7436,0.7224,0.6712,0.7789,0.8224,0.7787,0.8195,0.8319,0.7963,0.7784,0.7481,0.6976,0.7027,0.647,0.6056,0.5266,0.4383,0.313,0.2949,0.2936,0.2908,0.2905,0.2896,0.2878,0.2874,0.2874,0.2874,0.2874,0.2874,0.2874,0.2874,0.2868,0.2848,0.2841,0.2833,0.2812,0.2474,0.221,0.2646,0.2819,0.2738,0.2032,0.1852,0.1588,0.1418,-0.0089,-0.0807,-0.0988,-0.2241,-0.2689,-0.2334,-0.269,-0.3943,-0.457,-0.5465,-0.6362,-0.6451,-0.7799,-0.8339,4.1797,4.1758,4.1328,4.1152,4.1133,4.0684,4.0273,3.9883,3.9375,3.8133,3.6386,3.4654,3.2826,3.1162,3.0777,2.9866,2.851,2.7869,2.749,2.7217,2.7399,2.7282,2.68,2.68,2.5902,2.4466,2.3663,2.1922,1.8981,1.7108,1.6048,1.6056,1.5982,1.5966,1.5966,1.5974,1.5966,1.5966,1.5883,1.5216,1.3797,1.3535,1.3439,1.3267,1.3439,1.251,1.0782,1.0284,0.9956,0.9124,0.9216,0.8839,0.8327,0.817,0.727,0.5879,0.5684,0.5017,0.3968,0.6396,0.7595,0.635,0.7242,0.7695,0.6001,0.5823,0.5174,0.336,0.3657,0.4038,0.5114,0.416,0.3276,0.3007,0.2917,0.2905,0.2881,0.2881,0.2876,0.2875,0.2874,0.2874,0.2874,0.2874,0.2874,0.2874,0.2874,0.2783,0.2599,0.2689,0.2597,0.2058,0.1252,0.0712,0.2277,0.1761,0.1238,0.0708,-0.0089,-0.0443,-0.1783,-0.2777,-0.2777,-0.2867,-0.3494,-0.3762,-0.3494,-0.4299,-0.5999,-0.6984,-0.7438,-0.8067,-0.771,-0.825,-0.8697,4.1641,4.1387,4.123,4.1016,4.0723,4.0293,3.9863,3.9414,3.8984,3.7811,3.6034,3.4186,3.2369,3.0623,2.9012,2.8182,2.779,2.7412,2.7097,2.698,2.7013,2.6894,2.6507,2.5762,2.5012,2.397,2.1889,1.9615,1.753,1.6518,1.6211,1.6211,1.6211,1.6162,1.6006,1.6154,1.6162,1.5891,1.4968,1.4052,1.3224,1.204,1.074,0.9726,1.067,1.0876,1.0044,0.9524,0.9052,0.88,0.8433,0.7715,0.6458,0.5348,0.4409,0.391,0.3775,0.3534,0.3097,0.4103,0.4662,0.4126,0.4485,0.4841,0.4037,0.3857,0.3575,0.3019,0.2856,0.3313,0.3477,0.323,0.2889,0.2889,0.2889,0.2886,0.2876,0.2874,0.2874,0.2874,0.2874,0.2874,0.2874,0.2874,0.2874,0.2874,0.2874,0.2334,0.1346,0.1076,0.0628,-0.0897,-0.189,-0.2248,-0.2041,-0.151,-0.1603,-0.1693,-0.2139,-0.2496,-0.3401,-0.4568,-0.4747,-0.5283,-0.5552,-0.6076,-0.6252,-0.6415,-0.8025,-0.8153,-0.8697,-0.8786,-0.8607,-0.8875,-0.8964,4.1465,4.1016,4.0976,4.0703,4.0293,3.9844,3.9492,3.9086,3.8236,3.683,3.5085,3.3188,3.13,2.9479,2.7712,2.7086,2.7313,2.7075,2.6876,2.6822,2.6948,2.6867,2.652,2.5169,2.4128,2.3067,1.9968,1.7672,1.6738,1.6454,1.6365,1.6308,1.63,1.6219,1.6014,1.617,1.5905,1.5066,1.388,1.2727,1.1527,0.983,0.8191,0.6761,0.7399,0.788,0.788,0.734,0.7024,0.686,0.656,0.5819,0.4625,0.3507,0.2816,0.2826,0.2837,0.2848,0.2856,0.2868,0.2964,0.2874,0.2964,0.2874,0.2874,0.2874,0.2859,0.2842,0.2855,0.2861,0.2842,0.2856,0.2874,0.2874,0.2874,0.2874,0.2874,0.2874,0.2874,0.2874,0.2874,0.2874,0.2874,0.2874,0.2874,0.2874,0.2424,0.1346,0.0359,-0.0628,-0.1344,-0.3047,-0.3881,-0.4422,-0.4749,-0.4923,-0.4742,-0.4832,-0.4555,-0.474,-0.5368,-0.6356,-0.6984,-0.752,-0.8137,-0.8744,-0.8989,-0.8964,-0.8985,-0.8947,-0.9143,-0.9317,-0.9322,-0.9322,-0.9406,4.1289,4.0605,4.0527,4.0273,3.9863,3.9453,3.9219,3.8712,3.7072,3.516,3.3112,3.1453,2.9556,2.7476,2.7097,2.6944,2.6907,2.6894,2.6787,2.6626,2.6907,2.7146,2.7106,2.4931,2.3173,2.1895,1.8439,1.6771,1.6625,1.6592,1.6503,1.6357,1.6357,1.6284,1.599,1.5865,1.5089,1.3735,1.2816,1.0937,0.7827,0.7088,0.6019,0.4513,0.4086,0.4001,0.3827,0.374,0.3738,0.3304,0.3135,0.2886,0.3092,0.2944,0.2883,0.2894,0.2886,0.2887,0.2902,0.2886,0.2874,0.2874,0.2874,0.2874,0.2874,0.2874,0.2863,0.2845,0.2856,0.2863,0.2844,0.2857,0.2874,0.2874,0.2874,0.2874,0.2874,0.2874,0.2874,0.2871,0.2872,0.2874,0.2874,0.2603,0.2424,0.2244,0.1076,-0.0269,-0.0897,-0.2061,-0.2777,-0.3588,-0.5143,-0.6606,-0.7408,-0.8207,-0.8004,-0.7807,-0.7431,-0.7338,-0.8052,-0.8952,-0.8773,-0.9219,-0.9007,-0.9521,-0.9544,-0.9521,-0.9605,-0.9642,-0.9744,-0.9758,-0.9763,-0.9763,-0.9941,4.0762,4.0488,4.0215,3.9824,3.9434,3.9258,3.8506,3.711,3.609,3.4093,3.159,3.03,2.8778,2.7254,2.6716,2.6626,2.6827,2.7014,2.7068,2.6879,2.6018,2.619,2.6311,2.3112,2.0255,1.8799,1.7575,1.6942,1.6917,1.682,1.673,1.669,1.6588,1.6584,1.6237,1.5217,1.4154,1.3372,1.0835,0.892,0.7688,0.5978,0.4728,0.422,0.3454,0.3113,0.3112,0.3003,0.2903,0.2815,0.2834,0.2851,0.2863,0.2887,0.2897,0.2889,0.2898,0.2896,0.2886,0.2881,0.2874,0.2874,0.2874,0.2874,0.2874,0.2874,0.287,0.286,0.2868,0.2868,0.2864,0.2867,0.2874,0.2874,0.2874,0.2874,0.2874,0.2874,0.2864,0.2849,0.2861,0.2864,0.2586,0.1964,0.0897,0.0718,-0.0807,-0.2242,-0.3583,-0.4299,-0.5644,-0.6994,-0.8215,-0.8619,-0.9131,-0.9676,-0.9689,-0.9536,-0.9313,-0.9126,-0.9937,-1.0387,-1.0387,-1.0367,-1.015,-1.0131,-1.0067,-1.0062,-1.0126,-1.0052,-1.0062,-0.9992,-1.0021,-1.0209,-1.0387,4.0586,4.0273,4.0,3.9531,3.893,3.8355,3.7482,3.6123,3.4446,3.2577,3.0763,2.9178,2.7925,2.701,2.6626,2.6653,2.6841,2.7134,2.7321,2.7333,2.6427,2.6166,2.5956,2.1874,1.8799,1.7351,1.7112,1.7112,1.7104,1.7006,1.683,1.6774,1.6766,1.6317,1.5561,1.4422,1.3252,1.1476,0.9171,0.7552,0.6636,0.4986,0.3975,0.3804,0.3304,0.2962,0.2872,0.2855,0.2845,0.2848,0.2864,0.2874,0.2875,0.289,0.2897,0.2894,0.2894,0.2896,0.2889,0.2882,0.2874,0.2874,0.2874,0.2874,0.2874,0.2874,0.2874,0.2874,0.2874,0.2874,0.2874,0.2874,0.2874,0.2874,0.2874,0.2874,0.2874,0.2874,0.2868,0.2767,0.2237,0.1876,0.1428,0.009,-0.0989,-0.1347,-0.2787,-0.4312,-0.5741,-0.6541,-0.7985,-0.9101,-0.9554,-0.9916,-1.0575,-1.0966,-1.1299,-1.1114,-1.0832,-1.0649,-1.0921,-1.0921,-1.0832,-1.089,-1.0765,-1.0709,-1.0719,-1.059,-1.0559,-1.0419,-1.0391,-1.0613,-1.0832,-1.0832,-1.101,4.0644,3.9922,3.9863,3.9355,3.8506,3.7015,3.6328,3.5718,3.2567,3.0856,3.0117,2.8245,2.7051,2.6854,2.6734,2.6747,2.6867,2.7068,2.7171,2.7205,2.6926,2.6082,2.3534,2.1024,1.8898,1.7367,1.7112,1.7112,1.7112,1.7088,1.7031,1.6814,1.6798,1.5838,1.4342,1.368,1.1779,0.9103,0.7893,0.6599,0.5048,0.4134,0.3627,0.3541,0.3127,0.2874,0.2874,0.2871,0.2871,0.2874,0.2872,0.2874,0.2874,0.2875,0.2893,0.2911,0.2891,0.2901,0.2908,0.2896,0.2883,0.2887,0.2883,0.2878,0.2886,0.2886,0.2882,0.2881,0.2876,0.2874,0.2874,0.2874,0.2874,0.2874,0.2874,0.2874,0.2874,0.2874,0.2779,0.2328,0.1165,-0.009,-0.0179,-0.1982,-0.2979,-0.3599,-0.4961,-0.641,-0.7018,-0.809,-0.928,-0.9969,-1.0216,-1.0444,-1.0809,-1.1172,-1.1485,-1.1468,-1.1382,-1.1398,-1.1376,-1.1277,-1.1277,-1.1245,-1.129,-1.1231,-1.1198,-1.1002,-1.1007,-1.0978,-1.1124,-1.1433,-1.1455,-1.1366,-1.1366,4.0391,3.9863,3.9531,3.9062,3.8394,3.6849,3.5467,3.4171,3.1729,2.9824,2.8645,2.7444,2.6827,2.68,2.6613,2.6613,2.6814,2.6827,2.6268,2.5595,2.5455,2.2894,2.0094,1.9692,1.8925,1.7271,1.7104,1.7112,1.7112,1.7112,1.708,1.7047,1.6935,1.6038,1.4318,1.2637,1.077,0.8503,0.6848,0.5887,0.502,0.4353,0.3932,0.3575,0.3137,0.2874,0.2874,0.2874,0.2874,0.2874,0.2874,0.2874,0.2876,0.2893,0.2906,0.2911,0.293,0.2939,0.2939,0.2921,0.2916,0.2934,0.2916,0.2915,0.2936,0.2917,0.2906,0.2901,0.2889,0.2874,0.2874,0.2874,0.2874,0.2874,0.2874,0.2874,0.2874,0.2874,0.2418,0.0978,0.0268,-0.0982,-0.2588,-0.4318,-0.5708,-0.6305,-0.7498,-0.8816,-0.8955,-0.9092,-1.0003,-1.0211,-1.0425,-1.0555,-1.0814,-1.1267,-1.1464,-1.1536,-1.1504,-1.1547,-1.1504,-1.146,-1.146,-1.1444,-1.14,-1.134,-1.134,-1.1247,-1.1362,-1.1351,-1.1362,-1.1478,-1.1527,-1.1455,-1.1455,4.0547,4.0117,3.9668,3.9238,3.8534,3.5996,3.4394,3.3155,3.0508,2.891,2.803,2.7163,2.6961,2.7134,2.6774,2.6667,2.6733,2.5996,2.5338,2.453,2.3252,2.0942,1.8687,1.8772,1.8113,1.7189,1.7071,1.7112,1.7112,1.7112,1.7112,1.7104,1.7112,1.569,1.3009,1.1979,0.9999,0.7629,0.6216,0.5413,0.4865,0.4553,0.4021,0.3575,0.3133,0.2874,0.2874,0.2874,0.2874,0.2876,0.2883,0.2886,0.2878,0.2901,0.2911,0.2902,0.2926,0.2941,0.2942,0.2935,0.2943,0.2954,0.2943,0.2946,0.295,0.2934,0.2916,0.2913,0.289,0.2876,0.2874,0.2874,0.2874,0.2874,0.2874,0.2874,0.2874,0.2065,0.1163,-0.0178,-0.1789,-0.3237,-0.5003,-0.6906,-0.8031,-0.8651,-0.9213,-0.9948,-1.0278,-1.0405,-1.0466,-1.069,-1.0811,-1.1066,-1.1141,-1.148,-1.1496,-1.1569,-1.1542,-1.1585,-1.152,-1.1471,-1.1476,-1.1465,-1.1417,-1.1378,-1.1368,-1.1351,-1.1324,-1.1313,-1.1412,-1.1456,-1.1516,-1.1543,-1.1543,4.0918,4.0488,4.0059,3.9554,3.8231,3.4795,3.3195,3.2446,2.9348,2.7961,2.8043,2.7297,2.7148,2.7602,2.6921,2.6587,2.6279,2.4938,2.4054,2.2849,2.1112,1.9084,1.8527,1.7664,1.7235,1.683,1.7015,1.708,1.7104,1.7112,1.7112,1.7112,1.7112,1.5242,1.2845,1.1682,0.9473,0.6978,0.5906,0.5266,0.4799,0.4378,0.3934,0.3385,0.3131,0.2878,0.2879,0.2878,0.2876,0.2879,0.29,0.2896,0.2882,0.2905,0.2909,0.2902,0.2923,0.2939,0.2939,0.2966,0.2976,0.2984,0.298,0.2973,0.2977,0.2958,0.2932,0.2927,0.2896,0.2882,0.2874,0.2874,0.2874,0.2784,0.2784,0.2515,0.2244,0.0987,-0.0358,-0.1344,-0.4602,-0.6444,-0.7947,-0.914,-1.0542,-1.0009,-1.0586,-1.0789,-1.1023,-1.1063,-1.1123,-1.1395,-1.1512,-1.1625,-1.1608,-1.1694,-1.1587,-1.1634,-1.1607,-1.1601,-1.152,-1.1482,-1.1498,-1.1487,-1.1438,-1.1389,-1.1357,-1.133,-1.1313,-1.1335,-1.1467,-1.1505,-1.1543,-1.1543,-1.1543,4.0918,4.0488,4.0078,3.8708,3.6639,3.4191,3.2329,3.0843,2.8768,2.7989,2.8066,2.7511,2.7268,2.7362,2.668,2.5751,2.4696,2.3824,2.2658,1.9874,1.8434,1.7357,1.7095,1.6849,1.6877,1.6774,1.6798,1.6982,1.7071,1.7112,1.7112,1.7112,1.6753,1.5954,1.3647,1.1693,1.0362,0.8056,0.6183,0.5017,0.4472,0.4029,0.3585,0.313,0.2959,0.2885,0.2898,0.2886,0.2886,0.2897,0.2894,0.2893,0.2904,0.2912,0.2923,0.2942,0.2966,0.2994,0.3017,0.3025,0.3043,0.3055,0.304,0.3043,0.3062,0.3011,0.2976,0.2954,0.2924,0.2897,0.2878,0.2874,0.2874,0.2694,0.1615,0.0538,0.009,-0.0358,-0.1969,-0.4487,-0.6233,-0.791,-0.9744,-1.0378,-1.1181,-1.1391,-1.1499,-1.1644,-1.1602,-1.1538,-1.1571,-1.1716,-1.1726,-1.1716,-1.1623,-1.1634,-1.1667,-1.1656,-1.1645,-1.1596,-1.1514,-1.1471,-1.1487,-1.1476,-1.1543,-1.15,-1.1378,-1.1395,-1.1489,-1.1505,-1.1516,-1.1533,-1.1543,-1.1543,-1.1899,4.1035,4.0704,3.9491,3.8077,3.6326,3.3492,3.1433,3.01,2.8548,2.789,2.7913,2.7575,2.7549,2.7519,2.6138,2.4876,2.3923,2.2304,2.0289,1.8282,1.719,1.682,1.6641,1.6636,1.6741,1.6763,1.6733,1.6942,1.7071,1.7024,1.7112,1.6928,1.6305,1.4618,1.2933,1.1072,0.9121,0.7252,0.5825,0.4753,0.4307,0.3857,0.3411,0.2964,0.2875,0.2887,0.2911,0.2889,0.29,0.2919,0.2911,0.29,0.2916,0.293,0.2946,0.2962,0.299,0.302,0.3044,0.3066,0.3078,0.3097,0.3081,0.3076,0.3069,0.3032,0.2996,0.2964,0.2934,0.2905,0.2878,0.2874,0.2874,0.2515,0.0897,-0.0717,-0.1881,-0.2775,-0.4216,-0.6761,-0.828,-0.9598,-1.0871,-1.1382,-1.161,-1.1758,-1.1742,-1.1873,-1.184,-1.177,-1.1673,-1.1726,-1.1737,-1.1688,-1.1558,-1.1552,-1.1639,-1.1639,-1.1639,-1.1574,-1.1493,-1.1471,-1.1549,-1.1543,-1.1543,-1.1543,-1.1522,-1.1543,-1.1543,-1.1538,-1.1533,-1.1543,-1.181,-1.2426,-1.2863,4.1016,4.0646,3.8613,3.7319,3.5913,3.2475,3.053,2.9682,2.8386,2.7805,2.7749,2.7736,2.7596,2.7148,2.533,2.435,2.2876,2.0645,1.8116,1.7148,1.7069,1.6958,1.6844,1.6733,1.6709,1.6649,1.6779,1.6942,1.6984,1.6761,1.6313,1.6217,1.4706,1.3198,1.1427,0.9562,0.8141,0.6809,0.5467,0.4664,0.4218,0.3769,0.3231,0.2964,0.2875,0.2893,0.2913,0.2905,0.2908,0.2961,0.2939,0.2928,0.2936,0.295,0.2968,0.2971,0.3006,0.3039,0.3066,0.3092,0.3115,0.3111,0.3106,0.3095,0.3071,0.3041,0.3006,0.2972,0.2941,0.2904,0.2879,0.2784,0.2517,0.1798,0.009,-0.1971,-0.4035,-0.592,-0.748,-0.8434,-0.9694,-1.0947,-1.151,-1.1916,-1.2031,-1.2047,-1.2025,-1.2009,-1.1976,-1.1922,-1.183,-1.1759,-1.177,-1.1775,-1.1656,-1.1755,-1.1748,-1.1978,-1.1894,-1.181,-1.1738,-1.1465,-1.1543,-1.1543,-1.1543,-1.1543,-1.1543,-1.1543,-1.1543,-1.1543,-1.1632,-1.1721,-1.2426,-1.3299,-1.3918,4.0353,3.8924,3.7891,3.557,3.2648,3.0972,2.9578,2.8249,2.7931,2.7843,2.8003,2.7816,2.6903,2.5728,2.4982,2.2992,2.0403,1.8264,1.7268,1.6917,1.7047,1.7047,1.6942,1.6806,1.6844,1.6733,1.6687,1.6697,1.6633,1.5682,1.5154,1.4441,1.2845,1.1516,1.0895,0.9562,0.8141,0.7163,0.5557,0.4487,0.4218,0.3502,0.3053,0.2875,0.2876,0.2904,0.2935,0.2928,0.2936,0.2988,0.2969,0.2971,0.2981,0.2994,0.2999,0.3009,0.3043,0.3071,0.3093,0.3137,0.3165,0.3168,0.3149,0.3134,0.3112,0.3076,0.3032,0.2898,0.2947,0.2905,0.2878,0.2338,0.1352,-0.009,-0.2254,-0.4493,-0.6777,-0.8611,-0.9807,-1.0226,-1.113,-1.1667,-1.1857,-1.2036,-1.2074,-1.2091,-1.2091,-1.2091,-1.2091,-1.2009,-1.1906,-1.1851,-1.1808,-1.1808,-1.1781,-1.1939,-1.2134,-1.2562,-1.2562,-1.2574,-1.2343,-1.1727,-1.1543,-1.2514,-1.216,-1.1543,-1.1543,-1.1543,-1.181,-1.2071,-1.2071,-1.2071,-1.3565,-1.497,-1.5579,3.9374,3.8371,3.6012,3.3775,3.1808,3.0132,2.8924,2.8077,2.7936,2.8087,2.8154,2.7989,2.6903,2.5288,2.3825,2.1442,1.8547,1.7421,1.7031,1.7128,1.721,1.7226,1.7104,1.7039,1.699,1.6633,1.611,1.6133,1.6833,1.5242,1.4177,1.364,1.1516,1.0007,0.9562,0.7967,0.7252,0.663,0.538,0.4307,0.4218,0.3323,0.2964,0.2876,0.289,0.2919,0.2947,0.295,0.2961,0.2994,0.2992,0.2995,0.3006,0.3021,0.3029,0.3036,0.3061,0.3093,0.3115,0.3153,0.3167,0.3185,0.3174,0.3149,0.3123,0.3088,0.2769,0.263,0.2862,0.2821,0.2537,0.1356,0.0181,-0.1173,-0.3981,-0.6537,-0.8186,-1.0139,-1.0917,-1.142,-1.1689,-1.1851,-1.1971,-1.2047,-1.2107,-1.2134,-1.2145,-1.2156,-1.2172,-1.2328,-1.2292,-1.2638,-1.2932,-1.3672,-1.3653,-1.3669,-1.354,-1.3694,-1.3764,-1.3774,-1.3918,-1.3742,-1.4177,-1.4875,-1.3918,-1.2337,-1.1632,-1.1721,-1.216,-1.2774,-1.3123,-1.383,-1.5315,-1.6545,-1.7326,3.8408,3.7755,3.4115,3.2165,3.1354,2.9551,2.846,2.8221,2.8221,2.8207,2.8136,2.7701,2.6491,2.4547,2.2204,1.9637,1.6925,1.7088,1.7234,1.7331,1.7413,1.7429,1.7339,1.7162,1.6873,1.5923,1.522,1.5066,1.5506,1.3823,1.311,1.1871,0.9473,0.8056,0.761,0.672,0.5828,0.5293,0.4756,0.4307,0.3859,0.3323,0.2874,0.2876,0.2902,0.293,0.2957,0.2969,0.2986,0.3009,0.3017,0.3017,0.302,0.3039,0.3149,0.3156,0.3066,0.3101,0.3135,0.3163,0.3183,0.32,0.3191,0.3161,0.2641,0.2231,0.1726,0.1599,0.102,0.0824,0.0,-0.0912,-0.2005,-0.3283,-0.5961,-0.8565,-0.9403,-1.063,-1.1504,-1.184,-1.1998,-1.2036,-1.2058,-1.208,-1.214,-1.2145,-1.2156,-1.2161,-1.2339,-1.2929,-1.315,-1.3732,-1.4383,-1.5665,-1.5988,-1.6158,-1.5897,-1.5868,-1.5794,-1.5682,-1.6107,-1.6458,-1.6721,-1.6545,-1.5315,-1.383,-1.2863,-1.2686,-1.383,-1.4706,-1.4794,-1.5667,-1.7247,-1.8471,-1.9342,3.7675,3.6075,3.3315,3.1286,2.9802,2.8726,2.8221,2.8221,2.8234,2.8234,2.8052,2.6406,2.4861,2.2525,1.942,1.7676,1.7208,1.7242,1.7356,1.7429,1.7526,1.7518,1.7421,1.738,1.6164,1.5013,1.4278,1.4441,1.3729,1.1072,0.9655,0.9121,0.7788,0.6097,0.6273,0.5828,0.547,0.5022,0.4576,0.3949,0.3233,0.2964,0.2874,0.2882,0.2904,0.2932,0.2962,0.2986,0.3014,0.3039,0.3046,0.3141,0.3142,0.3143,0.3069,0.3092,0.3118,0.3146,0.3175,0.3193,0.2807,0.281,0.2802,0.2887,0.1579,0.0097,-0.0862,-0.1127,-0.2334,-0.3063,-0.3045,-0.424,-0.566,-0.6703,-0.8106,-1.0021,-1.1076,-1.1061,-1.1943,-1.202,-1.2069,-1.2107,-1.214,-1.2156,-1.2167,-1.2161,-1.2256,-1.2356,-1.2776,-1.3727,-1.5048,-1.5897,-1.6336,-1.742,-1.844,-1.8576,-1.8453,-1.8177,-1.8075,-1.7947,-1.8296,-1.8558,-1.7772,-1.7334,-1.6458,-1.6481,-1.6593,-1.6673,-1.6649,-1.6633,-1.6809,-1.7859,-1.9264,-2.0308,-2.1358,3.6717,3.5672,3.218,3.022,2.9398,2.8558,2.8234,2.8234,2.8234,2.8234,2.7799,2.6236,2.3824,2.0905,1.8147,1.7104,1.7153,1.7307,1.7445,1.751,1.7591,1.7509,1.719,1.6333,1.5054,1.3896,1.2194,1.059,1.0119,0.9651,0.8587,0.8141,0.6451,0.538,0.5291,0.5025,0.4845,0.4487,0.4128,0.359,0.3053,0.2874,0.2875,0.2876,0.2917,0.2945,0.2968,0.301,0.3035,0.3148,0.3148,0.3148,0.3148,0.3149,0.3066,0.3096,0.3126,0.3155,0.3183,0.31,0.2309,0.1208,0.0803,0.0,-0.1388,-0.254,-0.3564,-0.3817,-0.4261,-0.4888,-0.5522,-0.6489,-0.7434,-0.8586,-0.9861,-1.0814,-1.1805,-1.2015,-1.2205,-1.2167,-1.2223,-1.2528,-1.2733,-1.2916,-1.2916,-1.2822,-1.3375,-1.4209,-1.4686,-1.554,-1.7045,-1.872,-1.8947,-1.9217,-2.0345,-2.1036,-2.0918,-2.0773,-2.0773,-2.0665,-2.0665,-2.0482,-1.9873,-1.996,-2.0144,-2.0269,-2.0424,-1.9172,-1.7989,-1.8313,-1.8907,-2.0085,-2.1256,-2.2157,-2.3031,3.5268,3.4782,3.1105,2.9398,2.923,2.8473,2.8234,2.8234,2.8234,2.7968,2.6927,2.4947,2.2105,1.9613,1.7797,1.7112,1.7128,1.7307,1.7445,1.7551,1.7533,1.7179,1.6416,1.5209,1.399,1.2894,1.0247,0.8453,0.762,0.7249,0.7252,0.7427,0.5646,0.4933,0.4753,0.4576,0.4307,0.4126,0.368,0.3237,0.2973,0.2878,0.2886,0.2905,0.2935,0.2965,0.298,0.3115,0.3145,0.3148,0.3148,0.3148,0.3148,0.3159,0.26,0.2332,0.1962,0.1485,0.1395,0.1101,0.0601,-0.0803,-0.201,-0.2801,-0.4249,-0.5266,-0.5992,-0.6452,-0.7211,-0.7252,-0.7423,-0.8933,-0.9519,-1.0404,-1.121,-1.1862,-1.2409,-1.269,-1.264,-1.2467,-1.271,-1.3281,-1.3575,-1.3852,-1.3758,-1.3481,-1.4309,-1.5781,-1.6742,-1.7663,-1.8844,-2.0486,-2.0754,-2.0898,-2.1547,-2.2447,-2.2708,-2.2945,-2.2945,-2.2859,-2.2503,-2.2503,-2.232,-2.2772,-2.2967,-2.2827,-2.2263,-2.0579,-1.9268,-2.0598,-2.1818,-2.2326,-2.3173,-2.3907,-2.4459,3.3331,3.2741,3.0455,2.923,2.8824,2.8389,2.8234,2.8136,2.8136,2.7012,2.4947,2.2115,1.9613,1.7805,1.7367,1.7112,1.712,1.7307,1.7396,1.7478,1.737,1.6431,1.5321,1.4068,1.2434,0.9851,0.8125,0.6832,0.5646,0.5288,0.4933,0.4487,0.4497,0.4401,0.4316,0.4146,0.3968,0.3697,0.3247,0.3076,0.29,0.2897,0.29,0.2938,0.2957,0.2973,0.3002,0.3033,0.3148,0.3148,0.3148,0.2674,0.2584,0.2595,0.184,0.0488,0.0099,-0.0894,-0.2098,-0.1605,-0.2111,-0.372,-0.5222,-0.5799,-0.662,-0.8215,-0.8939,-0.912,-0.9814,-1.0902,-1.1391,-1.2126,-1.166,-1.1952,-1.2336,-1.2978,-1.3403,-1.3519,-1.3459,-1.2868,-1.3387,-1.4597,-1.5528,-1.609,-1.5716,-1.5435,-1.6714,-1.8179,-1.9205,-2.0067,-2.0821,-2.1787,-2.2186,-2.2427,-2.2427,-2.2945,-2.329,-2.3462,-2.3462,-2.3634,-2.372,-2.3903,-2.3799,-2.3776,-2.3724,-2.3994,-2.4189,-2.3249,-2.2923,-2.3996,-2.4604,-2.4213,-2.4198,-2.4696,-2.5259,3.2361,3.0705,2.9816,2.923,2.874,2.8403,2.8234,2.7968,2.6927,2.4691,2.2029,2.0482,1.8837,1.7543,1.7112,1.7112,1.712,1.7177,1.725,1.6915,1.6348,1.5362,1.4088,1.2176,1.0116,0.841,0.7034,0.5763,0.4666,0.4132,0.3699,0.3616,0.3805,0.3805,0.3809,0.3639,0.3467,0.3286,0.3107,0.2934,0.2932,0.2916,0.2911,0.2928,0.2957,0.2965,0.2984,0.3028,0.3141,0.2957,0.286,0.2104,0.1249,0.1062,-0.0097,-0.1862,-0.2373,-0.3879,-0.5495,-0.4614,-0.4224,-0.7038,-0.8847,-0.9919,-0.9427,-1.0942,-1.1392,-1.1726,-1.2009,-1.2525,-1.2547,-1.2558,-1.2649,-1.3023,-1.3574,-1.4305,-1.4686,-1.4956,-1.5187,-1.512,-1.5816,-1.683,-1.7763,-1.8693,-1.8042,-1.7577,-1.9031,-2.0336,-2.1238,-2.1888,-2.2293,-2.2587,-2.2891,-2.3117,-2.3204,-2.3462,-2.3806,-2.3978,-2.4075,-2.4613,-2.4906,-2.4356,-2.4315,-2.4356,-2.4753,-2.5145,-2.5526,-2.5908,-2.5919,-2.5604,-2.5313,-2.5091,-2.5231,-2.5841,-2.6461,3.1301,2.9565,2.9314,2.9062,2.8655,2.8305,2.7883,2.7194,2.6066,2.3309,1.9873,1.9361,1.841,1.7367,1.7112,1.7112,1.6849,1.652,1.641,1.5667,1.4689,1.3559,1.209,1.0456,0.8486,0.7332,0.5886,0.4352,0.4061,0.3607,0.3257,0.3186,0.3209,0.3398,0.339,0.3123,0.2949,0.2947,0.2938,0.2943,0.2939,0.2917,0.2919,0.2741,0.239,0.1936,0.1578,0.1221,0.0852,0.076,0.0572,0.0,-0.0772,-0.1651,-0.2734,-0.4031,-0.5347,-0.6569,-0.7884,-0.831,-0.7644,-0.9957,-1.1368,-1.2363,-1.2825,-1.2781,-1.2452,-1.2497,-1.2716,-1.2919,-1.3222,-1.3953,-1.4806,-1.5454,-1.6257,-1.6889,-1.686,-1.7076,-1.7356,-1.7546,-1.8354,-1.9065,-1.99,-2.0917,-2.1379,-2.0825,-2.1296,-2.215,-2.237,-2.2856,-2.305,-2.3261,-2.3301,-2.3462,-2.3634,-2.4064,-2.4492,-2.4785,-2.5066,-2.5909,-2.6069,-2.5784,-2.6327,-2.7418,-2.7504,-2.6906,-2.7298,-2.8318,-2.7491,-2.6179,-2.6574,-2.7413,-2.8178,-2.8798,-2.8698,2.9998,2.9495,2.8992,2.8571,2.8234,2.8221,2.7194,2.5726,2.5032,2.2977,1.9622,1.806,1.7367,1.7112,1.7112,1.6936,1.6313,1.5249,1.4462,1.3944,1.2191,1.062,0.9421,0.8076,0.6866,0.534,0.4397,0.3823,0.3633,0.3262,0.2997,0.2936,0.3061,0.3082,0.3053,0.2934,0.2921,0.2917,0.2905,0.292,0.2928,0.2731,0.2464,0.2204,0.0916,0.0183,-0.0277,-0.112,-0.1599,-0.179,-0.2389,-0.3081,-0.3675,-0.4316,-0.5631,-0.754,-0.7901,-0.934,-1.1468,-1.2079,-1.2179,-1.2079,-1.2684,-1.2757,-1.2781,-1.2786,-1.283,-1.2765,-1.3095,-1.4036,-1.4937,-1.6015,-1.6884,-1.7659,-1.8356,-1.8915,-1.8937,-1.9552,-1.9988,-2.0259,-2.0677,-2.1204,-2.2126,-2.3056,-2.4247,-2.435,-2.4097,-2.3972,-2.3862,-2.3699,-2.3797,-2.3783,-2.3806,-2.4469,-2.464,-2.4823,-2.5104,-2.5482,-2.6325,-2.7512,-2.8511,-2.9014,-2.9771,-3.058,-3.0128,-2.9306,-3.0113,-3.1145,-3.042,-2.9944,-2.986,-3.0509,-3.1266,-3.1368,-3.0895,2.9914,2.9481,2.8992,2.8571,2.8052,2.6842,2.5896,2.5032,2.288,2.0385,1.8322,1.7288,1.7112,1.7112,1.6841,1.6401,1.5154,1.4536,1.356,1.1864,0.9779,0.8704,0.7572,0.6457,0.5327,0.4672,0.3921,0.3545,0.3605,0.3168,0.3011,0.295,0.2996,0.3028,0.3117,0.3009,0.3007,0.3006,0.3001,0.2998,0.2809,0.1755,0.1009,0.0924,-0.0823,-0.1916,-0.2292,-0.3346,-0.3839,-0.3945,-0.4583,-0.5317,-0.6129,-0.6806,-0.8056,-0.9795,-1.0467,-1.1273,-1.2384,-1.2684,-1.279,-1.2879,-1.2879,-1.2863,-1.2841,-1.2857,-1.2852,-1.3228,-1.4117,-1.5042,-1.5844,-1.7304,-1.8329,-1.8777,-1.9505,-2.0377,-2.0837,-2.2196,-2.2993,-2.3169,-2.3525,-2.4774,-2.5764,-2.6387,-2.7304,-2.7243,-2.687,-2.5498,-2.504,-2.4436,-2.4232,-2.4148,-2.4321,-2.5239,-2.5823,-2.6554,-2.7565,-2.8422,-2.907,-2.9902,-3.0935,-3.1889,-3.1851,-3.2047,-3.187,-3.1762,-3.2773,-3.3738,-3.4294,-3.4179,-3.4179,-3.3395,-3.3283,-3.2937,-3.2055,2.9663,2.9244,2.8726,2.8052,2.7109,2.5896,2.4776,2.3137,2.0298,1.8235,1.7279,1.7112,1.7112,1.6928,1.6305,1.5778,1.4088,1.2219,1.1409,0.9594,0.7352,0.6486,0.5799,0.5004,0.4428,0.4039,0.3675,0.3393,0.3368,0.3088,0.2934,0.2977,0.3016,0.3033,0.3039,0.3036,0.3026,0.283,0.2444,0.1781,0.1216,0.0279,-0.1015,-0.1567,-0.2754,-0.4024,-0.4499,-0.5094,-0.5714,-0.5936,-0.6591,-0.7472,-0.8619,-0.9501,-1.0392,-1.1664,-1.2184,-1.2468,-1.273,-1.2819,-1.2792,-1.2743,-1.283,-1.2884,-1.289,-1.2884,-1.3444,-1.4111,-1.5289,-1.6714,-1.7848,-1.927,-2.0106,-2.0639,-2.1696,-2.2631,-2.3177,-2.4441,-2.5719,-2.597,-2.6954,-2.8205,-2.9193,-2.9985,-3.0698,-3.0144,-2.9491,-2.8154,-2.6934,-2.6437,-2.6093,-2.6056,-2.6346,-2.7506,-2.8318,-2.8835,-2.9958,-3.1282,-3.2044,-3.2525,-3.3473,-3.4418,-3.3917,-3.373,-3.4421,-3.5048,-3.5629,-3.6362,-3.7834,-3.8469,-3.8511,-3.7382,-3.5742,-3.503,-3.4586,2.923,2.874,2.8305,2.7096,2.5556,2.5032,2.2966,1.9786,1.7972,1.72,1.7112,1.6936,1.6665,1.6401,1.5066,1.3912,1.2933,0.9731,0.8375,0.7335,0.5429,0.4821,0.4395,0.3965,0.3694,0.3526,0.3343,0.3147,0.3051,0.3039,0.2966,0.2992,0.3006,0.3024,0.3031,0.2653,0.255,0.1982,0.1316,0.0469,-0.0374,-0.2042,-0.2964,-0.3701,-0.4981,-0.6078,-0.693,-0.7913,-0.8987,-0.9745,-1.0586,-1.1289,-1.1911,-1.2457,-1.2736,-1.2868,-1.2752,-1.2786,-1.2748,-1.2831,-1.3175,-1.3349,-1.3633,-1.3228,-1.3251,-1.3615,-1.4366,-1.5473,-1.6789,-1.8826,-2.0655,-2.1582,-2.2495,-2.3496,-2.4667,-2.5284,-2.5625,-2.6707,-2.8045,-2.9002,-3.0266,-3.1394,-3.194,-3.2734,-3.4108,-3.3975,-3.3649,-3.3603,-3.2185,-2.9879,-2.9589,-2.9186,-2.9663,-3.0372,-3.1028,-3.1607,-3.2647,-3.4123,-3.4658,-3.5241,-3.6175,-3.6805,-3.6774,-3.6974,-3.7728,-3.8489,-3.9295,-4.0705,-4.2362,-4.2647,-4.2185,-4.1577,-4.0009,-3.908,-3.8872,2.8908,2.8655,2.6927,2.5896,2.5032,2.2632,2.0047,1.7972,1.7288,1.7112,1.7024,1.569,1.5242,1.4889,1.2744,1.1151,0.9553,0.7788,0.6128,0.4884,0.4075,0.3562,0.34,0.3322,0.3238,0.315,0.3062,0.2977,0.2964,0.2962,0.2961,0.2973,0.2712,0.2821,0.236,0.1609,0.1042,0.0473,-0.0283,-0.113,-0.2443,-0.4211,-0.4859,-0.5781,-0.724,-0.8247,-0.9094,-0.999,-1.0693,-1.0934,-1.1771,-1.2131,-1.186,-1.2372,-1.2738,-1.2645,-1.264,-1.264,-1.2869,-1.3982,-1.4796,-1.5288,-1.6126,-1.6001,-1.5465,-1.5218,-1.6,-1.7374,-1.8744,-2.0774,-2.2293,-2.3373,-2.4269,-2.5251,-2.6433,-2.7421,-2.7933,-2.9053,-3.0376,-3.2248,-3.3496,-3.4704,-3.517,-3.6485,-3.769,-3.7775,-3.7811,-3.7892,-3.7231,-3.487,-3.3615,-3.3337,-3.3195,-3.4033,-3.4145,-3.4586,-3.5659,-3.6744,-3.7425,-3.79,-3.8223,-3.8879,-3.9493,-4.0303,-4.125,-4.2219,-4.3131,-4.471,-4.6404,-4.5814,-4.5283,-4.4913,-4.4323,-4.3332,-4.3028,2.874,2.8305,2.6321,2.4605,2.2794,2.0047,1.806,1.72,1.7112,1.6753,1.5866,1.4801,1.3823,1.2573,1.0618,0.893,0.7777,0.6088,0.4677,0.4061,0.3082,0.3088,0.3014,0.2941,0.3042,0.2958,0.2973,0.2986,0.2975,0.2951,0.2943,0.2854,0.2415,0.187,0.1222,-0.0189,-0.1712,-0.2187,-0.2758,-0.3236,-0.4555,-0.6338,-0.7175,-0.7722,-0.9356,-0.9999,-1.0459,-1.1096,-1.1304,-1.1423,-1.2075,-1.2358,-1.2084,-1.2466,-1.2623,-1.2748,-1.3806,-1.4079,-1.4551,-1.622,-1.6877,-1.7547,-1.8677,-1.8819,-1.8574,-1.8256,-1.9021,-2.0027,-2.1234,-2.2507,-2.3821,-2.4932,-2.5719,-2.65,-2.7973,-2.9313,-3.0409,-3.145,-3.3213,-3.5209,-3.6728,-3.8015,-3.9225,-4.0463,-4.137,-4.1444,-4.1443,-4.1474,-4.099,-3.9658,-3.8545,-3.807,-3.7703,-3.773,-3.7801,-3.8159,-3.9412,-4.0402,-4.0833,-4.1124,-4.0929,-4.1343,-4.2416,-4.3629,-4.4838,-4.5932,-4.7175,-4.856,-4.9865,-4.9298,-4.944,-5.0006,-4.9227,-4.7363,-4.7386,2.8389,2.7714,2.5811,2.2794,1.97,1.7885,1.7112,1.7024,1.6753,1.5858,1.4441,1.3817,1.2219,1.0263,0.8308,0.7246,0.6088,0.4662,0.3857,0.3502,0.3149,0.2886,0.2891,0.2901,0.2931,0.2961,0.2983,0.2992,0.2992,0.288,0.2763,0.2653,0.1107,0.0186,-0.0659,-0.2464,-0.409,-0.5135,-0.5802,-0.647,-0.6945,-0.8466,-0.9996,-0.9892,-1.0356,-1.0734,-1.0923,-1.1127,-1.1416,-1.1641,-1.199,-1.2362,-1.2978,-1.312,-1.3069,-1.4006,-1.5588,-1.6149,-1.6957,-1.8506,-1.9458,-1.9993,-2.0331,-2.1913,-2.2364,-2.0746,-2.1065,-2.2909,-2.4355,-2.5316,-2.6612,-2.7657,-2.8525,-2.9246,-3.0397,-3.1637,-3.2748,-3.4517,-3.7266,-3.907,-4.0271,-4.1463,-4.2487,-4.368,-4.4319,-4.4744,-4.5608,-4.5557,-4.5299,-4.4556,-4.3311,-4.2617,-4.1504,-4.1112,-4.1857,-4.2408,-4.3555,-4.431,-4.4461,-4.4603,-4.4579,-4.4942,-4.5456,-4.7276,-4.9153,-5.0174,-5.1349,-5.2666,-5.3581,-5.3691,-5.4071,-5.5327,-5.4441,-5.2513,-5.1674,2.7448,2.5726,2.2546,1.9873,1.7885,1.7288,1.6841,1.6401,1.4963,1.4075,1.3281,1.0885,0.9024,0.7866,0.5906,0.4838,0.4303,0.3857,0.3231,0.3143,0.2964,0.2874,0.2874,0.2886,0.2915,0.2949,0.2975,0.2905,0.273,0.2624,0.2057,0.0751,-0.0469,-0.1405,-0.3021,-0.4938,-0.6562,-0.7514,-0.8561,-0.8944,-0.9039,-0.9612,-1.0564,-1.0659,-1.0943,-1.1227,-1.1416,-1.17,-1.1889,-1.2099,-1.2202,-1.3388,-1.5099,-1.5221,-1.6211,-1.7624,-1.8196,-1.869,-1.9543,-2.0993,-2.2317,-2.3538,-2.4551,-2.63,-2.6347,-2.3685,-2.3438,-2.5765,-2.739,-2.8346,-2.9296,-3.0355,-3.1483,-3.2163,-3.3081,-3.416,-3.5328,-3.8101,-4.1203,-4.2652,-4.3864,-4.4987,-4.5977,-4.6791,-4.7197,-4.8432,-5.0019,-5.0699,-5.0901,-5.0308,-4.7827,-4.6646,-4.4739,-4.4419,-4.5583,-4.6529,-4.7594,-4.7862,-4.7917,-4.802,-4.8214,-4.8694,-4.9416,-5.1771,-5.3655,-5.4473,-5.536,-5.6465,-5.7219,-5.7673,-5.8502,-5.9583,-6.0095,-5.8765,-5.7287,2.6333,2.4947,2.1424,1.8663,1.6841,1.5946,1.5235,1.4353,1.1948,1.0613,1.0347,0.8397,0.6889,0.582,0.4124,0.3411,0.3321,0.3053,0.2964,0.2874,0.2874,0.2874,0.2874,0.2875,0.2901,0.2935,0.2879,0.2721,0.1796,0.1224,0.0282,-0.1599,-0.2528,-0.3947,-0.5766,-0.7393,-0.8561,-0.9035,-1.0465,-1.0749,-1.0564,-1.0848,-1.1037,-1.1132,-1.1416,-1.1694,-1.1794,-1.2172,-1.2733,-1.3764,-1.477,-1.6003,-1.7319,-1.7601,-1.8217,-1.9369,-2.0288,-2.1315,-2.2205,-2.368,-2.5548,-2.7051,-2.8758,-3.0534,-3.0965,-2.8874,-2.8448,-3.0396,-3.0472,-3.132,-3.2028,-3.2999,-3.4775,-3.5908,-3.7301,-3.8618,-3.985,-4.1692,-4.442,-4.6535,-4.7849,-4.9218,-5.0367,-5.1859,-5.2143,-5.2152,-5.3738,-5.4235,-5.4756,-5.5643,-5.3224,-5.1544,-5.0127,-4.9561,-5.0764,-5.1248,-5.144,-5.1513,-5.1436,-5.162,-5.196,-5.2479,-5.3496,-5.5656,-5.7428,-5.8539,-5.9412,-6.0421,-6.1461,-6.2241,-6.2969,-6.3771,-6.403,-6.4105,-6.2763,2.5117,2.4263,2.0905,1.8401,1.6393,1.4434,1.3369,1.2308,0.8842,0.6885,0.6618,0.6621,0.5196,0.4124,0.3499,0.3231,0.3053,0.2964,0.2874,0.2874,0.2874,0.2874,0.2874,0.2876,0.2535,0.1923,0.1578,0.0467,-0.0657,-0.122,-0.2342,-0.4457,-0.6145,-0.7784,-0.8551,-0.9642,-1.0559,-1.0749,-1.1321,-1.151,-1.151,-1.151,-1.151,-1.17,-1.1889,-1.2356,-1.2544,-1.301,-1.3852,-1.5535,-1.7491,-1.871,-1.9732,-2.0103,-2.0751,-2.1636,-2.3116,-2.4043,-2.5047,-2.7509,-2.9283,-3.0992,-3.2911,-3.4036,-3.4473,-3.4878,-3.4458,-3.4775,-3.4949,-3.4704,-3.5415,-3.6523,-3.8458,-3.9994,-4.1605,-4.3293,-4.4523,-4.5791,-4.8091,-5.0457,-5.181,-5.3264,-5.4523,-5.6056,-5.6611,-5.6493,-5.6778,-5.7011,-5.7608,-5.8823,-5.8474,-5.7741,-5.7097,-5.6824,-5.5761,-5.5512,-5.5263,-5.5476,-5.5432,-5.5472,-5.5855,-5.6885,-5.8005,-5.9233,-6.0859,-6.178,-6.3134,-6.4214,-6.5319,-6.6016,-6.6388,-6.6606,-6.6703,-6.6784,-6.7,2.3664,2.0732,1.8488,1.7367,1.6577,1.4516,1.3281,1.2131,0.8308,0.6264,0.5462,0.4214,0.3321,0.3053,0.3053,0.2964,0.2964,0.2874,0.2874,0.2874,0.2874,0.2874,0.2694,0.2335,0.1536,0.0365,-0.111,-0.2709,-0.3279,-0.3769,-0.4809,-0.6824,-0.7064,-0.868,-1.0423,-1.1245,-1.1495,-1.1784,-1.2078,-1.2267,-1.2544,-1.245,-1.2078,-1.2078,-1.2172,-1.3475,-1.4497,-1.514,-1.6629,-1.8119,-1.9511,-2.0991,-2.2004,-2.2923,-2.3666,-2.4843,-2.632,-2.7382,-2.8911,-3.0609,-3.2205,-3.3918,-3.5659,-3.7537,-3.8543,-4.03,-4.0534,-4.1665,-4.1416,-3.9946,-4.0384,-4.174,-4.3351,-4.446,-4.585,-4.7905,-4.9573,-5.1063,-5.2971,-5.4378,-5.5426,-5.6596,-5.759,-5.8921,-6.0062,-6.0215,-6.0762,-6.1126,-6.2105,-6.2765,-6.3268,-6.3328,-6.3208,-6.0279,-5.7687,-5.8723,-5.8806,-5.9151,-5.9375,-5.9318,-6.003,-6.1792,-6.2849,-6.2761,-6.3624,-6.4691,-6.6083,-6.7596,-6.776,-6.8289,-6.8886,-6.9255,-6.9361,-6.9711,-7.0098]},{"header":{"parameterUnit":"m.s-1","parameterCategory":1,"la1":31.0,"la2":29.5877,"lo1":-88.7671,"lo2":-86.6584,"dy":0.0162,"dx":0.0185,"nx":115,"ny":88,"refTime":"2023-10-10T06:00:00:Z","depth":0,"parameterNumber":3,"parameterNumberName":"V-component_of_WINDS"},"data":[0.0,0.0,0.0,0.0,0.0,0.0,0.0,0.0,0.0,0.0,0.0,0.0,0.0,0.0,0.0,0.0,0.0,0.0,0.0,0.0,0.0,0.0,0.0,0.0,0.0,0.0,0.0,0.0,0.0,0.0,0.0,0.0,0.0,0.0,0.0,0.0,0.0,0.0,0.0,0.0,0.0,0.0,0.0,0.0,0.0,0.0,0.0,0.0,0.0,0.0,0.0,0.0,0.0,0.0,0.0,0.0,0.0,0.0,0.0,0.0,0.0,0.0,0.0,0.0,0.0,0.0,0.0,0.0,0.0,0.0,0.0,0.0,0.0,0.0,0.0,0.0,0.0,0.0,0.0,0.0,0.0,0.0,0.0,0.0,0.0,0.0,0.0,0.0,0.0,0.0,0.0,0.0,0.0,0.0,0.0,0.0,0.0,0.0,0.0,0.0,0.0,0.0,0.0,0.0,0.0,0.0,0.0,0.0,0.0,0.0,0.0,0.0,0.0,0.0,0.0,0.0,0.0,0.0,0.0,0.0,0.0,0.0,0.0,0.0,0.0,0.0,0.0,0.0,0.0,0.0,0.0,0.0,0.0,0.0,0.0,0.0,0.0,0.0,0.0,0.0,0.0,0.0,0.0,0.0,0.0,0.0,0.0,0.0,0.0,0.0,0.0,0.0,0.0,0.0,0.0,0.0,0.0,0.0,0.0,0.0,0.0,0.0,0.0,0.0,0.0,0.0,0.0,0.0,0.0,0.0,0.0,0.0,0.0,0.0,0.0,0.0,0.0,0.0,0.0,0.0,0.0,0.0,0.0,0.0,0.0,0.0,0.0,0.0,0.0,0.0,0.0,0.0,0.0,0.0,0.0,0.0,0.0,0.0,0.0,0.0,0.0,0.0,0.0,0.0,0.0,0.0,0.0,0.0,0.0,0.0,0.0,0.0,0.0,0.0,0.0,0.0,0.0,0.0,0.0,0.0,0.0,0.0,0.0,0.0,0.0,0.0,0.0,0.0,0.0,0.0,0.0,0.0,0.0,0.0,0.0,0.0,0.0,0.0,0.0,0.0,0.0,0.0,0.0,0.0,0.0,0.0,0.0,0.0,0.0,0.0,0.0,0.0,0.0,0.0,0.0,0.0,0.0,0.0,0.0,0.0,0.0,0.0,0.0,0.0,0.0,0.0,0.0,0.0,0.0,0.0,0.0,0.0,0.0,0.0,0.0,0.0,0.0,0.0,0.0,0.0,0.0,0.0,0.0,0.0,0.0,0.0,0.0,0.0,0.0,0.0,0.0,0.0,0.0,0.0,0.0,0.0,0.0,0.0,0.0,0.0,0.0,0.0,0.0,0.0,0.0,0.0,0.0,0.0,0.0,0.0,0.0,0.0,0.0,0.0,0.0,0.0,0.0,0.0,0.0,0.0,0.0,0.0,0.0,0.0,0.0,0.0,0.0,0.0,0.0,0.0,0.0,0.0,0.0,0.0,0.0,0.0,0.0,0.0,0.0,0.0,0.0,0.0,0.0,0.0,0.0,0.0,0.0,0.0,0.0,0.0,0.0,0.0,0.0,0.0,0.0,0.0,0.0,0.0,0.0,0.0,0.0,0.0,0.0,0.0,0.0,0.0,0.0,0.0,0.0,0.0,0.0,0.0,0.0,0.0,0.0,0.0,0.0,0.0,0.0,0.0,0.0,0.0,0.0,0.0,0.0,0.0,0.0,0.0,0.0,0.0,0.0,0.0,0.0,0.0,0.0,0.0,0.0,0.0,0.0,0.0,0.0,0.0,0.0,0.0,0.0,0.0,0.0,0.0,0.0,0.0,0.0,0.0,0.0,0.0,0.0,0.0,0.0,0.0,0.0,0.0,0.0,0.0,0.0,0.0,0.0,0.0,0.0,0.0,0.0,0.0,0.0,0.0,0.0,0.0,0.0,0.0,0.0,0.0,0.0,0.0,0.0,0.0,0.0,0.0,0.0,0.0,0.0,0.0,0.0,0.0,0.0,0.0,0.0,0.0,0.0,0.0,0.0,0.0,0.0,0.0,0.0,0.0,0.0,0.0,0.0,0.0,0.0,0.0,0.0,0.0,0.0,0.0,0.0,0.0,0.0,0.0,0.0,0.0,0.0,0.0,0.0,0.0,0.0,0.0,0.0,0.0,0.0,0.0,0.0,0.0,0.0,0.0,0.0,0.0,0.0,0.0,0.0,0.0,0.0,0.0,0.0,0.0,0.0,0.0,0.0,0.0,0.0,0.0,0.0,0.0,0.0,0.0,0.0,0.0,0.0,0.0,0.0,0.0,0.0,0.0,0.0,0.0,0.0,0.0,0.0,0.0,0.0,0.0,0.0,0.0,0.0,0.0,0.0,0.0,0.0,0.0,0.0,0.0,0.0,0.0,0.0,0.0,0.0,0.0,0.0,0.0,0.0,0.0,0.0,0.0,0.0,0.0,0.0,0.0,0.0,0.0,0.0,0.0,0.0,0.0,0.0,0.0,0.0,0.0,0.0,0.0,0.0,0.0,0.0,0.0,0.0,0.0,0.0,0.0,0.0,0.0,0.0,0.0,0.0,0.0,0.0,0.0,0.0,0.0,0.0,0.0,0.0,0.0,0.0,0.0,0.0,0.0,0.0,0.0,0.0,0.0,0.0,0.0,0.0,0.0,0.0,0.0,0.0,0.0,0.0,0.0,0.0,0.0,0.0,0.0,0.0,0.0,0.0,0.0,0.0,0.0,0.0,0.0,0.0,0.0,0.0,0.0,0.0,0.0,0.0,0.0,0.0,0.0,0.0,0.0,0.0,0.0,0.0,0.0,0.0,0.0,0.0,0.0,0.0,0.0,0.0,0.0,0.0,0.0,0.0,0.0,0.0,0.0,0.0,0.0,0.0,0.0,0.0,0.0,0.0,0.0,0.0,0.0,0.0,0.0,0.0,0.0,0.0,0.0,0.0,0.0,0.0,0.0,0.0,0.0,0.0,0.0,0.0,0.0,0.0,0.0,0.0,0.0,0.0,0.0,0.0,0.0,0.0,0.0,0.0,0.0,0.0,0.0,0.0,0.0,0.0,0.0,0.0,0.0,0.0,0.0,0.0,0.0,0.0,0.0,0.0,0.0,0.0,0.0,0.0,0.0,0.0,0.0,0.0,0.0,0.0,0.0,0.0,0.0,0.0,0.0,0.0,0.0,0.0,0.0,0.0,0.0,0.0,0.0,0.0,0.0,0.0,0.0,0.0,0.0,0.0,0.0,0.0,0.0,0.0,0.0,0.0,0.0,0.0,0.0,0.0,0.0,0.0,0.0,0.0,0.0,0.0,0.0,0.0,0.0,0.0,0.0,0.0,0.0,0.0,0.0,0.0,0.0,0.0,0.0,0.0,0.0,0.0,0.0,0.0,0.0,0.0,0.0,0.0,0.0,0.0,0.0,0.0,0.0,0.0,0.0,0.0,0.0,0.0,0.0,0.0,0.0,0.0,0.0,0.0,0.0,0.0,0.0,0.0,0.0,0.0,0.0,0.0,0.0,0.0,0.0,0.0,0.0,0.0,0.0,0.0,0.0,0.0,0.0,0.0,0.0,0.0,0.0,0.0,0.0,0.0,0.0,0.0,0.0,0.0,0.0,0.0,0.0,0.0,0.0,0.0,0.0,0.0,0.0,0.0,0.0,0.0,0.0,0.0,0.0,0.0,0.0,0.0,0.0,0.0,0.0,0.0,0.0,0.0,0.0,0.0,0.0,0.0,0.0,0.0,0.0,0.0,0.0,0.0,0.0,0.0,0.0,0.0,0.0,0.0,0.0,0.0,0.0,0.0,0.0,0.0,0.0,0.0,0.0,0.0,0.0,0.0,0.0,0.0,0.0,0.0,0.0,0.0,0.0,0.0,0.0,0.0,0.0,0.0,0.0,0.0,0.0,0.0,0.0,0.0,0.0,0.0,0.0,0.0,0.0,0.0,0.0,0.0,0.0,0.0,0.0,0.0,0.0,0.0,0.0,0.0,0.0,0.0,0.0,0.0,0.0,0.0,0.0,0.0,0.0,0.0,0.0,0.0,0.0,0.0,0.0,0.0,0.0,0.0,0.0,0.0,0.0,0.0,0.0,0.0,0.0,0.0,0.0,0.0,0.0,0.0,0.0,0.0,0.0,0.0,0.0,0.0,0.0,0.0,0.0,0.0,0.0,0.0,0.0,0.0,0.0,0.0,0.0,0.0,0.0,0.0,0.0,0.0,0.0,0.0,0.0,0.0,0.0,0.0,0.0,0.0,0.0,0.0,0.0,0.0,0.0,3.5824,0.0,0.0,0.0,0.0,0.0,0.0,0.0,0.0,0.0,0.0,0.0,0.0,0.0,0.0,0.0,0.0,0.0,0.0,0.0,0.0,0.0,0.0,0.0,0.0,0.0,0.0,0.0,0.0,0.0,0.0,0.0,0.0,0.0,0.0,0.0,0.0,0.0,0.0,0.0,0.0,0.0,0.0,0.0,0.0,0.0,0.0,0.0,0.0,0.0,0.0,0.0,0.0,0.0,0.0,0.0,0.0,0.0,0.0,0.0,0.0,0.0,0.0,0.0,0.0,0.0,0.0,0.0,0.0,0.0,0.0,0.0,0.0,0.0,0.0,0.0,0.0,0.0,0.0,0.0,0.0,0.0,0.0,0.0,0.0,0.0,0.0,0.0,0.0,0.0,0.0,0.0,0.0,0.0,0.0,0.0,0.0,0.0,0.0,0.0,0.0,0.0,0.0,0.0,0.0,0.0,0.0,0.0,0.0,0.0,0.0,3.8557,3.7877,3.7469,3.7095,3.6649,0.0,0.0,0.0,0.0,0.0,0.0,0.0,0.0,0.0,0.0,0.0,0.0,0.0,0.0,0.0,0.0,0.0,0.0,0.0,0.0,0.0,0.0,0.0,0.0,0.0,0.0,0.0,0.0,0.0,0.0,0.0,0.0,0.0,0.0,0.0,0.0,0.0,0.0,0.0,0.0,0.0,0.0,0.0,0.0,0.0,0.0,0.0,0.0,0.0,0.0,0.0,0.0,0.0,0.0,0.0,0.0,0.0,0.0,0.0,0.0,0.0,0.0,0.0,0.0,0.0,0.0,0.0,0.0,0.0,0.0,0.0,0.0,0.0,0.0,0.0,0.0,0.0,0.0,0.0,0.0,0.0,0.0,0.0,0.0,0.0,0.0,0.0,0.0,0.0,0.0,0.0,0.0,0.0,0.0,0.0,0.0,0.0,0.0,0.0,0.0,0.0,0.0,0.0,0.0,0.0,0.0,0.0,0.0,0.0,0.0,0.0,0.0,3.8228,3.7915,3.7419,0.0,0.0,0.0,0.0,0.0,0.0,0.0,0.0,0.0,0.0,0.0,0.0,0.0,0.0,0.0,0.0,0.0,0.0,0.0,0.0,0.0,0.0,0.0,0.0,0.0,0.0,0.0,0.0,0.0,0.0,0.0,0.0,0.0,0.0,0.0,0.0,0.0,0.0,0.0,0.0,0.0,0.0,0.0,0.0,0.0,0.0,0.0,0.0,0.0,0.0,0.0,0.0,0.0,0.0,0.0,0.0,0.0,0.0,0.0,0.0,0.0,0.0,0.0,0.0,0.0,0.0,0.0,0.0,0.0,0.0,0.0,0.0,0.0,0.0,0.0,0.0,0.0,0.0,0.0,0.0,0.0,0.0,0.0,0.0,0.0,0.0,0.0,0.0,0.0,0.0,0.0,0.0,0.0,0.0,0.0,0.0,0.0,0.0,0.0,0.0,0.0,0.0,0.0,0.0,0.0,0.0,0.0,0.0,0.0,0.0,3.895,3.8261,3.8228,0.0,3.7476,0.0,0.0,0.0,0.0,0.0,0.0,0.0,0.0,0.0,0.0,0.0,0.0,0.0,0.0,0.0,0.0,0.0,0.0,0.0,0.0,0.0,0.0,0.0,0.0,0.0,0.0,0.0,0.0,0.0,0.0,0.0,0.0,0.0,0.0,0.0,0.0,0.0,0.0,0.0,0.0,0.0,0.0,0.0,0.0,0.0,0.0,0.0,0.0,0.0,0.0,0.0,0.0,0.0,0.0,0.0,0.0,0.0,0.0,0.0,0.0,0.0,0.0,0.0,0.0,0.0,0.0,0.0,0.0,0.0,0.0,0.0,0.0,0.0,0.0,0.0,0.0,0.0,0.0,0.0,0.0,0.0,0.0,0.0,0.0,0.0,0.0,0.0,0.0,0.0,0.0,0.0,0.0,0.0,0.0,0.0,0.0,0.0,0.0,0.0,0.0,0.0,0.0,0.0,0.0,0.0,0.0,0.0,0.0,0.0,0.0,3.9149,3.8884,3.8825,3.8823,0.0,0.0,0.0,0.0,0.0,0.0,0.0,0.0,0.0,0.0,0.0,0.0,0.0,0.0,0.0,0.0,0.0,0.0,0.0,0.0,0.0,0.0,0.0,0.0,0.0,0.0,0.0,0.0,0.0,0.0,0.0,0.0,0.0,0.0,0.0,0.0,0.0,0.0,0.0,0.0,0.0,0.0,0.0,0.0,0.0,0.0,0.0,0.0,0.0,0.0,0.0,0.0,0.0,0.0,0.0,0.0,0.0,0.0,0.0,0.0,0.0,0.0,0.0,0.0,0.0,0.0,0.0,0.0,0.0,0.0,0.0,0.0,0.0,0.0,0.0,0.0,0.0,0.0,0.0,0.0,0.0,0.0,0.0,0.0,0.0,0.0,0.0,0.0,0.0,0.0,0.0,0.0,0.0,0.0,0.0,0.0,0.0,0.0,0.0,0.0,0.0,0.0,0.0,0.0,0.0,0.0,0.0,0.0,0.0,0.0,3.9183,3.9315,3.9315,3.9315,3.9295,3.9306,0.0,0.0,0.0,0.0,0.0,0.0,0.0,0.0,0.0,0.0,0.0,0.0,0.0,0.0,0.0,0.0,0.0,0.0,0.0,0.0,0.0,0.0,0.0,0.0,0.0,0.0,0.0,0.0,0.0,0.0,0.0,0.0,0.0,0.0,0.0,0.0,0.0,0.0,0.0,0.0,0.0,0.0,0.0,0.0,0.0,0.0,0.0,0.0,0.0,0.0,0.0,0.0,0.0,0.0,0.0,0.0,0.0,0.0,0.0,0.0,0.0,0.0,0.0,0.0,0.0,0.0,0.0,0.0,0.0,0.0,0.0,0.0,0.0,0.0,0.0,0.0,0.0,0.0,0.0,0.0,0.0,0.0,0.0,0.0,0.0,0.0,0.0,0.0,0.0,0.0,0.0,0.0,0.0,0.0,0.0,0.0,0.0,0.0,0.0,0.0,0.0,0.0,0.0,0.0,0.0,0.0,0.0,0.0,3.8295,3.895,3.9315,3.9315,3.9315,3.8984,0.0,0.0,0.0,0.0,0.0,0.0,0.0,0.0,0.0,0.0,0.0,0.0,0.0,0.0,0.0,0.0,0.0,0.0,0.0,0.0,0.0,0.0,0.0,0.0,0.0,0.0,0.0,0.0,0.0,0.0,0.0,0.0,0.0,0.0,0.0,0.0,0.0,0.0,0.0,0.0,0.0,0.0,0.0,0.0,0.0,0.0,0.0,0.0,0.0,0.0,0.0,0.0,0.0,0.0,0.0,0.0,0.0,0.0,0.0,0.0,0.0,0.0,0.0,0.0,0.0,0.0,0.0,0.0,0.0,0.0,0.0,0.0,0.0,0.0,0.0,0.0,0.0,0.0,0.0,0.0,0.0,0.0,0.0,0.0,0.0,0.0,0.0,0.0,0.0,0.0,0.0,0.0,0.0,0.0,0.0,0.0,0.0,0.0,0.0,0.0,0.0,0.0,0.0,0.0,0.0,0.0,0.0,0.0,0.0,3.8202,3.8917,3.9315,3.9282,3.8825,3.8513,0.0,0.0,0.0,0.0,0.0,0.0,0.0,0.0,0.0,0.0,0.0,0.0,0.0,0.0,0.0,0.0,0.0,0.0,0.0,0.0,0.0,0.0,0.0,0.0,0.0,0.0,0.0,0.0,0.0,0.0,0.0,0.0,0.0,0.0,0.0,0.0,0.0,0.0,0.0,0.0,0.0,0.0,0.0,0.0,0.0,0.0,0.0,0.0,0.0,0.0,0.0,0.0,0.0,0.0,0.0,0.0,0.0,0.0,0.0,0.0,0.0,0.0,0.0,0.0,0.0,0.0,0.0,0.0,0.0,0.0,0.0,0.0,0.0,0.0,0.0,0.0,0.0,0.0,0.0,0.0,0.0,0.0,0.0,0.0,0.0,0.0,0.0,0.0,0.0,0.0,0.0,0.0,0.0,0.0,0.0,0.0,0.0,0.0,0.0,0.0,0.0,0.0,0.0,0.0,0.0,0.0,0.0,0.0,0.0,3.8169,0.0,3.9315,3.9282,3.8593,3.8122,0.0,0.0,0.0,0.0,0.0,0.0,0.0,0.0,0.0,0.0,0.0,0.0,0.0,0.0,0.0,0.0,0.0,0.0,0.0,0.0,0.0,0.0,0.0,0.0,0.0,0.0,0.0,0.0,0.0,0.0,0.0,0.0,0.0,0.0,0.0,0.0,0.0,0.0,0.0,0.0,0.0,0.0,0.0,0.0,0.0,0.0,0.0,0.0,0.0,0.0,0.0,0.0,0.0,0.0,0.0,0.0,0.0,0.0,0.0,0.0,0.0,0.0,0.0,0.0,0.0,0.0,0.0,0.0,0.0,0.0,0.0,0.0,0.0,0.0,0.0,0.0,0.0,0.0,0.0,0.0,0.0,0.0,0.0,0.0,0.0,0.0,0.0,0.0,0.0,0.0,0.0,0.0,0.0,0.0,0.0,0.0,0.0,0.0,0.0,0.0,0.0,0.0,0.0,0.0,0.0,0.0,0.0,0.0,3.6771,3.8136,3.8924,3.9348,3.9315,3.8626,3.7871,0.0,0.0,0.0,0.0,0.0,0.0,0.0,0.0,0.0,0.0,0.0,0.0,0.0,0.0,0.0,0.0,0.0,0.0,0.0,0.0,0.0,0.0,0.0,0.0,0.0,0.0,0.0,0.0,0.0,0.0,0.0,0.0,0.0,0.0,0.0,0.0,0.0,0.0,0.0,0.0,0.0,0.0,0.0,0.0,0.0,0.0,0.0,0.0,0.0,0.0,0.0,0.0,0.0,0.0,0.0,0.0,0.0,0.0,0.0,0.0,0.0,0.0,0.0,0.0,0.0,0.0,0.0,0.0,0.0,0.0,0.0,0.0,0.0,0.0,0.0,0.0,0.0,0.0,0.0,0.0,0.0,0.0,0.0,0.0,0.0,0.0,0.0,0.0,0.0,0.0,0.0,0.0,0.0,0.0,0.0,0.0,0.0,0.0,0.0,0.0,0.0,0.0,0.0,0.0,0.0,0.0,0.0,0.0,0.0,3.8195,3.9421,4.0078,4.0011,3.9348,3.8361,0.0,0.0,0.0,0.0,0.0,0.0,0.0,0.0,0.0,0.0,0.0,0.0,0.0,0.0,0.0,0.0,0.0,0.0,0.0,0.0,0.0,0.0,0.0,0.0,0.0,0.0,0.0,0.0,0.0,0.0,0.0,0.0,0.0,0.0,0.0,0.0,0.0,0.0,0.0,0.0,0.0,0.0,0.0,0.0,0.0,0.0,0.0,0.0,0.0,0.0,0.0,0.0,0.0,0.0,0.0,0.0,0.0,0.0,0.0,0.0,0.0,0.0,0.0,0.0,0.0,0.0,0.0,0.0,0.0,0.0,0.0,0.0,0.0,0.0,0.0,0.0,0.0,0.0,0.0,0.0,0.0,0.0,0.0,0.0,0.0,0.0,0.0,0.0,0.0,0.0,0.0,0.0,0.0,0.0,0.0,0.0,0.0,0.0,0.0,0.0,0.0,0.0,0.0,0.0,0.0,0.0,0.0,0.0,0.0,3.9818,4.0448,4.0779,4.0746,3.9812,3.8877,3.8008,0.0,0.0,0.0,0.0,0.0,0.0,0.0,0.0,0.0,0.0,0.0,0.0,0.0,0.0,0.0,0.0,0.0,0.0,0.0,0.0,0.0,0.0,0.0,0.0,0.0,0.0,0.0,0.0,0.0,0.0,0.0,0.0,0.0,0.0,0.0,0.0,0.0,0.0,0.0,0.0,0.0,0.0,0.0,0.0,0.0,0.0,0.0,0.0,0.0,0.0,0.0,0.0,0.0,0.0,0.0,0.0,0.0,0.0,0.0,0.0,0.0,0.0,0.0,0.0,0.0,0.0,0.0,0.0,0.0,0.0,0.0,0.0,0.0,0.0,0.0,0.0,0.0,0.0,0.0,0.0,0.0,0.0,0.0,0.0,0.0,0.0,0.0,0.0,0.0,0.0,0.0,0.0,0.0,0.0,0.0,0.0,0.0,0.0,0.0,0.0,0.0,0.0,0.0,0.0,0.0,0.0,0.0,0.0,4.2572,4.2005,4.1645,4.1579,4.0282,3.9501,0.0,0.0,0.0,0.0,0.0,0.0,0.0,0.0,0.0,0.0,0.0,0.0,0.0,0.0,0.0,0.0,0.0,0.0,0.0,0.0,0.0,0.0,0.0,0.0,0.0,0.0,0.0,0.0,0.0,0.0,0.0,0.0,0.0,0.0,0.0,0.0,0.0,0.0,0.0,0.0,0.0,0.0,0.0,0.0,0.0,0.0,0.0,0.0,0.0,0.0,0.0,0.0,0.0,0.0,0.0,0.0,0.0,0.0,0.0,0.0,0.0,0.0,0.0,0.0,0.0,0.0,0.0,0.0,0.0,0.0,0.0,0.0,0.0,0.0,0.0,0.0,0.0,0.0,0.0,0.0,0.0,0.0,0.0,0.0,0.0,0.0,0.0,0.0,0.0,0.0,0.0,0.0,0.0,0.0,0.0,0.0,0.0,0.0,0.0,0.0,0.0,0.0,0.0,0.0,0.0,0.0,0.0,0.0,0.0,4.3992,4.4456,4.439,4.3827,4.2965,4.1531,0.0,0.0,0.0,0.0,0.0,0.0,0.0,0.0,0.0,0.0,0.0,0.0,0.0,0.0,0.0,0.0,0.0,0.0,0.0,0.0,0.0,0.0,0.0,0.0,0.0,0.0,0.0,0.0,0.0,0.0,0.0,0.0,0.0,0.0,0.0,0.0,0.0,0.0,0.0,0.0,0.0,0.0,0.0,0.0,0.0,0.0,0.0,0.0,0.0,0.0,0.0,0.0,0.0,0.0,0.0,0.0,0.0,0.0,0.0,0.0,0.0,0.0,0.0,0.0,0.0,0.0,0.0,0.0,0.0,0.0,0.0,0.0,0.0,0.0,0.0,0.0,0.0,0.0,0.0,0.0,0.0,0.0,0.0,0.0,0.0,0.0,0.0,0.0,0.0,0.0,0.0,0.0,0.0,0.0,0.0,0.0,0.0,0.0,0.0,0.0,0.0,0.0,0.0,0.0,0.0,0.0,0.0,0.0,4.27,4.5549,4.6344,4.6676,4.6543,4.492,4.2983,0.0,0.0,0.0,0.0,0.0,0.0,0.0,0.0,0.0,0.0,0.0,0.0,0.0,0.0,0.0,0.0,0.0,0.0,0.0,0.0,0.0,0.0,0.0,0.0,0.0,0.0,0.0,0.0,0.0,0.0,0.0,0.0,0.0,0.0,0.0,0.0,0.0,0.0,0.0,0.0,0.0,0.0,0.0,0.0,0.0,0.0,0.0,0.0,0.0,0.0,0.0,0.0,0.0,0.0,0.0,0.0,0.0,0.0,0.0,0.0,0.0,0.0,0.0,0.0,0.0,0.0,0.0,0.0,0.0,0.0,0.0,0.0,0.0,0.0,0.0,0.0,0.0,0.0,0.0,0.0,0.0,0.0,0.0,0.0,0.0,0.0,0.0,0.0,0.0,0.0,0.0,0.0,0.0,0.0,0.0,0.0,0.0,0.0,0.0,0.0,0.0,0.0,0.0,0.0,0.0,0.0,0.0,0.0,4.4125,4.6941,4.7802,4.8531,4.9094,4.6442,4.4097,0.0,0.0,0.0,0.0,0.0,0.0,0.0,0.0,0.0,0.0,0.0,0.0,0.0,0.0,0.0,0.0,0.0,0.0,0.0,0.0,0.0,0.0,0.0,0.0,0.0,0.0,0.0,0.0,0.0,0.0,0.0,0.0,0.0,0.0,0.0,0.0,0.0,0.0,0.0,0.0,0.0,0.0,0.0,0.0,0.0,0.0,0.0,0.0,0.0,0.0,0.0,0.0,0.0,0.0,0.0,0.0,0.0,0.0,0.0,0.0,0.0,0.0,0.0,0.0,0.0,0.0,0.0,0.0,0.0,0.0,0.0,0.0,0.0,0.0,0.0,0.0,0.0,0.0,0.0,0.0,0.0,0.0,0.0,0.0,0.0,0.0,0.0,0.0,0.0,0.0,0.0,0.0,0.0,0.0,0.0,0.0,0.0,0.0,0.0,0.0,0.0,0.0,0.0,0.0,0.0,0.0,0.0,0.0,4.5384,4.7703,4.9061,4.9823,4.9955,4.7766,4.542,0.0,0.0,0.0,0.0,0.0,0.0,0.0,0.0,0.0,0.0,0.0,0.0,0.0,0.0,0.0,0.0,0.0,0.0,0.0,0.0,0.0,0.0,0.0,0.0,0.0,0.0,0.0,0.0,0.0,0.0,0.0,0.0,0.0,0.0,0.0,0.0,0.0,0.0,0.0,0.0,0.0,0.0,0.0,0.0,0.0,0.0,0.0,0.0,5.0206,0.0,0.0,0.0,0.0,0.0,0.0,0.0,0.0,0.0,0.0,0.0,0.0,0.0,0.0,0.0,0.0,0.0,0.0,0.0,0.0,0.0,0.0,0.0,0.0,0.0,0.0,0.0,0.0,0.0,0.0,0.0,0.0,0.0,0.0,0.0,0.0,0.0,0.0,0.0,0.0,0.0,0.0,0.0,0.0,0.0,0.0,0.0,0.0,0.0,0.0,0.0,0.0,0.0,0.0,0.0,0.0,0.0,0.0,0.0,4.6278,4.8465,4.9955,5.0717,5.0618,4.8695,4.6447,0.0,0.0,0.0,0.0,0.0,0.0,0.0,0.0,0.0,0.0,0.0,0.0,0.0,0.0,0.0,0.0,0.0,0.0,0.0,0.0,0.0,0.0,0.0,0.0,0.0,0.0,0.0,0.0,0.0,0.0,0.0,0.0,0.0,0.0,0.0,0.0,0.0,0.0,0.0,0.0,0.0,0.0,0.0,0.0,0.0,0.0,0.0,0.0,0.0,0.0,0.0,0.0,0.0,0.0,0.0,0.0,0.0,0.0,0.0,0.0,0.0,0.0,0.0,0.0,0.0,0.0,0.0,0.0,0.0,0.0,0.0,0.0,0.0,0.0,0.0,0.0,0.0,0.0,0.0,0.0,0.0,0.0,0.0,0.0,0.0,0.0,0.0,0.0,0.0,0.0,0.0,0.0,0.0,0.0,0.0,0.0,0.0,0.0,0.0,0.0,0.0,0.0,0.0,0.0,0.0,0.0,0.0,4.492,4.7106,4.9061,5.0518,5.1315,5.1282,4.9194,4.7041,4.4868,0.0,0.0,0.0,0.0,0.0,0.0,0.0,0.0,0.0,0.0,0.0,0.0,0.0,0.0,0.0,0.0,0.0,0.0,0.0,0.0,0.0,0.0,0.0,0.0,0.0,0.0,0.0,0.0,0.0,0.0,0.0,0.0,0.0,0.0,0.0,0.0,0.0,0.0,4.6757,4.9098,0.0,0.0,0.0,0.0,0.0,0.0,0.0,0.0,5.0512,0.0,0.0,0.0,0.0,0.0,0.0,0.0,0.0,0.0,0.0,0.0,0.0,0.0,0.0,0.0,0.0,0.0,0.0,0.0,0.0,0.0,0.0,0.0,0.0,0.0,0.0,0.0,0.0,0.0,0.0,0.0,0.0,0.0,0.0,0.0,0.0,0.0,0.0,0.0,0.0,0.0,0.0,0.0,0.0,0.0,0.0,0.0,0.0,0.0,0.0,0.0,0.0,0.0,0.0,0.0,0.0,4.2473,4.5914,4.8133,4.9094,5.0518,5.1315,5.1249,4.8793,4.6891,4.5722,0.0,0.0,0.0,0.0,0.0,0.0,0.0,0.0,0.0,0.0,0.0,0.0,0.0,0.0,0.0,0.0,0.0,0.0,0.0,0.0,0.0,0.0,0.0,0.0,0.0,0.0,0.0,0.0,0.0,0.0,0.0,0.0,0.0,0.0,0.0,0.0,0.0,0.0,0.0,5.0818,5.2193,0.0,0.0,0.0,0.0,0.0,0.0,0.0,0.0,5.1391,0.0,0.0,0.0,0.0,0.0,0.0,0.0,0.0,0.0,0.0,0.0,0.0,0.0,0.0,0.0,0.0,0.0,0.0,0.0,0.0,0.0,0.0,0.0,0.0,0.0,0.0,0.0,0.0,0.0,0.0,0.0,0.0,0.0,0.0,0.0,0.0,0.0,0.0,0.0,0.0,0.0,0.0,0.0,0.0,0.0,0.0,0.0,0.0,0.0,0.0,0.0,0.0,0.0,0.0,0.0,4.3135,4.6709,4.8928,4.969,5.1186,5.1785,5.1353,4.9222,4.7406,0.0,0.0,0.0,0.0,0.0,0.0,0.0,0.0,0.0,0.0,0.0,0.0,0.0,0.0,0.0,0.0,0.0,0.0,0.0,0.0,0.0,0.0,0.0,0.0,0.0,0.0,0.0,0.0,0.0,0.0,0.0,0.0,0.0,0.0,0.0,0.0,0.0,0.0,0.0,0.0,5.2155,5.3339,5.2957,0.0,0.0,0.0,0.0,0.0,0.0,5.2231,5.2231,0.0,0.0,0.0,0.0,0.0,0.0,0.0,0.0,0.0,0.0,0.0,0.0,0.0,0.0,0.0,0.0,0.0,0.0,0.0,0.0,0.0,0.0,0.0,0.0,0.0,0.0,0.0,0.0,0.0,0.0,0.0,0.0,0.0,0.0,0.0,0.0,0.0,0.0,0.0,0.0,0.0,0.0,0.0,0.0,0.0,0.0,0.0,0.0,0.0,0.0,0.0,0.0,0.0,0.0,0.0,4.3664,4.7207,4.9458,5.0254,5.162,5.2058,5.1326,4.9582,4.7815,0.0,0.0,0.0,0.0,0.0,0.0,0.0,0.0,0.0,0.0,0.0,0.0,0.0,0.0,0.0,0.0,0.0,0.0,0.0,0.0,0.0,0.0,0.0,0.0,0.0,0.0,0.0,0.0,0.0,0.0,0.0,0.0,0.0,0.0,0.0,0.0,0.0,0.0,0.0,0.0,0.0,5.4218,5.4562,5.5059,0.0,0.0,0.0,0.0,5.3301,5.3607,0.0,0.0,0.0,0.0,0.0,0.0,0.0,0.0,0.0,0.0,0.0,0.0,0.0,0.0,0.0,0.0,0.0,0.0,0.0,0.0,0.0,0.0,0.0,0.0,0.0,0.0,0.0,0.0,0.0,0.0,0.0,0.0,0.0,0.0,0.0,0.0,0.0,0.0,0.0,0.0,0.0,0.0,0.0,0.0,0.0,0.0,0.0,0.0,0.0,0.0,0.0,0.0,0.0,0.0,0.0,0.0,4.3631,4.7239,4.9526,5.0392,5.1191,5.136,5.0794,4.9218,4.7387,0.0,0.0,0.0,0.0,0.0,0.0,0.0,0.0,0.0,0.0,0.0,0.0,0.0,0.0,0.0,0.0,0.0,0.0,0.0,0.0,0.0,0.0,0.0,0.0,0.0,0.0,0.0,0.0,0.0,0.0,0.0,0.0,0.0,0.0,0.0,0.0,0.0,0.0,0.0,0.0,0.0,5.4639,5.6091,5.5785,5.5326,0.0,0.0,5.5097,5.5097,5.6358,0.0,0.0,0.0,0.0,0.0,0.0,0.0,0.0,0.0,0.0,0.0,0.0,0.0,0.0,0.0,0.0,0.0,0.0,0.0,0.0,0.0,0.0,0.0,0.0,0.0,0.0,0.0,0.0,0.0,0.0,0.0,0.0,0.0,0.0,0.0,0.0,0.0,0.0,0.0,0.0,0.0,0.0,0.0,0.0,0.0,0.0,0.0,0.0,0.0,0.0,0.0,0.0,0.0,0.0,0.0,4.2038,4.4257,4.8364,5.089,5.1726,5.26,5.2977,5.2632,5.0389,4.8377,0.0,0.0,0.0,0.0,0.0,0.0,0.0,0.0,0.0,0.0,0.0,0.0,0.0,0.0,0.0,0.0,0.0,0.0,0.0,0.0,0.0,0.0,0.0,0.0,0.0,0.0,0.0,0.0,0.0,0.0,0.0,0.0,0.0,0.0,0.0,0.0,0.0,0.0,0.0,0.0,0.0,0.0,5.66,5.7122,0.0,0.0,0.0,5.8077,5.7581,0.0,0.0,0.0,0.0,0.0,0.0,0.0,0.0,0.0,0.0,0.0,0.0,0.0,0.0,0.0,0.0,0.0,0.0,0.0,0.0,0.0,0.0,0.0,0.0,0.0,0.0,0.0,0.0,0.0,0.0,0.0,0.0,0.0,0.0,0.0,0.0,0.0,0.0,0.0,0.0,0.0,0.0,0.0,0.0,0.0,0.0,0.0,0.0,0.0,0.0,0.0,0.0,0.0,0.0,0.0,0.0,0.0,4.4873,4.9326,5.2029,5.2832,5.4157,5.4601,5.4134,5.1751,0.0,0.0,0.0,0.0,0.0,0.0,0.0,0.0,0.0,0.0,0.0,0.0,0.0,0.0,0.0,0.0,0.0,0.0,0.0,0.0,0.0,0.0,0.0,0.0,0.0,0.0,0.0,4.1286,0.0,0.0,0.0,0.0,0.0,0.0,0.0,0.0,0.0,0.0,0.0,0.0,0.0,0.0,5.781,5.7594,5.8612,5.9262,0.0,0.0,6.0217,5.9797,6.0637,6.0637,0.0,0.0,0.0,0.0,0.0,0.0,0.0,0.0,0.0,0.0,0.0,0.0,0.0,0.0,0.0,0.0,0.0,0.0,0.0,0.0,0.0,0.0,0.0,0.0,0.0,0.0,0.0,0.0,0.0,0.0,0.0,0.0,0.0,0.0,0.0,0.0,0.0,0.0,0.0,0.0,0.0,0.0,0.0,0.0,0.0,0.0,0.0,0.0,0.0,0.0,0.0,0.0,0.0,0.0,4.2964,4.5236,4.9555,5.2269,5.3179,5.5212,5.5644,5.4425,5.3,5.089,0.0,0.0,0.0,0.0,0.0,0.0,0.0,0.0,0.0,0.0,0.0,0.0,0.0,0.0,0.0,0.0,0.0,0.0,0.0,0.0,0.0,0.0,0.0,0.0,0.0,0.0,0.0,0.0,0.0,0.0,0.0,0.0,0.0,0.0,0.0,0.0,0.0,0.0,0.0,0.0,0.0,5.8459,5.9911,6.0231,6.0561,0.0,6.079,6.0651,6.1325,6.2815,6.283,5.9554,0.0,0.0,0.0,0.0,0.0,0.0,0.0,0.0,0.0,0.0,0.0,0.0,0.0,0.0,0.0,0.0,0.0,0.0,0.0,0.0,0.0,0.0,0.0,0.0,0.0,0.0,0.0,0.0,0.0,0.0,0.0,0.0,0.0,0.0,0.0,0.0,0.0,0.0,0.0,0.0,0.0,0.0,0.0,0.0,0.0,0.0,0.0,0.0,0.0,0.0,0.0,0.0,0.0,4.4091,4.6693,5.104,5.4122,5.5792,5.6761,5.7122,5.6981,5.4032,5.1719,0.0,0.0,0.0,0.0,0.0,0.0,0.0,0.0,0.0,0.0,0.0,0.0,0.0,0.0,0.0,0.0,0.0,0.0,0.0,0.0,0.0,0.0,0.0,0.0,0.0,0.0,0.0,0.0,4.6762,4.7062,4.6882,0.0,0.0,0.0,0.0,0.0,0.0,0.0,0.0,0.0,0.0,6.0599,6.1784,6.2395,0.0,0.0,6.335,6.3236,6.251,6.3388,6.3236,6.037,5.9759,0.0,0.0,0.0,0.0,0.0,0.0,0.0,0.0,0.0,0.0,0.0,0.0,0.0,0.0,0.0,0.0,0.0,0.0,0.0,0.0,0.0,0.0,0.0,0.0,0.0,0.0,0.0,0.0,0.0,0.0,0.0,0.0,0.0,0.0,0.0,0.0,0.0,0.0,0.0,0.0,0.0,0.0,0.0,0.0,0.0,0.0,0.0,0.0,0.0,0.0,0.0,0.0,4.5026,4.8069,5.2183,5.5324,5.7524,5.8083,5.8414,5.8503,5.5089,5.2772,0.0,0.0,0.0,0.0,0.0,0.0,0.0,0.0,0.0,0.0,0.0,0.0,0.0,0.0,0.0,0.0,0.0,0.0,0.0,0.0,0.0,0.0,0.0,0.0,0.0,0.0,0.0,0.0,4.8846,4.8754,4.7903,0.0,0.0,0.0,0.0,0.0,0.0,0.0,0.0,0.0,0.0,6.2968,6.3579,6.4191,6.4649,6.4879,6.4993,6.4802,6.4153,6.4344,6.377,6.1516,0.0,0.0,0.0,0.0,0.0,0.0,0.0,0.0,0.0,0.0,0.0,0.0,0.0,0.0,0.0,0.0,0.0,0.0,0.0,0.0,0.0,0.0,0.0,0.0,0.0,0.0,0.0,3.6692,0.0,0.0,3.5636,0.0,0.0,0.0,0.0,0.0,0.0,0.0,0.0,0.0,0.0,0.0,0.0,0.0,0.0,0.0,0.0,0.0,0.0,0.0,0.0,0.0,0.0,4.5635,4.9241,5.277,5.5595,5.7689,5.9029,5.9387,5.8631,5.6171,5.4134,5.2627,0.0,0.0,0.0,0.0,0.0,0.0,0.0,0.0,0.0,0.0,0.0,0.0,0.0,0.0,0.0,0.0,0.0,0.0,0.0,0.0,0.0,0.0,0.0,0.0,0.0,0.0,5.0168,4.9595,4.8831,0.0,0.0,0.0,0.0,0.0,0.0,0.0,0.0,0.0,5.995,6.3197,6.5337,6.5337,6.5375,6.5681,6.6483,6.5299,6.4802,6.6292,6.5872,6.4802,0.0,0.0,0.0,0.0,0.0,0.0,0.0,0.0,0.0,0.0,0.0,0.0,0.0,0.0,0.0,0.0,0.0,0.0,0.0,0.0,0.0,0.0,0.0,0.0,0.0,0.0,0.0,4.0221,3.9847,0.0,0.0,0.0,0.0,0.0,0.0,0.0,0.0,0.0,0.0,0.0,4.2866,4.2983,0.0,0.0,0.0,0.0,0.0,0.0,0.0,0.0,0.0,0.0,0.0,0.0,4.7936,5.101,5.4684,5.7629,5.9828,6.0275,6.0367,6.0042,5.7702,5.5411,5.3261,0.0,0.0,0.0,0.0,0.0,0.0,0.0,0.0,0.0,0.0,0.0,0.0,0.0,0.0,0.0,0.0,0.0,0.0,0.0,0.0,0.0,0.0,0.0,0.0,0.0,5.1658,0.0,0.0,0.0,0.0,0.0,0.0,0.0,0.0,0.0,0.0,0.0,5.9224,6.1745,6.4,6.5605,6.6178,6.6254,6.6369,0.0,0.0,0.0,0.0,0.0,0.0,0.0,0.0,0.0,0.0,0.0,0.0,0.0,0.0,6.6522,6.3465,6.1975,6.1058,6.0523,0.0,0.0,0.0,0.0,0.0,0.0,0.0,0.0,0.0,0.0,0.0,0.0,0.0,0.0,4.2605,4.2175,4.2175,0.0,0.0,0.0,0.0,0.0,0.0,0.0,0.0,4.3694,4.4619,4.5609,4.5732,4.5988,0.0,4.6197,4.5554,0.0,0.0,0.0,0.0,0.0,0.0,0.0,0.0,4.9695,5.2768,5.5944,5.8693,6.0798,6.081,6.081,6.0774,5.8649,5.6424,5.4146,5.3254,5.2193,0.0,0.0,0.0,0.0,0.0,0.0,0.0,0.0,0.0,0.0,0.0,0.0,0.0,0.0,0.0,0.0,0.0,0.0,0.0,0.0,0.0,0.0,0.0,5.3722,0.0,0.0,0.0,0.0,0.0,0.0,0.0,0.0,0.0,5.8459,6.0332,6.2471,6.4382,6.5834,6.6904,6.7477,0.0,0.0,0.0,0.0,0.0,0.0,0.0,6.8333,6.8081,6.8295,6.912,7.1068,7.1336,7.1489,7.2062,0.0,0.0,6.8158,6.6713,6.5872,6.5566,6.5824,6.6461,6.7563,6.886,7.0008,0.0,0.0,0.0,0.0,4.3748,0.0,0.0,0.0,4.3896,4.3896,0.0,4.3797,0.0,0.0,0.0,0.0,4.1707,4.2406,0.0,0.0,4.6707,4.7899,4.9426,4.9492,5.0058,5.0991,5.0315,5.0478,5.098,4.5542,0.0,0.0,0.0,0.0,0.0,0.0,5.0873,5.4536,5.6698,5.8744,6.0756,6.0819,6.081,6.0755,5.9005,5.7223,5.551,5.5714,5.492,5.2905,5.2005,0.0,0.0,0.0,0.0,0.0,0.0,0.0,0.0,0.0,0.0,0.0,0.0,0.0,0.0,0.0,0.0,0.0,0.0,0.0,0.0,5.4524,0.0,0.0,0.0,0.0,0.0,0.0,0.0,0.0,0.0,6.186,6.1975,6.4611,6.698,6.7744,0.0,0.0,0.0,0.0,6.8279,6.9158,6.9349,6.9381,6.946,7.0805,7.1593,7.093,0.0,0.0,7.5362,7.4291,7.3866,7.534,7.4635,7.3226,7.2285,7.1778,7.1303,7.0636,7.1271,7.2172,7.2495,7.3822,7.5216,4.8844,0.0,0.0,0.0,0.0,4.7671,4.8299,4.9061,4.8531,4.8034,4.7504,4.6942,0.0,0.0,0.0,0.0,0.0,0.0,4.77,4.9859,4.9626,5.0326,5.1965,5.2068,5.227,5.2573,5.2961,5.3335,5.3479,5.1824,4.9775,4.7519,0.0,0.0,0.0,0.0,5.3663,5.6309,5.8681,6.0467,6.1616,6.1652,6.1277,6.0555,5.9555,5.909,5.9244,5.8144,5.7397,5.7125,5.5208,0.0,0.0,0.0,0.0,0.0,0.0,0.0,0.0,0.0,0.0,0.0,0.0,0.0,0.0,0.0,0.0,0.0,0.0,0.0,5.6243,5.7963,5.8498,0.0,0.0,0.0,0.0,0.0,0.0,0.0,0.0,0.0,6.7706,6.7171,6.698,0.0,0.0,6.8508,6.912,6.9566,7.0117,7.0856,7.21,0.0,7.28,7.3944,7.4956,7.526,7.7034,7.8103,7.7138,7.8091,7.8966,7.8799,7.8901,7.8914,7.8515,7.5542,7.3472,7.3626,7.4471,7.5531,7.6753,7.8049,7.9131,5.3394,5.1065,5.0241,5.0411,5.1212,5.1247,5.1744,5.2506,5.1777,5.1247,5.075,4.9756,4.863,4.7504,4.7003,0.0,0.0,0.0,5.096,5.3434,5.3033,5.3504,5.4823,5.5232,5.5614,5.5928,5.6159,5.6712,5.7522,5.6511,5.5245,5.3673,0.0,5.0665,5.2138,5.4423,5.6403,5.8089,6.0456,6.1756,6.2051,6.2318,6.2046,6.1352,6.1055,6.1128,6.1431,6.0546,6.006,5.9994,5.7933,5.5923,0.0,0.0,0.0,0.0,0.0,0.0,0.0,0.0,0.0,0.0,0.0,5.1064,5.1218,0.0,0.0,0.0,5.4906,5.6969,5.9185,6.0599,0.0,0.0,0.0,0.0,0.0,0.0,0.0,6.6522,6.8852,7.0779,7.1806,7.0981,7.0276,7.0381,7.0145,7.0407,7.1593,0.0,7.2384,7.3226,7.462,7.5471,7.5088,7.6519,7.8075,7.9198,8.0311,8.0799,7.9936,8.0954,8.143,8.0549,8.0852,8.1281,8.065,7.8513,7.7126,7.7511,7.829,7.9301,8.0369,8.1454,8.2376,5.774,5.6945,5.484,5.4245,5.4721,5.4754,5.4825,5.4787,5.4096,5.3732,5.3566,5.2241,5.1247,5.0586,4.946,0.0,5.2162,5.2267,5.3878,5.656,5.6566,5.7046,5.7904,5.8724,5.9473,6.0221,5.9563,6.0299,6.2062,6.0065,5.9616,6.0765,5.6903,5.5369,5.6299,5.7898,5.9124,5.9973,6.2045,6.2915,6.2443,6.2867,6.297,6.2758,6.305,6.2924,6.2378,6.2628,6.2433,6.1593,6.0026,5.8727,5.7886,0.0,0.0,0.0,0.0,0.0,0.0,0.0,0.0,0.0,0.0,0.0,0.0,0.0,0.0,5.5708,5.7949,0.0,6.186,6.2777,0.0,0.0,0.0,6.5796,6.591,6.8699,7.0648,7.0686,0.0,0.0,7.4599,7.5283,7.5474,7.4779,7.3877,7.3926,7.5561,7.5063,7.4986,7.5856,7.6875,7.7305,7.6828,7.8602,8.0552,8.2018,8.2668,8.2533,8.2572,8.2533,8.198,8.0796,8.1187,8.1438,7.9849,8.0992,8.2167,8.1611,8.2162,8.2839,8.2956,8.3798,8.4566,6.1061,6.0862,6.0291,5.8892,5.7044,5.7011,5.7309,5.7773,5.7077,5.6448,5.5852,5.4957,5.4568,5.4552,5.4822,5.5632,5.6854,5.6322,5.7171,5.8934,5.9023,5.9486,6.035,6.112,6.1567,6.1767,6.2149,6.2595,6.3117,6.3033,6.3176,6.3462,6.2549,6.1254,5.96,6.0682,6.186,6.305,6.4255,6.4681,6.433,6.3339,6.2925,6.3162,6.2738,6.2618,6.2734,6.2199,6.1822,6.1554,5.9988,5.8765,5.7925,5.6116,0.0,0.0,0.0,0.0,0.0,0.0,0.0,0.0,0.0,5.5028,5.6052,0.0,5.8956,0.0,6.0509,6.2968,6.5261,6.6216,0.0,0.0,6.8623,6.9464,7.0151,7.1489,7.2635,7.3246,7.4461,7.5584,7.6423,7.6798,7.7396,7.845,7.665,7.5648,7.6891,7.6881,7.7035,7.7971,7.8895,7.9541,7.9277,8.0377,8.1601,8.2212,8.2396,8.2601,8.3204,8.2791,8.2411,8.2572,8.2338,8.2196,8.2327,8.2908,8.3367,8.3737,8.3152,8.2606,8.3279,8.4156,8.4989,6.2719,6.2685,6.2719,6.1757,6.0225,6.0266,6.0456,6.0788,6.0059,5.9536,5.9032,5.7752,5.6906,5.6458,5.6976,5.7968,5.9055,5.8762,5.9443,6.0946,6.1334,6.1769,6.2256,6.2995,6.3502,6.3795,6.3863,6.4276,6.4903,6.4939,6.5149,6.5561,6.5646,6.5058,6.3935,6.4067,6.4347,6.4635,6.512,6.5475,6.571,6.3993,6.3273,6.3676,6.2943,6.2673,6.2877,6.2433,6.2166,6.2166,6.0943,6.0026,5.9529,5.8017,5.6778,0.0,0.0,0.0,0.0,0.0,0.0,0.0,0.0,0.0,0.0,0.0,6.2204,6.2471,6.4076,6.6025,6.8165,6.9425,7.0512,7.144,7.2537,7.3433,7.4014,7.5107,7.6076,7.6654,7.7418,7.8215,7.8992,7.9121,7.9513,8.0784,7.9504,7.8643,7.9132,7.8973,7.8834,7.9417,7.9753,8.0123,8.0411,8.1364,8.2221,8.2659,8.2794,8.2993,8.3412,8.3146,8.2879,8.2957,8.283,8.2787,8.2993,8.3291,8.3596,8.3494,8.2947,8.2944,8.4349,8.5364,8.6141,6.357,6.3537,6.3537,6.3614,6.3624,6.3624,6.3524,6.3282,6.2695,6.2396,6.2306,6.0577,5.9131,5.7969,5.8178,5.9073,6.0324,6.0376,6.124,6.2717,6.3446,6.3818,6.3963,6.4672,6.5349,6.5931,6.5287,6.5705,6.7069,6.6344,6.6395,6.7266,6.7206,6.7424,6.8007,6.7395,6.674,6.6038,6.5736,6.5955,6.6796,6.4807,6.3894,6.4138,6.3465,6.2968,6.2777,6.2739,6.2701,6.2586,6.1936,6.1593,6.1554,6.0455,5.9447,0.0,5.8389,0.0,0.0,0.0,0.0,0.0,0.0,0.0,0.0,6.37,6.5444,6.724,6.8135,6.9282,7.091,7.2516,7.3887,7.4812,7.6084,7.6999,7.7352,7.8623,7.9582,7.9968,8.0538,8.1066,8.1385,8.1414,8.1491,8.187,8.171,8.142,8.1493,8.0727,8.0183,8.0353,7.9707,7.9622,8.0704,8.1584,8.2329,8.3113,8.323,8.3386,8.3465,8.3347,8.3113,8.2684,8.2918,8.3074,8.2528,8.3074,8.3308,8.2957,8.2798,8.3305,8.487,8.5921,8.69,6.4995,6.4995,6.4995,6.5116,6.5336,6.5336,6.4671,6.353,6.3363,6.3457,6.3635,6.3275,6.3023,6.2892,6.2401,6.2419,6.2815,6.2245,6.2804,6.4315,6.5017,6.5687,6.6264,6.7016,6.7425,6.7547,6.7403,6.7885,6.8879,6.8087,6.8175,6.9078,6.8309,6.8229,6.886,0.0,0.0,0.0,6.8238,6.7485,6.7591,6.5963,6.478,6.4229,6.4038,0.0,6.1936,6.186,6.1554,6.0943,6.1325,0.0,0.0,0.0,0.0,0.0,0.0,0.0,0.0,0.0,0.0,0.0,6.7735,6.6701,6.4962,6.633,6.838,7.0754,7.1751,7.2862,7.4533,7.5606,7.658,7.7478,7.7807,7.8343,7.9172,7.9548,8.0084,8.0969,8.1275,8.1462,8.1695,8.1812,8.1922,8.2166,8.2218,8.2166,8.2157,8.122,8.0422,7.9929,7.9096,7.9232,8.0771,8.1122,8.1591,8.2293,8.2528,8.2801,8.3269,8.2918,8.2801,8.3074,8.284,8.2723,8.3152,8.3426,8.3582,8.4206,8.4242,8.405,8.323,8.3699,8.4441,6.6,6.609,6.6,6.6135,0.0,6.599,6.5511,6.5024,6.4896,6.4738,6.4488,6.4615,6.4539,6.4293,6.4004,6.3917,6.4038,6.3666,6.4108,6.5262,6.6,6.6774,6.7546,6.8218,6.8597,6.8597,6.8651,6.8929,6.9345,6.867,6.871,6.9485,6.8539,6.8554,6.9439,6.9872,7.0281,7.0718,6.9306,6.8317,6.7859,6.6254,6.4993,6.4244,6.377,0.0,0.0,0.0,0.0,0.0,0.0,0.0,0.0,6.3944,0.0,6.4867,6.5743,6.66,6.7414,6.8631,6.9743,7.047,7.1007,7.0524,6.8763,6.9483,7.1099,7.3584,7.4213,7.5287,7.7341,7.801,7.8628,7.9584,7.97,7.9948,8.06,8.0686,8.0932,8.1522,8.163,8.1684,8.1995,8.2011,8.2078,8.228,8.2293,8.2293,8.2173,8.1091,7.983,7.8657,7.8507,7.8702,7.9561,8.0537,8.1083,8.1591,8.202,8.245,8.284,8.2567,8.2567,8.3269,8.284,8.2567,8.3269,8.3191,8.3074,8.3426,8.3543,8.3347,8.2489,8.3269,8.4245,6.6853,6.7123,6.6853,6.7,6.7412,6.6634,6.6574,6.692,6.6445,0.0,0.0,6.5522,6.5312,6.478,6.4932,6.4992,6.4992,6.5017,6.5534,6.6436,6.7022,6.7758,6.8496,6.8997,6.9279,6.9419,6.9394,6.9514,6.9682,6.9084,6.9054,6.9531,6.8976,6.9206,7.027,7.0535,7.0648,7.0572,6.9693,6.8852,6.8126,6.6636,6.5452,6.4664,6.3962,6.3503,6.335,6.335,6.3732,6.4573,6.4779,6.5238,6.6055,6.6406,6.6949,6.7667,6.8057,6.8823,7.0141,7.1084,7.1866,7.2509,7.3223,7.3384,7.2732,7.2694,7.3592,7.5817,7.6239,7.7313,7.9347,7.9846,8.0331,8.1155,8.1451,8.1658,8.1737,8.1833,8.1856,8.2013,8.1888,8.1934,8.223,8.2157,8.2094,8.2277,8.2293,8.2098,8.1747,8.0612,7.932,7.8194,7.8077,7.8194,7.8588,7.9483,8.0576,8.1005,8.1474,8.1903,8.2215,8.2176,8.245,8.3347,8.2918,8.2879,8.3308,8.3035,8.2489,8.2332,8.2293,8.2293,8.2411,8.3386,8.4284,6.7754,6.816,6.7902,6.8082,6.8482,6.8348,6.8479,6.863,6.7302,6.6618,6.6517,6.6593,6.6567,6.644,6.6536,6.6548,6.6553,6.6651,6.7411,6.878,6.8916,6.9353,7.003,6.9472,6.963,7.0332,6.9708,6.9894,7.0734,7.0403,7.0332,7.0599,7.0583,7.1238,7.238,7.1854,7.1527,7.1489,6.9999,6.912,6.9005,6.805,6.7171,6.6407,6.6216,6.5796,6.5108,6.507,6.5452,6.633,6.698,6.7791,6.8709,7.0087,7.1037,7.1306,7.2625,7.353,7.376,7.4542,7.5111,7.5311,7.5442,7.5457,7.538,7.5342,7.5833,7.7008,7.8277,7.9331,7.9831,8.1023,8.1715,8.1582,8.2664,8.3114,8.2153,8.2539,8.274,8.23,8.223,8.2218,8.2284,8.228,8.2234,8.229,8.2293,8.1825,8.0615,7.9873,7.9639,7.9209,7.8116,7.7726,7.8272,7.8546,7.9483,8.081,8.0498,8.081,8.202,8.1786,8.1903,8.323,8.3269,8.3308,8.3465,8.3426,8.2957,8.245,8.2293,8.2293,8.2296,8.2615,8.2924,6.8623,6.8975,6.8884,6.9077,6.9488,6.9117,6.8992,6.8977,6.7895,6.7421,6.7354,6.6981,6.6812,6.6862,6.7273,6.7463,6.7502,6.7992,6.8823,6.9836,6.9906,7.0306,7.1081,7.078,7.0877,7.135,7.1112,7.1267,7.1699,7.1468,7.1516,7.1845,7.2011,7.2404,7.2924,7.2597,7.2406,7.2367,7.0724,6.9655,6.9196,6.8814,6.8203,6.7362,6.7362,6.74,6.7477,6.7439,6.805,6.9349,6.9779,7.0439,7.1328,7.2125,7.2786,7.3315,7.4044,7.4696,7.5117,7.597,7.6532,7.6647,7.707,7.7301,7.7316,7.6893,7.7024,7.79,7.9092,8.0245,8.1175,8.2014,8.2613,8.3067,8.3795,8.382,8.3064,8.3098,8.3072,8.2443,8.2293,8.2293,8.2293,8.2293,8.2293,8.2293,8.2293,8.1786,8.0576,7.999,7.9326,7.8468,7.7999,7.7999,7.835,7.8858,7.9444,8.0224,8.0381,8.0693,8.1552,8.1513,8.2215,8.3152,8.3191,8.3074,8.3347,8.3113,8.2723,8.2489,8.2293,8.2302,8.2248,8.2225,8.2343,6.9574,6.9927,6.9848,7.0075,7.0398,6.9857,6.9519,6.9282,6.8504,6.8064,6.7827,6.7151,6.6896,6.7154,6.7896,6.837,6.8638,6.9383,7.0095,7.0678,7.0711,7.1107,7.1744,7.1696,7.1751,7.2011,7.2021,7.2094,7.2177,7.2177,7.2454,7.3005,7.3173,7.3361,7.3552,7.3361,7.3246,7.317,7.1756,7.0686,7.0075,7.0037,6.9731,6.912,6.9043,6.9349,6.9999,7.0037,7.0741,7.2172,7.2352,7.2783,7.3635,7.3775,7.4159,7.4811,7.4903,7.5278,7.6121,7.6916,7.7485,7.7617,7.8175,7.8522,7.8542,7.8209,7.8166,7.8776,7.9668,8.0853,8.2239,8.2854,8.3328,8.4143,8.4604,8.4329,8.3451,8.3386,8.3191,8.2489,8.2293,8.2293,8.2293,8.2293,8.2293,8.2293,8.2293,8.1942,8.1122,8.0381,7.9366,7.8311,7.8116,7.8194,7.8233,7.878,7.9366,7.9639,7.999,8.0537,8.1083,8.1825,8.2411,8.3113,8.3074,8.2957,8.3308,8.305,8.2589,8.2359,8.225,8.2221,8.2187,8.212,8.2221,7.0494,7.1075,7.0827,7.0906,7.1176,7.1075,7.0669,6.9992,6.9282,6.8571,6.7861,6.7151,6.7236,6.7935,6.8714,6.9456,7.0095,7.0943,7.1399,7.1593,7.1656,7.178,7.1885,7.1265,7.1391,7.2087,7.1633,7.1673,7.2103,7.2494,7.3123,7.3969,7.4091,7.4469,7.5042,7.4469,7.4087,7.4087,7.3208,7.275,7.2635,7.2635,7.2597,7.2559,7.2482,7.2559,7.252,7.2673,7.3106,7.4052,7.4145,7.4609,7.5465,7.5611,7.5774,7.6081,7.6118,7.656,7.7506,7.8078,7.8455,7.8606,7.8626,7.8714,7.8863,7.9467,7.9777,7.9856,8.0599,8.1568,8.2534,8.3419,8.3783,8.3617,8.4728,8.4841,8.3057,8.3074,8.3191,8.2411,8.2293,8.2293,8.2293,8.2293,8.2293,8.2293,8.2293,8.1981,8.12,8.0888,8.042,7.9483,7.8936,7.8233,7.7843,7.7999,7.9014,7.96,7.9131,7.9873,8.1161,8.1594,8.1594,8.2896,8.3323,8.3211,8.3294,8.3343,8.2968,8.2344,8.2182,8.2115,8.2101,8.2045,8.2255,7.0779,7.1052,7.1131,7.1222,7.1278,7.0838,7.0466,7.0094,6.891,6.8199,6.7912,6.7625,6.7731,6.8093,6.9347,7.006,7.044,7.1272,7.1718,7.1816,7.1872,7.2024,7.2137,7.1881,7.197,7.2401,7.2411,7.2553,7.2843,7.353,7.4252,7.4913,7.4966,7.5157,7.548,7.5157,7.4966,7.4966,7.466,7.4469,7.4354,7.3514,7.2979,7.2979,7.2979,7.3246,7.3667,7.3794,7.4227,7.5025,7.52,7.5526,7.6002,7.6095,7.621,7.6506,7.6963,7.7351,7.7775,7.8938,7.9648,7.9706,8.0135,8.0434,8.051,8.0831,8.0827,8.0373,8.101,8.1931,8.2823,8.3376,8.3746,8.4132,8.4819,8.4598,8.3263,8.3269,8.3191,8.245,8.2293,8.2293,8.2293,8.2293,8.2293,8.2293,8.2293,8.1942,8.12,8.1005,8.0615,7.9951,7.9795,7.9834,7.9405,7.9678,8.0071,8.0263,8.0185,8.0654,8.1092,8.1818,8.2023,8.2648,8.2733,8.2734,8.2614,8.265,8.2482,8.2159,8.2088,8.2021,8.2021,8.2,8.2146,7.1096,7.1277,7.1323,7.1312,7.1244,7.05,7.006,6.9722,6.847,6.7921,6.7952,6.8216,6.8486,6.883,6.9955,7.0541,7.0878,7.1526,7.1872,7.197,7.2273,7.2503,7.2688,7.2651,7.2826,7.3037,7.3199,7.3415,7.3725,7.4497,7.5114,7.5445,7.5518,7.5518,7.5518,7.5518,7.5518,7.5518,7.5518,7.5553,7.5408,7.4429,7.3817,7.3778,7.3778,7.4095,7.4758,7.4858,7.5172,7.5793,7.5971,7.6212,7.6537,7.6671,7.6914,7.7368,7.8123,7.8614,7.8698,7.9973,8.0793,8.0876,8.1385,8.1726,8.1761,8.1779,8.1415,8.0754,8.1337,8.2207,8.2708,8.3114,8.3635,8.4356,8.4441,8.4089,8.3269,8.3191,8.2918,8.2411,8.2293,8.2293,8.2293,8.2293,8.2293,8.2293,8.2293,8.2137,8.1552,8.1356,8.1122,8.0537,8.0978,8.1024,8.0816,8.0732,8.093,8.099,8.0838,8.0883,8.1237,8.1875,8.2183,8.2377,8.2157,8.2143,8.2271,8.2182,8.2093,8.206,8.2005,8.198,8.1973,8.1934,8.192,7.1491,7.2146,7.1582,7.1278,7.1244,7.0466,6.9755,6.9079,6.8199,6.7918,6.8073,6.8752,6.96,7.0404,7.0573,7.1006,7.1687,7.1897,7.2084,7.2313,7.3038,7.3457,7.3634,7.3634,7.3913,7.4195,7.3922,7.4009,7.4737,7.5227,7.5501,7.5539,7.5594,7.5518,7.5518,7.5556,7.5518,7.5518,7.5535,7.5633,7.5825,7.5793,7.5731,7.5721,7.5731,7.5771,7.6115,7.6184,7.6267,7.6371,7.6438,7.6837,7.7601,7.7736,7.8178,7.9118,8.0033,8.0586,8.0762,8.1272,8.1679,8.1824,8.175,8.1787,8.1968,8.1981,8.1672,8.1024,8.1715,8.2205,8.2145,8.2825,8.3373,8.35,8.3543,8.3191,8.2489,8.2489,8.2371,8.2332,8.2293,8.2293,8.2293,8.2293,8.2293,8.2293,8.2293,8.2257,8.2146,8.2143,8.2068,8.2005,8.1943,8.1598,8.028,8.0684,8.1045,8.109,8.125,8.117,8.1699,8.2101,8.2101,8.2098,8.2074,8.2062,8.2074,8.2036,8.1929,8.189,8.1928,8.1908,8.1943,8.1929,8.1883,7.1762,7.1684,7.1413,7.1041,7.0534,6.9789,6.9045,6.8267,6.7523,6.7516,6.8128,6.8943,6.9814,7.064,7.1359,7.1775,7.1927,7.2114,7.2233,7.2402,7.3223,7.3392,7.3075,7.4293,7.4754,7.4603,7.5403,7.6187,7.6694,7.6479,7.6265,7.6265,7.6265,7.6036,7.5709,7.5997,7.6036,7.5574,7.5682,7.5818,7.5967,7.6559,7.7028,7.7123,7.6525,7.6181,7.6295,7.6873,7.7205,7.7235,7.7786,7.8332,7.8759,7.896,7.9174,7.9591,8.0419,8.0938,8.1074,8.1694,8.2094,8.2162,8.2143,8.2084,8.2166,8.2175,8.1875,8.135,8.1786,8.2042,8.1684,8.2202,8.2723,8.2723,8.2723,8.2645,8.2371,8.2293,8.2293,8.2293,8.2293,8.2293,8.2293,8.2293,8.2293,8.2293,8.2293,8.2271,8.2254,8.2219,8.2224,8.2221,8.2478,8.243,8.1341,8.1392,8.1625,8.1662,8.1691,8.168,8.2,8.2021,8.2011,8.1978,8.196,8.1767,8.1714,8.1506,8.1481,8.186,8.1883,8.1873,8.1892,8.1864,8.1854,7.1819,7.1041,7.0973,7.05,6.9789,6.9011,6.8402,6.787,6.7411,6.7656,6.8489,6.9385,7.03,7.1167,7.1957,7.2446,7.2569,7.2658,7.2607,7.2461,7.3538,7.3817,7.3611,7.4949,7.566,7.5745,7.6863,7.7703,7.791,7.7411,7.6991,7.6723,7.6685,7.6303,7.5747,7.6074,7.605,7.5742,7.581,7.6052,7.6559,7.7268,7.793,7.8263,7.7734,7.7412,7.7412,7.8015,7.8318,7.8411,7.8946,7.9475,7.9905,8.0314,8.0654,8.0927,8.1239,8.1552,8.1786,8.2137,8.229,8.2293,8.229,8.2293,8.2293,8.2293,8.1864,8.1396,8.1747,8.1942,8.1396,8.1786,8.2293,8.2293,8.2293,8.2293,8.2293,8.2293,8.2293,8.2293,8.2293,8.2293,8.2293,8.2293,8.2293,8.2293,8.2269,8.2254,8.2226,8.2185,8.2137,8.2131,8.2682,8.2655,8.205,8.1961,8.1933,8.1928,8.1787,8.1894,8.1894,8.1902,8.189,8.1843,8.1705,8.1485,8.1262,8.1029,8.1223,8.1699,8.1834,8.1775,8.1814,8.1814,8.1765,7.1515,7.0331,7.0195,6.9755,6.9045,6.8335,6.7929,6.7904,6.7924,6.8451,6.9421,7.0232,7.1135,7.2048,7.2233,7.279,7.3428,7.3641,7.3347,7.2907,7.4177,7.4838,7.4728,7.5605,7.6693,7.7635,7.7926,7.8062,7.8213,7.8061,7.764,7.6953,7.6953,7.6609,7.5633,7.5859,7.5857,7.5955,7.6076,7.6606,7.7732,7.8077,7.8676,7.9481,7.9622,7.9665,7.9674,7.9678,7.9639,7.9658,7.9782,8.0143,8.0956,8.1744,8.2567,8.2879,8.2645,8.2684,8.3113,8.2645,8.2293,8.2293,8.2293,8.2293,8.2293,8.2293,8.1981,8.1474,8.1786,8.1981,8.1435,8.1825,8.2293,8.2293,8.2293,8.2293,8.2293,8.2293,8.2293,8.2215,8.2254,8.2293,8.2293,8.2263,8.2269,8.2274,8.2219,8.2187,8.2182,8.2122,8.2101,8.2187,8.2613,8.2784,8.2598,8.2405,8.2189,8.2012,8.1851,8.182,8.1753,8.1738,8.1757,8.1708,8.1417,8.1201,8.1395,8.1201,8.1152,8.1462,8.1568,8.1685,8.1723,8.1723,8.1702,7.0601,7.0128,6.9654,6.8977,6.8301,6.7996,6.7886,6.7993,6.8054,6.8945,7.0127,7.0737,7.1453,7.2174,7.2416,7.2907,7.3707,7.4221,7.4368,7.4353,7.5031,7.5261,7.5343,7.6793,7.8321,7.9447,7.9686,7.9704,7.9589,7.913,7.871,7.8519,7.8461,7.8022,7.7217,7.7385,7.7309,7.6813,7.7094,7.7535,7.806,7.9267,8.0173,8.0514,8.1137,8.1503,8.1464,8.0921,8.0612,8.0615,8.1161,8.163,8.1981,8.2684,8.2957,8.2723,8.2996,8.2918,8.2645,8.2489,8.2293,8.2293,8.2293,8.2293,8.2293,8.2293,8.2176,8.1903,8.2137,8.2137,8.202,8.2098,8.2293,8.2293,8.2293,8.2293,8.2293,8.2293,8.202,8.1591,8.1942,8.202,8.1717,8.1812,8.2261,8.2223,8.2183,8.2196,8.207,8.2036,8.1993,8.2007,8.2482,8.2873,8.2543,8.252,8.2637,8.2104,8.1737,8.1679,8.1663,8.1646,8.1646,8.1491,8.1204,8.1049,8.1254,8.1215,8.101,8.1137,8.1215,8.1381,8.1613,8.1669,8.1646,7.0297,6.9755,6.9282,6.847,6.7599,6.7792,6.8145,6.8478,6.89,7.0062,7.1388,7.1544,7.2043,7.2724,7.2907,7.323,7.3744,7.4551,7.5065,7.5352,7.5674,7.5724,7.592,7.7885,7.9447,8.0335,8.0506,8.0506,8.0468,8.0009,7.9607,7.934,7.9302,7.8877,7.8233,7.8292,7.8142,7.7949,7.8214,7.8426,7.8823,8.0079,8.0918,8.1043,8.1808,8.2251,8.2254,8.1747,8.1474,8.1552,8.202,8.2293,8.2332,8.2762,8.2957,8.2879,8.2879,8.2918,8.2723,8.2528,8.2293,8.2293,8.2293,8.2293,8.2293,8.2293,8.2293,8.2293,8.2293,8.2293,8.2293,8.2293,8.2293,8.2293,8.2293,8.2293,8.2293,8.2293,8.2137,8.1789,8.2001,8.1892,8.1784,8.207,8.2416,8.2293,8.2375,8.227,8.2104,8.1966,8.1995,8.2271,8.3046,8.3003,8.241,8.2595,8.3024,8.2339,8.1589,8.1573,8.1577,8.1577,8.1589,8.1344,8.1085,8.0659,8.0737,8.0439,8.0206,8.05,8.0976,8.1302,8.1589,8.1589,8.1565,7.0398,6.9147,6.9045,6.8166,6.7032,6.7644,6.8502,6.935,7.0239,7.1603,7.2933,7.2631,7.2834,7.3531,7.345,7.3487,7.3817,7.4368,7.5161,7.5772,7.6037,7.6289,7.7277,7.8806,7.9865,8.0411,8.0506,8.0506,8.0506,8.0391,8.0124,7.9531,7.9454,7.9173,7.8823,7.8584,7.8812,7.9126,7.9256,7.9414,7.9684,8.0558,8.1051,8.1094,8.1854,8.2293,8.2293,8.2215,8.2215,8.2293,8.2254,8.2293,8.2293,8.2332,8.284,8.3347,8.2801,8.3074,8.3269,8.2918,8.2567,8.2684,8.2567,8.2411,8.2645,8.2645,8.2528,8.2489,8.2371,8.2293,8.2293,8.2293,8.2293,8.2293,8.2293,8.2293,8.2293,8.2293,8.214,8.2076,8.214,8.2109,8.1992,8.2593,8.272,8.2421,8.2585,8.2603,8.2279,8.2141,8.2251,8.2682,8.3203,8.282,8.2104,8.2765,8.3037,8.2251,8.1632,8.1748,8.1593,8.1528,8.1528,8.1296,8.0974,8.0549,8.0317,8.0186,8.0225,8.0662,8.1076,8.1349,8.1504,8.1516,8.1516,6.9958,6.9045,6.847,6.7658,6.7006,6.769,6.8864,7.0255,7.1264,7.2673,7.39,7.3646,7.3458,7.3634,7.312,7.312,7.367,7.3957,7.4695,7.5671,7.5801,7.698,7.8403,7.9351,7.9979,8.0392,8.0468,8.0506,8.0506,8.0506,8.0353,8.02,8.0104,8.0169,8.0177,7.9787,7.9784,8.0057,8.0294,8.041,8.0625,8.1368,8.1859,8.1875,8.2127,8.2293,8.2293,8.2293,8.2293,8.2293,8.2293,8.2293,8.2371,8.284,8.323,8.3347,8.3894,8.4167,8.4167,8.366,8.3504,8.4011,8.3504,8.3465,8.4089,8.3543,8.323,8.3074,8.2723,8.2293,8.2293,8.2293,8.2293,8.2293,8.2293,8.2293,8.2293,8.2293,8.2074,8.1478,8.1874,8.1869,8.1795,8.2387,8.2929,8.2415,8.259,8.301,8.2602,8.2194,8.2206,8.2417,8.2665,8.2255,8.2143,8.2791,8.2883,8.2084,8.1852,8.2161,8.1852,8.1542,8.1542,8.1426,8.1117,8.0691,8.0691,8.0665,8.0846,8.0769,8.0846,8.1027,8.1375,8.1504,8.1504,7.0229,6.9485,6.8707,6.7963,6.7421,6.8236,6.9363,7.0698,7.2091,7.3629,7.472,7.4125,7.4074,7.4551,7.356,7.3266,7.3699,7.3922,7.4645,7.5777,7.6954,7.7817,7.859,7.9333,8.0046,8.001,8.0315,8.0506,8.0506,8.0506,8.0506,8.0468,8.0506,8.0716,8.0993,8.0757,8.0711,8.1087,8.1247,8.1226,8.0987,8.1748,8.1854,8.1875,8.201,8.2293,8.2293,8.2293,8.2293,8.2371,8.2567,8.2645,8.2411,8.3074,8.3347,8.3113,8.3777,8.4206,8.4245,8.405,8.4284,8.4597,8.4284,8.4362,8.448,8.4011,8.3504,8.3426,8.2762,8.2371,8.2293,8.2293,8.2293,8.2293,8.2293,8.2293,8.2293,8.2279,8.2023,8.1757,8.2012,8.2397,8.18,8.3112,8.3403,8.3184,8.3281,8.3275,8.2959,8.251,8.2266,8.2592,8.2813,8.2661,8.2533,8.2999,8.3115,8.2316,8.2122,8.2432,8.1968,8.162,8.1658,8.1581,8.1233,8.0962,8.0885,8.0769,8.0575,8.0498,8.0563,8.0872,8.1298,8.1491,8.1491,7.0872,7.0128,6.9383,6.8682,6.8266,6.9031,6.9988,7.1197,7.2867,7.4537,7.5507,7.4492,7.4588,7.5836,7.3964,7.3545,7.3697,7.3996,7.4863,7.6219,7.7771,7.8736,7.7544,7.9267,7.98,7.9607,8.0047,8.0353,8.0468,8.0506,8.0506,8.0506,8.0506,8.0762,8.1098,8.1195,8.1561,8.1812,8.1896,8.1705,8.1382,8.1836,8.1898,8.1609,8.1971,8.2411,8.245,8.2411,8.2371,8.245,8.3035,8.2918,8.2528,8.3191,8.3308,8.3113,8.3699,8.4167,8.4167,8.4948,8.5221,8.5456,8.5338,8.5143,8.526,8.4714,8.3972,8.3816,8.2918,8.2528,8.2293,8.2293,8.2293,8.2296,8.2296,8.2305,8.2274,8.222,8.2147,8.2137,8.2645,8.3031,8.349,8.431,8.5091,8.3779,8.3944,8.4076,8.373,8.3331,8.3087,8.305,8.3231,8.3373,8.3257,8.3206,8.3102,8.278,8.2587,8.2548,8.1968,8.1697,8.1813,8.1736,8.1387,8.1039,8.0807,8.0614,8.0498,8.0653,8.0949,8.122,8.1491,8.1491,8.1491,7.0872,7.0128,6.9417,6.9118,6.9089,6.9332,7.0735,7.2883,7.3978,7.5361,7.6332,7.5329,7.4918,7.5175,7.3802,7.2972,7.3542,7.387,7.44,7.616,7.8288,7.8294,7.7512,7.8845,7.9398,7.934,7.9454,7.9895,8.0315,8.0506,8.0506,8.0506,8.0542,8.0664,8.1007,8.1272,8.1453,8.1792,8.1994,8.2034,8.1909,8.201,8.2109,8.1932,8.2173,8.2606,8.2996,8.2645,8.2645,8.2957,8.2879,8.284,8.3152,8.3386,8.3699,8.4245,8.4948,8.5729,8.6392,8.6627,8.7134,8.7486,8.7056,8.7134,8.7681,8.6236,8.5221,8.4597,8.3738,8.2957,8.2411,8.2293,8.2293,8.2299,8.225,8.2186,8.2148,8.2108,8.2046,8.2182,8.2656,8.3101,8.3102,8.4521,8.4931,8.4391,8.4494,8.4869,8.4559,8.4095,8.3656,8.336,8.3438,8.336,8.2703,8.278,8.3012,8.2935,8.2857,8.2509,8.1929,8.162,8.1736,8.1658,8.1491,8.1182,8.0962,8.1078,8.1104,8.122,8.1298,8.1414,8.1491,8.1491,8.144,7.1075,7.0679,7.0336,7.0312,7.0531,7.1014,7.2077,7.3573,7.4858,7.5855,7.643,7.5763,7.5689,7.5866,7.4327,7.3811,7.4454,7.4996,7.6051,7.7642,7.9171,7.913,7.829,7.869,7.9187,7.8863,7.9149,7.9704,8.0315,8.0525,8.0506,8.0505,8.0593,8.0837,8.1084,8.1359,8.164,8.1867,8.202,8.2128,8.2192,8.2175,8.2234,8.229,8.2332,8.2684,8.3347,8.2723,8.3035,8.3582,8.3347,8.3035,8.3504,8.3894,8.4362,8.4831,8.5612,8.6471,8.7173,8.7798,8.8149,8.8696,8.8227,8.8071,8.7876,8.6822,8.5807,8.487,8.4011,8.3191,8.2411,8.2293,8.2293,8.2305,8.2221,8.2145,8.2088,8.2023,8.2157,8.2457,8.3143,8.3434,8.3987,8.5023,8.5307,8.5011,8.4895,8.5153,8.4921,8.4418,8.3721,8.3438,8.3515,8.3167,8.2238,8.22,8.2819,8.2819,8.2819,8.2355,8.1774,8.162,8.153,8.1491,8.1491,8.1491,8.1336,8.1491,8.1491,8.1452,8.1414,8.1491,8.1453,8.1322,8.1214,7.1401,7.1478,7.1488,7.1688,7.2228,7.2941,7.348,7.4163,7.5421,7.6136,7.624,7.6203,7.6337,7.6663,7.5431,7.5219,7.6007,7.7047,7.8082,7.898,7.9876,7.978,7.9245,7.9149,7.9034,7.8328,7.8939,7.9704,8.0333,8.058,8.0632,8.0611,8.0821,8.1041,8.131,8.1551,8.1744,8.1944,8.2044,8.2133,8.2196,8.2218,8.2241,8.229,8.2332,8.284,8.3426,8.3191,8.3269,8.4792,8.4167,8.3855,8.4089,8.448,8.4987,8.5065,8.608,8.7017,8.7798,8.854,8.9203,8.9086,8.893,8.8618,8.7954,8.7095,8.608,8.5104,8.4206,8.3152,8.245,8.2296,8.2383,8.2402,8.2304,8.2125,8.2127,8.2091,8.2395,8.2853,8.3462,8.3859,8.4572,8.5462,8.5604,8.572,8.5565,8.5449,8.5217,8.483,8.4173,8.367,8.3747,8.3786,8.2935,8.1698,8.229,8.2613,8.2664,8.2084,8.1582,8.1581,8.1491,8.1491,8.1491,8.1491,8.1491,8.1491,8.1491,8.1491,8.1478,8.1466,8.1322,8.1104,8.1,7.1688,7.2252,7.1829,7.2528,7.3762,7.3634,7.4373,7.5556,7.5965,7.6497,7.6937,7.6423,7.6501,7.6616,7.604,7.6094,7.7152,7.8328,7.9114,7.9589,8.02,8.02,7.9704,7.9493,7.9245,7.9149,7.9358,7.9835,8.0407,8.0677,8.0778,8.0869,8.1098,8.1298,8.1383,8.1551,8.1744,8.1875,8.2038,8.2182,8.2196,8.2269,8.2287,8.2332,8.2371,8.3152,8.405,8.3855,8.4089,8.5573,8.5026,8.5065,8.5377,8.5729,8.5885,8.6158,8.7134,8.7954,8.8579,8.9828,9.0648,9.0726,9.0179,8.975,8.9125,8.8071,8.6822,8.5654,8.4401,8.3191,8.2411,8.2428,8.2606,8.2734,8.2625,8.2299,8.2652,8.2795,8.2859,8.3281,8.3835,8.4353,8.5037,8.5643,8.5913,8.6029,8.6029,8.6029,8.6029,8.5449,8.4714,8.4327,8.4018,8.4018,8.3824,8.2342,8.18,8.221,8.221,8.1694,8.1374,8.1504,8.1491,8.1308,8.1362,8.1491,8.1491,8.1491,8.1453,8.1375,8.1375,8.1375,8.106,8.0773,8.0618,7.2142,7.2548,7.3225,7.4112,7.4935,7.5288,7.5844,7.6619,7.6754,7.6907,7.709,7.69,7.7039,7.7255,7.7024,7.7316,7.8382,7.94,8.0124,8.0582,8.0964,8.1041,8.0468,8.0162,7.9933,7.9968,8.0075,8.019,8.0485,8.0762,8.0916,8.0968,8.1298,8.1497,8.1551,8.18,8.1867,8.1959,8.2089,8.2192,8.2196,8.2277,8.229,8.2371,8.2762,8.3582,8.4401,8.448,8.4792,8.5729,8.569,8.5768,8.608,8.651,8.6744,8.6939,8.7642,8.8579,8.9203,9.0296,9.0687,9.1194,9.0882,9.0179,8.9437,8.8422,8.7495,8.6092,8.46,8.339,8.3047,8.2879,8.2812,8.2726,8.2873,8.3063,8.3113,8.3331,8.3626,8.3914,8.4508,8.4998,8.5178,8.572,8.6145,8.6339,8.6416,8.6494,8.661,8.568,8.4777,8.3937,8.3417,8.3378,8.3263,8.2231,8.146,8.1831,8.17,8.1223,8.1,8.103,8.0916,8.0751,8.1,8.1335,8.1478,8.1466,8.1362,8.1228,8.1133,8.1015,8.0668,8.0425,8.022,7.2617,7.2914,7.4643,7.5547,7.5929,7.6733,7.7144,7.7273,7.7273,7.7237,7.7304,7.742,7.776,7.8149,7.8401,7.8761,7.9627,8.0391,8.1079,8.1538,8.192,8.1996,8.1576,8.1174,8.0676,8.0511,8.0646,8.0795,8.0711,8.0977,8.1056,8.1247,8.1561,8.1792,8.1834,8.1951,8.2059,8.2134,8.2167,8.2192,8.2214,8.2277,8.2293,8.2371,8.3113,8.3894,8.4675,8.5026,8.5495,8.6158,8.6392,8.6392,8.6471,8.7017,8.7443,8.7638,8.7798,8.8813,8.9789,9.057,9.1155,9.1624,9.1389,9.0531,8.9648,8.8917,8.7873,8.6235,8.4994,8.3941,8.3789,8.3589,8.353,8.3568,8.3929,8.4135,8.4164,8.4293,8.4533,8.4921,8.5372,8.5643,8.5797,8.5952,8.6377,8.6416,8.6494,8.6532,8.6428,8.5236,8.4214,8.3171,8.2624,8.251,8.2249,8.1699,8.1312,8.1636,8.1252,8.0677,8.0514,8.0443,8.0389,8.0425,8.0668,8.1015,8.1214,8.1242,8.1015,8.0821,8.0805,8.0601,8.0277,8.0005,7.9798,7.2955,7.376,7.5047,7.6,7.6636,7.7087,7.7273,7.7273,7.731,7.731,7.7335,7.7789,7.8255,7.8878,7.9739,8.0144,8.0525,8.1117,8.1652,8.1996,8.2455,8.2416,8.1958,8.1767,8.1259,8.1003,8.0977,8.0869,8.0953,8.1359,8.1579,8.164,8.1817,8.2039,8.1987,8.2059,8.2083,8.2112,8.2177,8.221,8.228,8.229,8.2293,8.2528,8.3152,8.3972,8.4831,8.5495,8.6314,8.7017,8.7212,8.7209,8.7248,8.7287,8.7876,8.854,8.9281,9.0101,9.0921,9.1428,9.1871,9.1988,9.1715,9.1243,9.0455,8.9179,8.7847,8.6125,8.5554,8.5062,8.4554,8.4425,8.4929,8.5166,8.5162,8.5469,8.5575,8.5459,8.5656,8.5526,8.5875,8.6145,8.6377,8.6494,8.6571,8.6532,8.6519,8.6544,8.6128,8.4873,8.3737,8.2744,8.1663,8.1519,8.1494,8.0862,8.073,8.1153,8.0696,8.0124,8.0045,7.9985,8.0163,8.0259,8.0443,8.0558,8.0654,8.0598,8.0483,8.0407,8.037,8.0143,7.9858,7.9599,7.9364,7.3442,7.3956,7.5583,7.6472,7.6834,7.715,7.731,7.731,7.731,7.731,7.7426,7.7846,7.8536,7.9403,8.0199,8.0468,8.0697,8.1423,8.2073,8.2378,8.276,8.2818,8.2645,8.258,8.2227,8.14,8.1594,8.1817,8.168,8.154,8.1698,8.1744,8.1973,8.2089,8.2095,8.2151,8.2162,8.2182,8.2201,8.2226,8.2287,8.2293,8.2332,8.2371,8.3543,8.4323,8.4987,8.6197,8.69,8.7404,8.7404,8.7404,8.7404,8.7443,8.7798,8.8657,8.9516,9.0335,9.1155,9.1627,9.2002,9.2297,9.1988,9.164,9.0888,8.9534,8.8248,8.7417,8.6731,8.6072,8.5681,8.6045,8.6046,8.6214,8.6549,8.6514,8.6739,8.6868,8.6842,8.6571,8.6287,8.6401,8.6489,8.6423,8.6423,8.6437,8.6274,8.6061,8.5466,8.4362,8.3313,8.2312,8.1258,8.0431,8.0476,8.0257,7.9804,7.9963,7.9963,7.9547,7.9547,7.9554,7.9708,7.9686,7.9681,7.981,8.0053,8.0241,8.0314,8.0121,7.9903,7.9816,7.9674,7.9225,7.9016,7.4149,7.4378,7.6032,7.6834,7.6897,7.7181,7.731,7.731,7.731,7.7365,7.7651,7.8228,7.9037,7.9773,8.0277,8.0506,8.0582,8.1423,8.2073,8.2569,8.2932,8.3046,8.3001,8.3072,8.2494,8.1407,8.1979,8.2144,8.1951,8.1828,8.1867,8.1812,8.2032,8.2117,8.2128,8.2177,8.2192,8.2162,8.2222,8.2397,8.2563,8.2411,8.2645,8.3191,8.405,8.4909,8.5338,8.6506,8.7326,8.7404,8.7404,8.7404,8.7404,8.7716,8.8243,8.9071,8.9939,9.073,9.1356,9.1751,9.1834,9.2067,9.2126,9.1676,9.0525,8.9298,8.8469,8.8123,8.7947,8.7277,8.7028,8.7749,8.7806,8.7902,8.8118,8.7875,8.7602,8.7522,8.7174,8.6647,8.6335,8.6288,8.6322,8.6238,8.6253,8.6336,8.6084,8.5668,8.4649,8.3544,8.2444,8.1407,8.0613,7.9728,7.9717,7.959,7.9191,7.9041,7.9041,7.9066,7.9128,7.9128,7.9139,7.9091,7.9117,7.9279,7.9602,7.9932,8.0258,8.0371,8.0372,7.9827,7.9504,7.9123,7.9077,7.5083,7.5299,7.6336,7.6897,7.7092,7.7212,7.731,7.7304,7.7304,7.7622,7.8228,7.9075,7.9773,8.0315,8.0411,8.0506,8.0544,8.1423,8.1843,8.2225,8.2607,8.3078,8.3171,8.2956,8.2585,8.246,8.2491,8.2216,8.2032,8.2056,8.2117,8.2182,8.2377,8.2265,8.2348,8.2552,8.26,8.2612,8.2631,8.2912,8.3035,8.2957,8.3035,8.4128,8.4675,8.5143,8.5963,8.6861,8.7404,8.7404,8.7404,8.7537,8.7696,8.8087,8.877,8.953,9.0351,9.1089,9.1577,9.1939,9.2124,9.2112,9.1961,9.1535,9.0422,9.0487,8.9751,8.8633,8.8716,8.8786,8.8764,8.91,8.932,8.9281,8.919,8.8822,8.8364,8.7833,8.7447,8.6746,8.6351,8.6076,8.5873,8.5769,8.5839,8.589,8.5491,8.5071,8.3603,8.2396,8.1241,8.0259,7.9663,7.919,7.919,7.9041,7.8941,7.889,7.889,7.8838,7.8812,7.8798,7.9074,7.8999,7.9138,7.9097,7.9119,7.9441,7.9942,8.0687,8.079,8.0133,7.977,7.9535,7.9809,7.5548,7.6236,7.6672,7.6897,7.7124,7.7248,7.731,7.7365,7.7651,7.8309,7.9099,7.9554,7.9999,8.0373,8.0506,8.0506,8.0544,8.0812,8.1595,8.2223,8.2657,8.2885,8.3072,8.3334,8.3137,8.262,8.2474,8.2416,8.2172,8.2279,8.2651,8.2812,8.2999,8.2999,8.3077,8.3358,8.36,8.3646,8.3731,8.4011,8.3972,8.3504,8.3347,8.3855,8.4675,8.4909,8.5456,8.6705,8.7209,8.7411,8.7375,8.767,8.8038,8.8509,8.9101,8.9824,9.0633,9.1128,9.1476,9.1876,9.213,9.1997,9.188,9.1495,9.0644,9.0749,9.0339,8.9824,8.9707,8.9834,8.9279,9.0066,9.0724,9.0513,9.0155,8.9686,8.8952,8.8194,8.7242,8.6302,8.586,8.5587,8.5399,8.52,8.534,8.5437,8.4965,8.43,8.2868,8.1688,8.0728,7.9754,7.9179,7.8991,7.8966,7.889,7.8787,7.8734,7.8746,7.8661,7.8692,7.9354,7.953,7.9354,7.9108,7.9148,7.9149,7.9149,7.9474,7.9986,8.0283,8.0189,8.0023,7.9828,7.9953,7.6036,7.6769,7.6866,7.6961,7.7155,7.7243,7.7396,7.7599,7.7903,7.869,7.9708,7.9874,8.0139,8.0411,8.0506,8.0506,8.0562,8.0749,8.1569,8.2033,8.2253,8.2685,8.3386,8.3646,8.3358,8.2762,8.2877,8.305,8.2674,8.2616,8.2905,8.3416,8.4001,8.415,8.3955,8.4161,8.4441,8.4401,8.4128,8.4284,8.4167,8.3543,8.3582,8.3744,8.4263,8.4509,8.5063,8.6085,8.6753,8.7067,8.7381,8.7969,8.8473,8.9008,8.9489,9.0066,9.0663,9.1091,9.1261,9.1537,9.1987,9.1844,9.1759,9.1591,9.1251,9.0942,9.0751,9.0351,9.0478,9.0489,8.9813,9.0651,9.0911,9.0526,9.0465,9.0031,8.8804,8.7848,8.6757,8.5762,8.5433,8.5117,8.4926,8.4681,8.4566,8.4704,8.4627,8.3761,8.2408,8.1382,8.0718,7.9804,7.8978,7.889,7.8838,7.8708,7.8576,7.8607,7.86,7.8573,7.8767,7.9354,7.9257,7.8514,7.8484,7.898,7.8721,7.8069,7.8447,7.9101,7.9134,7.9054,7.9572,7.9391,7.9386,7.6643,7.6838,7.7029,7.7186,7.731,7.7273,7.7599,7.8016,7.82,7.8829,7.9811,8.0219,8.0411,8.0506,8.0506,8.0543,8.0632,8.08,8.15,8.2224,8.2186,8.2759,8.3493,8.387,8.3742,8.4284,8.3908,8.3389,8.3202,8.3022,8.3227,8.4089,8.4984,8.5569,8.4789,8.4011,8.366,8.3543,8.3191,8.3621,8.3855,8.3432,8.3635,8.4151,8.394,8.3984,8.457,8.5578,8.6196,8.6348,8.7584,8.8227,8.8595,8.9857,9.045,9.0742,9.1456,9.1752,9.1747,9.1747,9.1734,9.1747,9.1705,9.1498,9.0942,9.0981,9.129,9.0826,9.1016,9.1192,9.1088,9.0825,9.0548,9.0321,9.0222,8.9467,8.8145,8.729,8.6149,8.5203,8.4901,8.465,8.4414,8.4205,8.387,8.3881,8.4035,8.3258,8.1867,8.0978,8.0338,7.965,7.8787,7.8501,7.8448,7.8431,7.8424,7.8425,7.8393,7.8233,7.8332,7.8647,7.8321,7.7632,7.7724,7.8121,7.7437,7.6606,7.6981,7.7251,7.7535,7.7701,7.8368,7.8874,7.8683,7.6676,7.6801,7.7029,7.7186,7.7335,7.768,7.796,7.82,7.8816,7.9538,8.0159,8.0468,8.0506,8.0506,8.0523,8.0614,8.0778,8.0892,8.1576,8.3102,8.2626,8.3689,8.4427,8.4402,8.4089,8.3893,8.3541,8.3284,8.2577,8.2947,8.3617,8.448,8.5807,8.6705,8.6545,8.6158,8.6119,8.608,8.5924,8.5846,8.5813,8.4669,8.4095,8.4721,8.3863,8.3611,8.4031,8.5168,8.5773,8.6042,8.7458,8.8512,8.9047,9.0251,9.0933,9.1273,9.1866,9.181,9.1746,9.1705,9.173,9.1638,9.1638,9.1522,9.1367,9.1484,9.1445,9.1233,9.106,9.111,9.1014,9.0071,8.9589,8.9297,8.8901,8.7823,8.6791,8.6212,8.5437,8.462,8.4116,8.3634,8.3294,8.3057,8.2802,8.2616,8.2697,8.2435,8.1269,8.0555,7.9882,7.9295,7.8629,7.8257,7.8025,7.7945,7.7841,7.7824,7.7751,7.7644,7.7785,7.7948,7.7372,7.6657,7.6942,7.7156,7.6052,7.5115,7.5034,7.5216,7.5216,7.6122,7.7235,7.7596,7.7626,7.6773,7.6934,7.7087,7.7335,7.7629,7.796,7.8282,7.8741,7.9561,8.0179,8.043,8.0506,8.0506,8.0505,8.0593,8.0698,8.0931,8.1155,8.1825,8.3395,8.2995,8.3577,8.4254,8.4852,8.4493,8.4083,8.4177,8.4033,8.3408,8.3224,8.4011,8.526,8.6353,8.6861,8.7017,8.6939,8.6666,8.6438,8.6137,8.5919,8.5733,8.5195,8.4603,8.4517,8.4134,8.377,8.4098,8.4808,8.5747,8.6241,8.7408,8.8748,8.9508,9.04,9.1207,9.1683,9.1773,9.1616,9.1304,9.1213,9.1019,9.0671,9.129,9.1677,9.1716,9.1677,9.132,9.1022,9.0752,9.0183,8.9726,8.8752,8.8406,8.8083,8.7426,8.6341,8.5751,8.5237,8.4452,8.3639,8.2957,8.2499,8.2155,8.1827,8.1563,8.1436,8.1301,8.0905,8.0496,7.9879,7.9129,7.8442,7.7891,7.7406,7.7279,7.738,7.7287,7.7183,7.7123,7.7091,7.6983,7.7078,7.6404,7.576,7.5749,7.5375,7.428,7.3532,7.2873,7.254,7.2429,7.3764,7.5783,7.5986,7.5674,7.6897,7.7124,7.7243,7.7592,7.8072,7.82,7.8791,7.973,8.0238,8.0487,8.0506,8.0543,8.056,8.0614,8.0795,8.0962,8.1084,8.1452,8.227,8.2801,8.283,8.3298,8.3869,8.4477,8.4607,8.5005,8.509,8.4824,8.4711,8.4398,8.4948,8.569,8.608,8.6588,8.6783,8.6834,8.6564,8.6501,8.6162,8.5936,8.5741,8.5092,8.487,8.4763,8.4462,8.4273,8.4521,8.5101,8.5505,8.6366,8.7801,8.8738,8.972,9.079,9.1343,9.1561,9.1459,9.0981,9.071,9.058,9.0175,8.9992,9.0542,9.1233,9.1388,9.1097,9.0705,9.0047,8.9493,8.8568,8.7718,8.7374,8.6982,8.6555,8.6025,8.5357,8.4807,8.4063,8.3213,8.2471,8.1765,8.1255,8.1084,8.0767,8.0111,8.0041,7.9755,7.8925,7.8671,7.8865,7.8098,7.729,7.6773,7.637,7.6316,7.6543,7.6912,7.6868,7.6714,7.6663,7.6486,7.5881,7.4983,7.4362,7.4245,7.3545,7.2185,7.1039,7.0155,6.9936,7.0034,7.0759,7.2551,7.2922,7.2724,7.7061,7.7155,7.7651,7.796,7.82,7.8928,7.9665,8.0238,8.0468,8.0506,8.0525,8.0716,8.0762,8.0827,8.1035,8.127,8.1473,8.1817,8.2468,8.2825,8.2947,8.3674,8.4189,8.4544,8.4782,8.4902,8.5023,8.526,8.487,8.4831,8.4792,8.5143,8.5699,8.6165,8.653,8.6782,8.6869,8.6795,8.6406,8.6321,8.6098,8.5717,8.5565,8.5351,8.4887,8.4677,8.4748,8.5197,8.5545,8.5948,8.7926,8.9139,8.9333,9.0171,9.0633,8.9975,8.9936,8.9936,9.014,8.954,8.9013,8.8969,8.9178,8.9042,8.9414,8.9734,8.9598,8.8864,8.8186,8.7369,8.659,8.6102,8.5692,8.5245,8.4477,8.3462,8.288,8.2329,8.1516,8.1088,8.0369,7.9813,7.9694,7.9143,7.8577,7.8536,7.8172,7.7263,7.676,7.6961,7.6622,7.5763,7.5442,7.4896,7.536,7.5674,7.6254,7.6604,7.61,7.5602,7.522,7.4487,7.3499,7.2522,7.1627,7.0788,6.9869,6.8683,6.736,6.7763,6.7931,6.8503,6.9073,6.9514,6.9703,7.7124,7.7243,7.7817,7.8336,7.8841,7.9665,8.0219,8.0487,8.0506,8.0542,8.0681,8.0844,8.0977,8.1101,8.1341,8.1543,8.1701,8.1922,8.2367,8.2674,8.3068,8.3224,8.3696,8.4206,8.4476,8.4714,8.5143,8.5495,8.5182,8.4519,8.4284,8.4366,8.5122,8.5722,8.6163,8.6757,8.717,8.716,8.7144,8.7205,8.6912,8.6565,8.6343,8.61,8.5427,8.5275,8.518,8.573,8.586,8.6042,8.8003,8.8635,8.8791,8.9408,8.982,8.929,8.9053,8.8892,8.8737,8.805,8.7846,8.7715,8.7401,8.7131,8.7384,8.777,8.7607,8.7182,8.6776,8.6252,8.5534,8.485,8.4452,8.4046,8.2702,8.1365,8.0795,8.0353,7.9937,7.9548,7.8988,7.8376,7.7822,7.7317,7.6792,7.653,7.613,7.5401,7.4909,7.4783,7.4441,7.3719,7.36,7.3454,7.3989,7.4288,7.4516,7.4606,7.4237,7.3809,7.3649,7.2519,7.0943,6.9651,6.8552,6.7777,6.7061,6.5774,6.4692,6.5125,6.5017,6.4583,6.5178,6.6401,6.6433,7.7212,7.7457,7.7988,7.8841,7.9751,8.0258,8.0506,8.0525,8.0542,8.0643,8.0869,8.0938,8.1155,8.1386,8.1609,8.1789,8.1922,8.2094,8.2175,8.2269,8.244,8.2645,8.2801,8.3074,8.3933,8.4792,8.5416,8.569,8.569,8.5146,8.4408,8.3825,8.4602,8.5468,8.6325,8.684,8.713,8.7075,8.7072,8.7064,8.7028,8.6932,8.6888,8.6821,8.6688,8.6642,8.6618,8.6711,8.6713,8.6958,8.7384,8.7963,8.8151,8.8446,8.877,8.8429,8.7846,8.7665,8.7234,8.6599,8.599,8.5747,8.5507,8.5115,8.5321,8.6412,8.6495,8.5499,8.4936,8.4451,8.3765,8.3261,8.2843,8.2302,8.13,8.0574,8.0297,7.9383,7.813,7.7725,7.7154,7.6564,7.5866,7.5276,7.4493,7.4284,7.3343,7.273,7.1969,7.1651,7.1727,7.1278,7.1887,7.1931,7.1953,7.2174,7.2309,7.2308,7.1848,7.1207,7.0484,6.937,6.8191,6.6894,6.5674,6.4947,6.4122,6.3044,6.2321,6.2174,6.1792,6.0511,6.0996,6.2306,6.3105,7.751,7.8016,7.8953,7.9708,8.0258,8.0468,8.0523,8.0614,8.0734,8.0854,8.0988,8.1306,8.1573,8.1692,8.1896,8.2045,8.2114,8.2175,8.2241,8.2284,8.229,8.2293,8.2293,8.2645,8.3465,8.4441,8.5182,8.5888,8.6285,8.5897,8.5678,8.609,8.6014,8.5887,8.651,8.6969,8.7018,8.6981,8.6923,8.6924,8.6914,8.6892,8.682,8.6809,8.6773,8.6737,8.6713,8.6675,8.6649,8.6778,8.7513,8.7616,8.7297,8.7435,8.6939,8.6145,8.6066,8.608,8.5931,8.5387,8.4767,8.4518,8.4229,8.3413,8.3562,8.5045,8.5235,8.3947,8.3061,8.2616,8.2159,8.1732,8.1221,8.0618,7.9865,7.9749,7.9581,7.8118,7.6482,7.5773,7.5214,7.4502,7.3757,7.2919,7.2331,7.1132,6.9641,6.8516,6.7243,6.6761,6.7988,6.8189,7.0058,7.04,7.0025,6.9635,6.9575,6.9154,6.8592,6.7947,6.7282,6.6258,6.5133,6.3932,6.2822,6.2115,6.1483,6.095,6.0297,5.9592,5.8502,5.7288,5.6408,5.7122,5.855,7.7854,7.8228,7.9265,8.004,8.0523,8.0626,8.0723,8.0885,8.1156,8.1302,8.1336,8.16,8.182,8.1942,8.2123,8.2234,8.2237,8.2287,8.229,8.2293,8.2293,8.2293,8.2293,8.2332,8.3074,8.405,8.5107,8.5972,8.6622,8.6319,8.6093,8.6235,8.5822,8.6081,8.6527,8.6677,8.6923,8.6875,8.6793,8.6758,8.682,8.6785,8.6761,8.6749,8.6713,8.6636,8.6662,8.661,8.6489,8.6292,8.6522,8.6342,8.6087,8.603,8.5702,8.5169,8.4914,8.4703,8.4716,8.4316,8.3564,8.3254,8.2639,8.1666,8.1462,8.2681,8.2912,8.1842,8.1772,8.1326,8.1049,8.0659,7.9739,7.9021,7.7767,7.7034,7.6756,7.5994,7.4478,7.3221,7.2463,7.1446,7.0449,6.882,6.8262,6.7812,6.6361,6.4635,6.3267,6.2069,6.329,6.4366,6.5771,6.6977,6.6758,6.6486,6.6436,6.5934,6.5101,6.4605,6.388,6.3099,6.2085,6.1004,5.999,5.9181,5.8639,5.822,5.7063,5.5919,5.498,5.3987,5.3253,5.261,5.3605,7.8173,7.8442,7.9403,8.0101,8.0576,8.083,8.0974,8.1142,8.1553,8.1781,8.1803,8.1842,8.2023,8.2123,8.2191,8.2241,8.2287,8.229,8.2293,8.2293,8.2293,8.2293,8.2293,8.2371,8.2969,8.3923,8.5102,8.5624,8.6052,8.6046,8.5866,8.5039,8.5208,8.5741,8.5864,8.6299,8.6782,8.6758,8.6725,8.67,8.67,8.67,8.67,8.6675,8.6649,8.6544,8.6517,8.6409,8.6238,8.5911,8.5495,8.5276,8.5045,8.4958,8.4803,8.442,8.4067,8.3847,8.3553,8.2816,8.2123,8.1535,8.0695,8.0184,7.9998,7.9737,7.9962,7.9739,7.9663,7.9813,7.9543,7.8997,7.7986,7.7033,7.5641,7.4236,7.3915,7.3459,7.1974,7.0576,6.954,6.8482,6.7031,6.5344,6.4552,6.4136,6.2782,6.1136,5.9654,5.8567,5.8474,5.9144,6.0036,6.1203,6.275,6.3022,6.2877,6.1747,6.0892,6.0802,6.0291,5.8778,5.8005,5.8208,5.725,5.6487,5.5857,5.5453,5.4085,5.2983,5.2453,5.1922,5.0837,5.0212,4.9464,7.8625,7.9449,8.0081,8.0411,8.0578,8.0776,8.0988,8.1169,8.1609,8.187,8.1966,8.2118,8.2237,8.2287,8.2287,8.229,8.229,8.2293,8.2293,8.2293,8.2293,8.2293,8.2299,8.231,8.2798,8.371,8.4797,8.5621,8.5836,8.6324,8.635,8.5509,8.6156,8.6204,8.5657,8.6144,8.6584,8.6584,8.6623,8.6596,8.6517,8.6531,8.6623,8.6623,8.661,8.6298,8.6053,8.5863,8.5547,8.5244,8.4936,8.4583,8.4325,8.408,8.3914,8.3532,8.3161,8.2735,8.2213,8.1596,8.0979,8.015,7.9391,7.8477,7.7944,7.7006,7.6839,7.6142,7.6278,7.7146,7.6962,7.628,7.5466,7.4545,7.3376,7.1864,7.0962,6.98,6.8413,6.7451,6.6643,6.5394,6.4101,6.2772,6.179,6.0875,5.8934,5.7251,5.531,5.456,5.4036,5.4326,5.4825,5.6954,5.9088,5.9109,5.8806,5.7622,5.6715,5.6661,5.5734,5.3715,5.3323,5.504,5.4701,5.3803,5.3274,5.2812,5.2347,5.146,5.0856,5.0086,4.8793,4.7465,4.6397]}]]